[[{"header":{"parameterUnit":"m.s-1","parameterCategory":1,"la1":30.6,"la2":29.2853,"lo1":-89.7004,"lo2":-87.6739,"dy":0.0162,"dx":0.0183,"nx":112,"ny":82,"refTime":"2023-07-04T12:00:00:Z","depth":0,"parameterNumber":2,"parameterNumberName":"U-component_of_WINDS"},"data":[0.0,0.0,0.0,0.0,0.0,0.0,0.0,0.0,0.0,0.0,0.0,0.0,0.0,0.0,0.0,0.0,0.0,0.0,0.0,0.0,0.0,0.0,0.0,0.0,0.0,0.0,0.0,0.0,0.0,0.0,0.0,0.0,0.0,0.0,0.0,0.0,0.0,0.0,0.0,0.0,0.0,0.0,0.0,0.0,0.0,0.0,0.0,0.0,0.0,0.0,0.0,0.0,0.0,0.0,0.0,0.0,0.0,0.0,0.0,0.0,0.0,0.0,0.0,0.0,0.0,0.0,0.0,0.0,0.0,0.0,0.0,0.0,0.0,0.0,0.0,0.0,0.0,0.0,0.0,0.0,0.0,0.0,0.0,0.0,0.0,0.0,0.0,0.0,0.0,0.0,0.0168,0.0056,-0.0729,-0.1234,-0.1291,-0.1389,-0.1418,-0.1425,0.0,0.0,0.0,0.0,0.0,0.0,0.0,0.0,0.0,0.0,0.0,0.0,0.0,0.0,0.0,0.0,0.0,0.0,0.0,0.0,0.0,0.0,0.0,0.0,0.0,0.0,0.0,0.0,0.0,0.0,0.0,0.0,0.0,0.0,0.0,0.0,0.0,0.0,0.0,0.0,0.0,0.0,0.0,0.0,0.0,0.0,0.0,0.0,0.0,0.0,0.0,0.0,0.0,0.0,0.0,0.0,0.0,0.0,0.0,0.0,0.0,0.0,0.0,0.0,0.0,0.0,0.0,0.0,0.0,0.0,0.0,0.0,0.0,0.0,0.0,0.0,0.0,0.0,0.0,0.0,0.0,0.0,0.0,0.0,0.0,0.0,0.0,0.0,0.0,0.0,0.0,0.0,0.0,0.0,0.0,0.0,0.0,0.0,0.0,0.0,0.0,0.0,0.0,0.0,-0.0561,-0.1178,-0.1234,-0.129,-0.1291,-0.1389,-0.1432,-0.1471,0.0,0.0,0.0,0.0,0.0,0.0,0.0,0.0,0.0,0.0,0.0,0.0,0.0,0.0,0.0,0.0,0.0,0.0,0.0,0.0,0.0,0.0,0.0,0.0,0.0,0.0,0.0,0.0,0.0,0.0,0.0,0.0,0.0,0.0,0.0,0.0,0.0,0.0,0.0,0.0,0.0,0.0,0.0,0.0,0.0,0.0,0.0,0.0,0.0,0.0,0.0,0.0,0.0,0.0,0.0,0.0,0.0,0.0,0.0,0.0,0.0,0.0,0.0,0.0,0.0,0.0,0.0,0.0,0.0,0.0,0.0,0.0,0.0,0.0,0.0,0.0,0.0,0.0,0.0,0.0,0.0,0.0,0.0,0.0,0.0,0.0,0.0,0.0,0.0,0.0,0.0,0.0,0.0,0.0,0.0,0.0,0.0,0.0,0.0,0.0,0.0,0.0,0.0,-0.0729,-0.1066,-0.1515,-0.1515,-0.1515,-0.1572,-0.1645,-0.1762,-0.1788,-0.1591,0.0,0.0,0.0,0.0,0.0,0.0,0.0,0.0,0.0,0.0,0.0,0.0,0.0,0.0,0.0,0.0,0.0,0.0,0.0,0.0,0.0,0.0,0.0,0.0,0.0,0.0,0.0,0.0,0.0,0.0,0.0,0.0,0.0,0.0,0.0,0.0,0.0,0.0,0.0,0.0,0.0,0.0,0.0,0.0,0.0,0.0,0.0,0.0,0.0,0.0,0.0,0.0,0.0,0.0,0.0,0.0,0.0,0.0,0.0,0.0,0.0,0.0,0.0,0.0,0.0,0.0,0.0,0.0,0.0,0.0,0.0,0.0,0.0,0.0,0.0,0.0,0.0,0.0,0.0,0.0,0.0,0.0,0.0,0.0,0.0,0.0,0.0,0.0,0.0,0.0,0.0,0.0,0.0,0.0,0.0,0.0,0.0,0.0,0.0,0.0,0.0,0.0,-0.1403,-0.1515,-0.1684,-0.1695,-0.1759,-0.1874,-0.1985,-0.1993,-0.1993,-0.1963,0.0,0.0,0.0,0.0,0.0,0.0,0.0,0.0,0.0,0.0,0.0,0.0,0.0,0.0,0.0,0.0,0.0,0.0,0.0,0.0,0.0,0.0,0.0,0.0,0.0,0.0,0.0,0.0,0.0,0.0,0.0,0.0,0.0,0.0,0.0,0.0,0.0,0.0,0.0,0.0,0.0,0.0,0.0,0.0,0.0,0.0,0.0,0.0,0.0,0.0,0.0,0.0,0.0,0.0,0.0,0.0,0.0,0.0,0.0,0.0,0.0,0.0,0.0,0.0,0.0,0.0,0.0,0.0,0.0,0.0,0.0,0.0,0.0,0.0,0.0,0.0,0.0,0.0,0.0,0.0,0.0,0.0,0.0,0.0,0.0,0.0,0.0,0.0,0.0,0.0,0.0,0.0,0.0,0.0,0.0,0.0,0.0,0.0,0.0,0.0,0.0,0.0,-0.1741,-0.1796,-0.1959,-0.2014,-0.2052,-0.2052,-0.2112,-0.2121,-0.2121,-0.1985,0.0,0.0,0.0,0.0,0.0,0.0,0.0,0.0,0.0,0.0,0.0,0.0,0.0,0.0,0.0,0.0,0.0,0.0,0.0,0.0,0.0,0.0,0.0,0.0,0.0,0.0,0.0,0.0,0.0,0.0,0.0,0.0,0.0,0.0,0.0,0.0,0.0,0.0,0.0,0.0,0.0,0.0,0.0,0.0,0.0,0.0,0.0,0.0,0.0,0.0,0.0,0.0,0.0,0.0,0.0,0.0,0.0,0.0,0.0,0.0,0.0,0.0,0.0,0.0,0.0,0.0,0.0,0.0,0.0,0.0,0.0,0.0,0.0,0.0,0.0,0.0,0.0,0.0,0.0,0.0,0.0,0.0,0.0,0.0,0.0,0.0,0.0,0.0,0.0,0.0,0.0,0.0,0.0,0.0,0.0,0.0,0.0,0.0,0.0,0.0,0.0,0.0,-0.1999,-0.2196,-0.2252,-0.2319,-0.2303,-0.2181,-0.2204,-0.2193,-0.2127,0.0,0.0,0.0,0.0,0.0,0.0,0.0,0.0,0.0,0.0,0.0,0.0,0.0,0.0,0.0,0.0,0.0,0.0,0.0,0.0,0.0,0.0,0.0,0.0,0.0,0.0,0.0,0.0,0.0,0.0,0.0,0.0,0.0,0.0,0.0,0.0,0.0,0.0,0.0,0.0,0.0,0.0,0.0,0.0,0.0,0.0,0.0,0.0,0.0,0.0,0.0,0.0,0.0,0.0,0.0,0.0,0.0,0.0,0.0,0.0,0.0,0.0,0.0,0.0,0.0,0.0,0.0,0.0,0.0,0.0,0.0,0.0,0.0,0.0,0.0,0.0,0.0,0.0,0.0,0.0,0.0,0.0,0.0,0.0,0.0,0.0,0.0,0.0,0.0,0.0,0.0,0.0,0.0,0.0,0.0,0.0,0.0,0.0,0.0,0.0,0.0,0.0,-0.1994,-0.2266,-0.2482,-0.2507,-0.2579,-0.2501,-0.2315,-0.2315,-0.2289,-0.2157,0.0,0.0,0.0,0.0,0.0,0.0,0.0,0.0,0.0,0.0,0.0,0.0,0.0,0.0,0.0,0.0,0.0,0.0,0.0,0.0,0.0,0.0,0.0,0.0,0.0,0.0,0.0,0.0,0.0,0.0,0.0,0.0,0.0,0.0,0.0,0.0,0.0,0.0,0.0,0.0,0.0,0.0,0.0,0.0,0.0,0.0,0.0,0.0,0.0,0.0,0.0,0.0,0.0,0.0,0.0,0.0,0.0,0.0,0.0,0.0,0.0,0.0,0.0,0.0,0.0,0.0,0.0,0.0,0.0,0.0,0.0,0.0,0.0,0.0,0.0,0.0,0.0,0.0,0.0,0.0,0.0,0.0,0.0,0.0,0.0,0.0,0.0,0.0,0.0,0.0,0.0,0.0,0.0,0.0,0.0,0.0,0.0,0.0,0.0,0.0,0.0,0.0,-0.2346,-0.2532,-0.2625,-0.2707,-0.2786,-0.277,-0.2582,-0.2452,-0.2357,0.0,0.0,0.0,0.0,0.0,0.0,0.0,0.0,0.0,0.0,0.0,0.0,0.0,0.0,0.0,0.0,0.0,0.0,0.0,0.0,0.0,0.0,0.0,0.0,0.0,0.0,0.0,0.0,0.0,0.0,0.0,0.0,0.0,0.0,0.0,0.0,0.0,0.0,0.0,0.0,0.0,0.0,0.0,0.0,0.0,0.0,0.0,0.0,0.0,0.0,0.0,0.0,0.0,0.0,0.0,0.0,0.0,0.0,0.0,0.0,0.0,0.0,0.0,0.0,0.0,0.0,0.0,0.0,0.0,0.0,0.0,0.0,0.0,0.0,0.0,0.0,0.0,0.0,0.0,0.0,0.0,0.0,0.0,0.0,0.0,0.0,0.0,0.0,0.0,0.0,0.0,0.0,0.0,0.0,0.0,0.0,0.0,0.0,0.0,0.0,0.0,0.0,0.0,-0.2605,-0.2789,-0.2959,-0.2987,-0.3067,-0.2986,-0.2722,-0.2608,-0.2488,-0.2221,0.0,0.0,0.0,0.0,0.0,0.0,0.0,0.0,0.0,0.0,0.0,0.0,0.0,0.0,0.0,0.0,0.0,0.0,0.0,0.0,0.0,0.0,0.0,0.0,0.0,0.0,0.0,0.0,0.0,0.0,0.0,0.0,0.0,0.0,0.0,0.0,0.0,0.0,0.0,0.0,0.0,0.0,0.0,0.0,0.0,0.0,0.0,0.0,0.0,0.0,0.0,0.0,0.0,0.0,0.0,0.0,0.0,0.0,0.0,0.0,0.0,0.0,0.0,0.0,0.0,0.0,0.0,0.0,0.0,0.0,0.0,0.0,0.0,0.0,0.0,0.0,0.0,0.0,0.0,0.0,0.0,0.0,0.0,0.0,0.0,0.0,0.0,0.0,0.0,0.0,0.0,0.0,0.0,0.0,0.0,0.0,0.0,0.0,0.0,0.0,0.0,0.0,-0.2876,-0.2995,-0.3103,-0.314,-0.3193,-0.3092,-0.2753,-0.2686,-0.2554,-0.2221,0.0,0.0,0.0,0.0,0.0,0.0,0.0,0.0,0.0,0.0,0.0,0.0,0.0,0.0,0.0,0.0,0.0,0.0,0.0,0.0,0.0,0.0,0.0,0.0,0.0,0.0,0.0,0.0,0.0,0.0,0.0,0.0,0.0,0.0,0.0,0.0,0.0,0.0,0.0,0.0,0.0,0.0,0.0,0.0,0.0,0.0,0.0,0.0,0.0,0.0,0.0,0.0,0.0,0.0,0.0,0.0,0.0,0.0,0.0,0.0,0.0,0.0,0.0,0.0,0.0,0.0,0.0,0.0,0.0,0.0,0.0,0.0,0.0,0.0,0.0,0.0,0.0,0.0,0.0,0.0,0.0,0.0,0.0,0.0,0.0,0.0,0.0,0.0,0.0,0.0,0.0,0.0,0.0,0.0,0.0,0.0,0.0,0.0,0.0,0.0,0.0,0.0,-0.3091,-0.3103,-0.3134,-0.3218,-0.3226,-0.3092,-0.2753,-0.2686,-0.2554,-0.2221,0.0,0.0,0.0,0.0,0.0,0.0,0.0,0.0,0.0,0.0,0.0,0.0,0.0,0.0,0.0,0.0,0.0,0.0,0.0,0.0,0.0,0.0,0.0,0.0,0.0,0.0,0.0,0.0,0.0,0.0,0.0,0.0,0.0,0.0,0.0,0.0,0.0,0.0,0.0,0.0,0.0,0.0,0.0,0.0,0.0,0.0,0.0,0.0,0.0,0.0,0.0,0.0,0.0,0.0,0.0,0.0,0.0,0.0,0.0,0.0,-0.3848,-0.3744,0.0,0.0,0.0,0.0,0.0,0.0,0.0,0.0,0.0,0.0,0.0,0.0,0.0,0.0,0.0,0.0,0.0,0.0,0.0,0.0,0.0,0.0,0.0,0.0,0.0,0.0,0.0,0.0,0.0,0.0,0.0,0.0,0.0,0.0,0.0,0.0,0.0,0.0,0.0,0.0,-0.3185,-0.3197,-0.3205,-0.3224,-0.3226,-0.3092,-0.2753,-0.2686,-0.2554,-0.2221,-0.2018,0.0,0.0,0.0,0.0,0.0,0.0,0.0,0.0,0.0,0.0,0.0,0.0,0.0,0.0,0.0,0.0,0.0,0.0,0.0,0.0,0.0,0.0,0.0,0.0,0.0,0.0,0.0,0.0,0.0,0.0,0.0,0.0,0.0,0.0,0.0,0.0,0.0,0.0,0.0,0.0,0.0,0.0,0.0,0.0,0.0,0.0,0.0,0.0,0.0,0.0,0.0,0.0,0.0,0.0,0.0,0.0,0.0,0.0,0.0,-0.4419,-0.4275,0.0,0.0,0.0,0.0,0.0,0.0,0.0,0.0,0.0,0.0,0.0,0.0,0.0,0.0,0.0,0.0,0.0,0.0,0.0,0.0,0.0,0.0,0.0,0.0,0.0,0.0,0.0,0.0,0.0,0.0,0.0,0.0,0.0,0.0,0.0,0.0,0.0,0.0,0.0,0.0,-0.3287,-0.333,-0.3358,-0.3358,-0.3358,-0.3199,-0.2812,-0.2741,-0.2589,-0.2223,-0.2018,0.0,0.0,0.0,0.0,0.0,0.0,0.0,0.0,0.0,0.0,0.0,0.0,0.0,0.0,0.0,0.0,0.0,0.0,0.0,0.0,0.0,0.0,0.0,0.0,0.0,0.0,0.0,0.0,0.0,0.0,0.0,0.0,0.0,0.0,0.0,0.0,0.0,0.0,0.0,0.0,0.0,0.0,0.0,0.0,0.0,0.0,0.0,0.0,0.0,0.0,0.0,0.0,0.0,-0.5683,-0.5674,-0.5668,-0.5609,-0.5466,-0.5419,-0.4958,-0.4776,-0.4686,-0.4686,0.0,0.0,0.0,0.0,0.0,0.0,0.0,0.0,0.0,0.0,0.0,0.0,0.0,0.0,0.0,0.0,0.0,0.0,0.0,0.0,0.0,0.0,-0.2594,-0.2536,-0.2691,-0.2842,-0.2691,0.0,0.0,0.0,0.0,0.0,0.0,0.0,0.0,0.0,0.0,0.0,-0.3387,-0.3452,-0.3499,-0.3499,-0.3499,-0.3325,-0.2826,-0.2819,-0.2649,-0.2173,-0.1966,-0.1826,0.0,0.0,0.0,0.0,0.0,0.0,0.0,0.0,0.0,0.0,0.0,0.0,0.0,0.0,0.0,0.0,0.0,0.0,0.0,0.0,0.0,0.0,0.0,0.0,0.0,0.0,0.0,0.0,0.0,0.0,0.0,0.0,-0.2903,-0.2921,0.0,0.0,0.0,0.0,0.0,0.0,0.0,0.0,0.0,0.0,0.0,0.0,0.0,-0.6542,-0.6558,-0.6542,-0.6624,-0.6562,-0.627,-0.6131,-0.6125,-0.5749,-0.568,-0.5796,-0.541,0.0,-0.4811,-0.4811,0.0,0.0,0.0,0.0,0.0,0.0,0.0,0.0,0.0,0.0,0.0,0.0,0.0,0.0,0.0,0.0,0.0,0.0,0.0,0.0,0.0,0.0,-0.2907,-0.2942,-0.3301,-0.3634,-0.38,-0.3698,-0.3684,-0.4066,-0.4215,-0.4184,0.0,0.0,0.0,0.0,0.0,0.0,-0.3483,-0.3493,-0.3499,-0.3499,-0.3499,-0.3348,-0.2899,-0.2899,-0.2652,-0.2096,-0.1814,-0.1725,-0.1616,-0.055,0.0,0.0,0.0,0.0,0.0,0.0,0.0,0.0,0.0,0.0,0.0,0.0,0.0,0.0,0.0,0.0,0.0,0.0,0.0,0.0,0.0,0.0,0.0,0.0,0.0,0.0,0.0,0.0,0.0,-0.3282,-0.3634,-0.3646,-0.4137,-0.4525,0.0,0.0,0.0,0.0,0.0,0.0,0.0,0.0,0.0,-0.7245,-0.7401,-0.7525,-0.7525,-0.7525,-0.7443,-0.7364,-0.7208,-0.693,-0.6682,-0.6532,-0.6377,-0.6185,-0.5801,-0.5586,-0.5286,-0.4993,-0.4866,-0.4754,0.0,0.0,0.0,0.0,-0.4382,-0.4311,-0.4165,-0.3941,-0.3706,-0.3509,0.0,0.0,0.0,0.0,0.0,0.0,0.0,-0.2971,-0.2912,-0.31,-0.3362,-0.3428,-0.3697,-0.395,-0.4199,-0.41,-0.4172,-0.4656,-0.4686,-0.4631,-0.458,-0.4319,0.0,0.0,0.0,-0.3571,-0.3571,-0.3616,-0.3648,-0.3648,-0.3573,-0.3325,-0.2981,-0.2827,-0.2578,-0.2011,-0.1865,-0.1569,-0.1127,-0.0356,0.0508,0.0,0.0,0.0,0.0,0.0,0.0,0.0,0.0,0.0,0.0,0.0,0.0,0.0,0.0,0.0,0.0,0.0,0.0,0.0,0.0,0.0,0.0,0.0,0.0,0.0,0.0,0.0,0.0,-0.3951,-0.4225,-0.4302,-0.4774,-0.5082,0.0,0.0,0.0,0.0,0.0,0.0,-0.7496,-0.7902,-0.816,-0.8334,-0.8296,-0.8321,-0.8405,-0.8409,-0.8325,-0.8078,-0.7947,-0.767,-0.725,-0.7044,-0.6798,-0.6412,-0.613,-0.5889,-0.5736,-0.5275,-0.5053,-0.4972,-0.4972,-0.4917,-0.4847,-0.478,-0.4658,-0.4583,-0.4511,-0.4276,-0.3951,-0.3728,-0.3406,-0.3106,-0.2802,0.0,0.0,0.0,0.0,-0.3374,-0.3369,-0.3644,-0.3819,-0.384,-0.3931,-0.4104,-0.4355,-0.444,-0.4509,-0.4959,-0.4886,-0.4831,-0.4831,-0.4516,0.0,-0.4006,-0.3753,-0.3661,-0.3661,-0.3722,-0.3763,-0.3763,-0.3604,-0.3346,-0.2906,-0.2749,-0.2418,-0.1918,-0.1767,-0.1321,-0.051,-0.0,0.0743,0.1666,0.0,0.0,0.0,0.0,0.0,0.0,0.0,0.0,0.0,0.0,0.0,0.0,0.0,0.0,0.0,0.0,0.0,0.0,0.0,0.0,0.0,0.0,0.0,0.0,0.0,0.0,0.0,0.0,0.0,-0.4927,-0.5162,0.0,0.0,0.0,0.0,-0.7092,-0.7513,-0.7909,-0.8315,-0.8756,-0.8945,-0.8945,-0.8949,-0.9048,-0.9231,-0.9323,-0.9235,-0.8882,-0.8263,-0.7839,-0.7584,-0.7014,-0.6692,-0.656,-0.6173,-0.5936,-0.5869,-0.5485,-0.5349,-0.5341,-0.5341,-0.5339,-0.5333,-0.5339,-0.5178,-0.5015,-0.4934,-0.468,-0.4257,-0.4008,-0.3508,-0.301,-0.301,-0.2844,0.0,0.0,-0.3019,-0.3372,-0.3449,-0.3817,-0.4187,-0.4267,-0.4285,-0.4374,-0.4645,-0.4645,-0.4678,-0.4741,-0.4699,-0.4694,-0.4694,0.0,-0.4212,-0.4212,-0.3972,-0.3756,-0.3756,-0.3761,-0.3763,-0.3526,-0.3526,-0.3212,-0.2584,-0.2506,-0.2249,-0.1666,-0.1209,-0.0673,-0.0,0.0671,0.1211,0.1667,0.2013,0.0,0.0,0.0,0.0,0.0,0.0,0.0,0.0,0.0,0.0,0.0,0.0,0.0,0.0,0.0,0.0,0.0,0.0,0.0,0.0,0.0,0.0,0.0,0.0,0.0,0.0,0.0,0.0,-0.5162,-0.5398,0.0,-0.6103,-0.6731,-0.7209,-0.7593,-0.8298,-0.8796,-0.8946,-0.9383,-0.9665,-0.9665,-0.9648,-0.9689,-0.9777,-0.9602,-0.9437,-0.9266,-0.8661,-0.8194,-0.7763,-0.718,-0.684,-0.6715,-0.6228,-0.606,-0.6011,-0.5706,-0.551,-0.5368,-0.5204,-0.5124,-0.5121,-0.5037,-0.487,-0.4787,-0.4617,-0.4367,-0.4034,-0.3531,-0.3028,-0.2524,-0.2524,-0.2548,-0.2578,-0.2751,-0.3036,-0.3335,-0.3539,-0.3724,-0.382,-0.3848,-0.3853,-0.3855,-0.3944,-0.4034,-0.4016,-0.3955,-0.442,-0.472,-0.4633,-0.4329,-0.4144,-0.4063,-0.3901,-0.3763,-0.3763,-0.3684,-0.3604,-0.3526,-0.3136,-0.2823,-0.2747,-0.2434,-0.1879,-0.1164,-0.0853,-0.0309,0.0613,0.1158,0.1629,0.2014,0.2109,0.2275,0.0,0.0,0.0,0.0,0.0,0.0,0.0,0.0,0.0,0.0,0.0,0.0,0.0,0.0,0.0,0.0,0.0,0.0,0.0,0.0,0.0,0.0,0.0,0.0,0.0,-0.5012,-0.5168,-0.5476,-0.5674,-0.6018,-0.6489,-0.7183,-0.7785,-0.8175,-0.891,-0.9342,-0.9492,-0.9794,-0.9951,-0.9864,-0.9956,-0.9956,-0.9868,-0.9703,-0.9533,-0.9174,-0.8644,-0.8116,-0.7588,-0.7139,-0.6789,-0.6529,-0.626,-0.6083,-0.5908,-0.573,-0.5547,-0.5406,-0.5238,-0.5067,-0.4981,-0.4808,-0.4637,-0.4464,-0.412,-0.378,-0.344,-0.3097,-0.2668,-0.2323,-0.2236,-0.2172,-0.2285,-0.2549,-0.2752,-0.3048,-0.3139,-0.3318,-0.3406,-0.3406,-0.3406,-0.3406,-0.3406,-0.3406,-0.3406,-0.3406,-0.3899,-0.4389,-0.4212,-0.4089,-0.3908,-0.3824,-0.3645,-0.3572,-0.3572,-0.3388,-0.3214,-0.3136,-0.2744,-0.2433,-0.2276,-0.1806,-0.1178,-0.0471,-0.0236,0.0314,0.1257,0.1649,0.1962,0.2196,0.2275,0.2353,0.2511,0.0,0.0,0.0,0.0,0.0,0.0,0.0,0.0,0.0,0.0,0.0,0.0,0.0,0.0,0.0,0.0,0.0,0.0,0.0,0.0,0.0,0.0,0.0,-0.5321,-0.5321,-0.5479,-0.587,-0.6073,-0.6401,-0.7042,-0.7434,-0.8097,-0.8945,-0.923,-0.9492,-0.9941,-0.9951,-0.9864,-0.9602,-0.9883,-0.98,-0.9533,-0.9828,-0.9468,-0.8548,-0.8208,-0.7768,-0.7054,-0.6609,-0.6254,-0.6083,-0.6083,-0.5908,-0.5644,-0.5463,-0.5371,-0.5371,-0.5371,-0.5191,-0.4921,-0.4748,-0.448,-0.4121,-0.3406,-0.2869,-0.2511,-0.2784,-0.2603,-0.2242,-0.1973,-0.1885,-0.1885,-0.2154,-0.2334,-0.2513,-0.2513,-0.269,-0.2867,-0.2867,-0.2867,-0.2867,-0.2867,-0.2867,-0.2867,-0.2867,-0.3227,-0.3587,-0.3587,-0.3524,-0.3473,-0.3473,-0.3266,0.0,-0.3177,-0.2953,-0.2752,-0.2514,-0.2434,-0.2042,-0.0943,-0.055,-0.0157,0.0393,0.0786,0.1257,0.2044,0.2198,0.2196,0.2196,0.2431,0.2511,0.2511,0.0,0.0,0.0,0.0,0.0,0.0,0.0,0.0,0.0,0.0,0.0,0.0,0.0,0.0,0.0,0.0,0.0,0.0,0.0,0.0,0.0,-0.5065,-0.5321,-0.5321,-0.5401,-0.5671,-0.6086,-0.6134,-0.6522,-0.7286,-0.7689,-0.8227,-0.8954,-0.9352,-0.9548,-0.9685,-0.9689,-0.9694,-0.9529,-0.9538,-0.9639,-0.9832,-0.9288,-0.8292,-0.7024,-0.7221,-0.7234,-0.6881,-0.6435,-0.6169,-0.6083,-0.5908,-0.5641,-0.5463,-0.546,-0.5104,-0.4567,-0.4567,-0.4567,-0.4387,-0.3853,-0.3317,-0.296,-0.2962,-0.2576,-0.211,-0.2322,-0.1866,-0.1144,-0.1072,-0.1256,-0.1525,-0.1615,-0.1705,-0.1794,-0.2154,-0.2333,-0.2422,-0.2422,-0.2422,-0.2422,-0.2422,-0.2422,-0.2422,-0.2422,-0.2512,-0.2691,-0.3047,-0.2996,-0.2956,-0.2956,-0.2801,-0.2751,-0.2751,-0.2735,-0.2625,-0.258,-0.1772,-0.112,-0.0708,-0.0,0.0707,0.1335,0.165,0.1886,0.2198,0.2196,0.2275,0.2431,0.251,0.2589,0.0,0.0,0.0,0.0,0.0,0.0,0.0,0.0,0.0,0.0,0.0,0.0,0.0,0.0,0.0,0.0,0.0,0.0,0.0,0.0,0.0,0.0,-0.5243,-0.5419,-0.555,-0.5717,-0.5988,-0.6308,-0.6427,-0.6702,-0.7293,-0.7695,-0.8135,-0.8824,-0.9104,-0.9345,-0.9345,-0.9345,-0.9262,-0.9095,-0.92,-0.9301,-0.9393,-0.8488,-0.7408,-0.641,-0.6511,-0.6432,-0.6346,-0.5994,-0.5727,-0.5636,-0.546,-0.5371,-0.5191,-0.5013,-0.4654,-0.4119,0.0,0.0,0.0,0.0,-0.2691,-0.2244,-0.2513,-0.2047,-0.1412,-0.1787,-0.1513,-0.0884,-0.0536,-0.0628,-0.0897,-0.1076,-0.1076,-0.1166,-0.1525,-0.1615,-0.1615,-0.1615,-0.1615,-0.1615,-0.1615,-0.1615,-0.1615,-0.1615,-0.1615,0.0,-0.1972,-0.222,-0.2467,-0.2467,-0.2422,-0.2473,-0.2473,-0.2115,-0.184,-0.165,-0.0982,-0.0324,-0.0,0.0711,0.0,0.0,0.0,0.2199,0.2353,0.2353,0.0,0.0,0.0,0.2759,0.3024,0.2855,0.0,0.0,0.2799,0.2749,0.0,0.0,0.0,0.0,0.0,0.0,0.0,0.0,0.0,0.0,0.0,0.0,0.0,0.0,0.0,0.0,-0.5349,-0.5626,-0.5916,-0.6112,-0.6286,-0.6525,-0.6763,-0.7018,-0.7293,-0.7592,-0.8025,-0.8548,-0.8732,-0.8823,-0.8823,-0.8823,0.0,0.0,0.0,-0.887,-0.8312,-0.7422,-0.6704,-0.634,-0.5808,-0.563,-0.563,-0.5458,-0.5191,-0.501,-0.501,-0.4921,-0.4921,-0.4387,-0.403,-0.3849,-0.403,-0.3674,-0.3048,-0.2872,-0.2334,-0.1794,-0.2064,0.0,0.0,-0.1165,-0.1254,-0.1073,-0.0269,0.009,0.009,-0.0359,-0.0538,-0.0538,-0.0538,-0.0538,-0.0538,-0.0538,-0.0538,-0.0538,-0.0538,-0.0538,-0.0538,-0.0538,-0.0538,-0.0538,-0.0538,-0.1345,-0.1974,-0.1974,-0.1943,-0.1917,-0.1913,-0.1195,-0.0589,-0.0335,-0.0,0.0,0.1054,0.1511,0.1885,0.2195,0.2201,0.2366,0.2531,0.2531,0.2689,0.2847,0.2847,0.3036,0.3341,0.3172,0.3069,0.3211,0.2963,0.2793,0.0,0.0,0.0,0.0,0.0,0.0,0.0,0.0,0.0,0.0,0.0,0.0,0.0,0.0,0.0,-0.514,-0.5314,-0.552,-0.6147,-0.6428,-0.6583,-0.6841,-0.6892,-0.7063,-0.745,-0.7489,-0.7768,-0.8201,-0.8288,-0.8376,-0.8376,-0.8113,-0.8028,-0.8032,-0.8147,-0.7517,-0.6242,-0.6065,-0.5891,-0.5808,-0.5356,0.0,-0.5458,-0.5188,-0.501,-0.501,-0.4837,-0.4656,-0.4389,-0.3942,-0.3497,-0.3141,-0.3141,-0.2782,-0.2153,-0.2334,-0.1705,-0.0987,-0.1436,-0.1421,-0.1142,-0.0447,-0.0266,-0.0263,-0.0089,0.0539,0.0,0.0987,0.0718,0.0448,0.0448,0.0448,0.0448,0.0448,0.0448,0.0448,0.0448,0.0448,0.0448,0.0448,0.0448,0.0448,0.0448,-0.0359,-0.0897,-0.0448,-0.0447,-0.0443,-0.0435,-0.0347,-0.0,0.0493,0.1061,0.1535,0.1824,0.2047,0.2118,0.2196,0.2396,0.2605,0.2905,0.2907,0.2988,0.3318,0.3318,0.3407,0.359,0.3502,0.3461,0.3649,0.3098,0.2857,0.0,0.0,0.0,0.0,0.0,0.0,0.0,0.0,0.0,0.0,0.0,-0.2275,-0.2681,0.0,-0.383,-0.4615,-0.4787,-0.5154,-0.5782,-0.6108,-0.6408,-0.684,-0.6993,-0.7065,-0.7143,-0.7149,-0.7238,-0.7499,-0.7496,-0.7496,-0.7496,-0.7411,-0.7234,-0.7143,-0.716,-0.671,-0.5714,-0.5716,-0.5542,-0.5364,-0.5095,-0.5008,-0.5015,-0.4746,-0.4567,-0.4389,-0.4123,-0.3853,-0.3674,-0.3229,-0.2782,-0.2513,-0.2243,-0.1974,-0.1705,-0.1794,-0.1525,-0.0987,-0.0808,-0.0714,-0.0532,0.0358,0.0713,0.062,0.0447,0.0718,0.1076,0.1345,0.1256,0.1076,0.1076,0.1076,0.1076,0.1076,0.1076,0.1073,0.0974,0.1069,0.1073,0.1062,0.1069,0.1076,0.1076,0.0628,0.0359,0.0359,0.0538,0.0801,0.0958,0.0956,0.103,0.1494,0.1719,0.1861,0.2161,0.2292,0.2444,0.2555,0.2746,0.2958,0.3193,0.3194,0.3278,0.3528,0.3528,0.3718,0.3933,0.3716,0.3756,0.3798,0.3482,0.3141,0.0,0.0,0.0,0.0,0.0,0.0,0.0,0.0,-0.1071,-0.1257,-0.1597,-0.1934,-0.2186,-0.2689,-0.3281,-0.372,-0.4143,-0.4598,-0.5308,-0.5581,-0.6013,-0.6624,-0.6896,-0.6874,-0.6704,-0.6704,-0.6704,-0.6704,-0.6704,-0.6704,-0.6704,-0.6704,-0.6526,-0.6251,-0.6171,-0.6005,-0.5668,-0.5494,-0.5233,-0.4797,-0.48,-0.4701,-0.4598,-0.4236,-0.3959,-0.3767,-0.3318,-0.3048,-0.2959,-0.2423,-0.2154,-0.1974,-0.1345,-0.0987,-0.0897,-0.1077,-0.0987,-0.0718,-0.0,0.018,0.0269,0.0987,0.1345,0.1345,0.0987,0.0807,0.0897,0.1256,0.1436,0.1436,0.1436,0.1436,0.1436,0.1436,0.1431,0.1422,0.1317,0.1326,0.1422,0.1405,0.142,0.1436,0.1436,0.1525,0.1436,0.0897,0.1256,0.16,0.1906,0.1899,0.1966,0.2164,0.2049,0.2116,0.2372,0.2483,0.272,0.3044,0.3118,0.323,0.3486,0.3489,0.3574,0.3831,0.3831,0.3951,0.4197,0.4021,0.3969,0.3946,0.3855,0.3587,0.17,0.1215,0.0648,0.0648,0.0329,-0.0,0.0,0.0,-0.0336,-0.1179,-0.143,-0.1429,-0.1429,-0.1933,-0.2538,-0.2931,-0.3286,-0.3919,-0.4889,-0.508,-0.5349,-0.6062,-0.6337,-0.6428,-0.6432,-0.6432,-0.6432,-0.6432,-0.6432,-0.6432,-0.6432,-0.6349,-0.6083,-0.5808,-0.5364,-0.5328,-0.5707,-0.4872,-0.4264,-0.396,-0.3966,-0.4027,-0.4049,-0.3592,-0.3377,-0.3227,-0.3051,-0.2693,-0.2243,-0.1705,-0.1525,-0.1436,-0.0538,0.0359,0.0987,0.018,0.0359,0.1076,0.1166,0.0987,0.0628,0.0718,0.1076,0.1346,0.1345,0.1345,0.1345,0.1346,0.1436,0.1436,0.1436,0.1436,0.1436,0.1436,0.1414,0.1401,0.1425,0.1412,0.1402,0.1426,0.1613,0.1794,0.1794,0.1974,0.1974,0.1436,0.1615,0.1857,0.1782,0.1856,0.2075,0.2144,0.2251,0.2459,0.2846,0.2874,0.3052,0.344,0.3386,0.3498,0.3824,0.3831,0.4007,0.4269,0.4269,0.4275,0.4285,0.4285,0.4289,0.43,0.421,0.3942,0.2163,0.1742,0.1327,0.1162,0.092,0.076,0.0514,0.0258,-0.0086,-0.0436,-0.0786,-0.1048,-0.131,-0.1572,-0.1839,-0.2032,-0.2478,-0.3197,-0.4026,-0.421,-0.4478,-0.5193,-0.5369,-0.5636,-0.6169,-0.6077,-0.5985,-0.5813,-0.5633,-0.5542,-0.5542,-0.5636,-0.5638,-0.5458,-0.546,-0.5216,-0.4899,-0.4682,-0.4545,-0.44,-0.3408,-0.3109,-0.3419,-0.3145,-0.2928,-0.2601,-0.2243,-0.1615,-0.0897,-0.0718,-0.0448,-0.0179,0.0269,0.0807,0.1345,0.0628,0.0628,0.1076,0.1345,0.1256,0.1076,0.1076,0.1256,0.1436,0.1436,0.1436,0.1436,0.1436,0.1436,0.1436,0.1436,0.1436,0.1436,0.1436,0.1412,0.1393,0.1406,0.1487,0.1655,0.1582,0.1779,0.2064,0.2064,0.2154,0.2154,0.1885,0.1974,0.2042,0.2066,0.2143,0.2372,0.2625,0.2721,0.2831,0.3191,0.3167,0.336,0.3727,0.3703,0.3823,0.4117,0.4123,0.4212,0.43,0.4478,0.4569,0.4569,0.4656,0.4743,0.4743,0.4743,0.4565,0.2706,0.2364,0.2206,0.1868,0.1622,0.1464,0.1137,0.0702,0.0353,0.0179,-0.0179,-0.0628,-0.0987,-0.1076,-0.1256,-0.1346,-0.1884,-0.2423,-0.305,-0.3229,-0.3497,-0.4212,-0.4391,-0.4659,-0.5458,-0.5544,-0.5455,-0.5282,-0.5099,-0.501,-0.501,-0.5099,-0.5191,-0.5013,-0.5193,-0.5032,-0.4338,-0.4497,-0.456,-0.4332,-0.2845,-0.2363,-0.2796,-0.2398,-0.2003,-0.1615,-0.1166,-0.0538,0.0179,0.0359,0.0628,0.0897,0.0897,0.1076,0.1345,0.0987,0.0897,0.0987,0.1256,0.1436,0.1436,0.1436,0.1436,0.1436,0.1525,0.1525,0.1525,0.1615,0.1615,0.1615,0.1615,0.1615,0.1615,0.1615,0.1589,0.1567,0.1576,0.1745,0.1915,0.1839,0.2043,0.2244,0.2244,0.2423,0.2512,0.2512,0.2512,0.2582,0.2441,0.2508,0.2747,0.3059,0.3142,0.3233,0.3507,0.3572,0.3765,0.4114,0.4183,0.4295,0.4474,0.4476,0.4476,0.4476,0.4656,0.4837,0.4926,0.5013,0.5099,0.5186,0.5186,0.5203,0.3547,0.3413,0.3296,0.286,0.2291,0.1881,0.1882,0.1613,0.1255,0.0807,0.0269,-0.0,-0.0,-0.0448,-0.0897,-0.1345,-0.1436,-0.1525,-0.1885,-0.2243,-0.2602,-0.3138,-0.3497,-0.3764,-0.3939,-0.4563,-0.501,-0.501,-0.501,-0.501,-0.501,-0.501,-0.4832,-0.4387,-0.43,-0.4344,-0.4254,-0.435,-0.3966,-0.3231,-0.2113,-0.1904,-0.2381,-0.1098,-0.0359,-0.009,-0.009,0.0269,0.0718,0.1166,0.1345,0.1346,0.1346,0.1346,0.1436,0.1346,0.1346,0.1346,0.1436,0.1436,0.1436,0.1436,0.1436,0.1436,0.1705,0.1794,0.1884,0.2064,0.2154,0.2154,0.2154,0.2154,0.2154,0.2154,0.2119,0.2098,0.2142,0.2117,0.2099,0.2144,0.2333,0.2513,0.2513,0.2871,0.3136,0.3136,0.3406,0.3293,0.2528,0.2732,0.314,0.3462,0.3469,0.3587,0.3844,0.4037,0.4287,0.465,0.483,0.4906,0.5006,0.5008,0.5008,0.5008,0.501,0.5099,0.5371,0.5371,0.5458,0.5719,0.5719,0.5784,0.4299,0.4187,0.4168,0.3459,0.321,0.2959,0.2599,0.2332,0.1974,0.1615,0.1166,0.0897,0.0897,0.0538,0.0179,-0.0,-0.0269,-0.0628,-0.1256,-0.1436,-0.1705,-0.2423,-0.2602,-0.296,-0.3674,-0.403,-0.4206,-0.4121,-0.3941,-0.376,-0.3582,-0.3762,-0.3762,-0.3674,-0.3494,-0.369,-0.427,-0.3035,-0.1583,-0.0189,-0.0187,-0.0467,-0.0841,-0.0363,0.0269,0.0897,0.0897,0.0987,0.1166,0.1345,0.1436,0.1436,0.1436,0.1525,0.1705,0.1705,0.1794,0.1885,0.1525,0.1525,0.1705,0.1705,0.1794,0.1974,0.2064,0.2064,0.2064,0.2154,0.2243,0.2243,0.2243,0.2243,0.2243,0.2243,0.2119,0.2099,0.2145,0.2295,0.2449,0.259,0.2869,0.3048,0.3229,0.3318,0.3496,0.3671,0.3585,0.3489,0.3198,0.3437,0.3694,0.3986,0.4168,0.4358,0.4654,0.4714,0.4884,0.5104,0.525,0.5331,0.5453,0.5453,0.5453,0.5453,0.5633,0.5813,0.6077,0.626,0.6435,0.6609,0.6609,0.6684,0.5031,0.4934,0.4924,0.43,0.4034,0.3855,0.3494,0.3138,0.2781,0.2422,0.1973,0.1615,0.1436,0.1166,0.0987,0.0987,0.0718,0.0269,-0.0359,-0.0448,-0.0718,-0.1345,-0.1525,-0.1793,-0.242,-0.2598,-0.2956,-0.3587,-0.3317,-0.3047,-0.2867,-0.3406,-0.3497,-0.3139,-0.2601,-0.2601,-0.2964,-0.1273,0.0183,0.1373,0.1014,0.0645,0.0457,0.0451,0.0807,0.1436,0.1525,0.1525,0.1525,0.1615,0.1705,0.1705,0.1705,0.1794,0.1974,0.1974,0.2064,0.2154,0.1794,0.1794,0.1974,0.1974,0.2064,0.2243,0.2244,0.2334,0.2334,0.2424,0.2424,0.2424,0.2512,0.2601,0.2601,0.2691,0.2663,0.2647,0.2684,0.2841,0.3001,0.3217,0.3403,0.3494,0.3764,0.4032,0.422,0.4518,0.4497,0.43,0.4034,0.4208,0.4385,0.4656,0.4924,0.5102,0.5277,0.5364,0.5544,0.5725,0.5902,0.6077,0.6163,0.6163,0.6163,0.6163,0.6346,0.6612,0.6782,0.7054,0.7231,0.7492,0.758,0.7785,0.5634,0.5632,0.5633,0.5097,0.4835,0.4659,0.4389,0.3944,0.3587,0.3317,0.269,0.2154,0.0,0.0,0.1436,0.1436,0.1436,0.1166,0.0628,0.0538,0.0448,0.009,0.0,-0.0269,-0.0269,-0.0448,-0.1345,-0.3227,-0.2957,-0.2777,-0.2777,-0.3588,-0.368,-0.2784,-0.1794,-0.1076,-0.0628,0.0718,0.1436,0.1436,0.1465,0.1463,0.1436,0.1436,0.1436,0.1436,0.1705,0.1794,0.1884,0.2064,0.2243,0.2243,0.2243,0.2243,0.2243,0.2243,0.2243,0.2243,0.2243,0.2243,0.2243,0.2243,0.2243,0.2244,0.2513,0.2513,0.2603,0.2873,0.2963,0.2963,0.3138,0.3227,0.3315,0.3587,0.3587,0.3676,0.3676,0.3676,0.3674,0.3939,0.3942,0.4125,0.4401,0.4755,0.532,0.5885,0.5888,0.5544,0.4837,0.4924,0.5188,0.546,0.5633,0.5808,0.5808,0.6163,0.6428,0.6428,0.6874,0.7139,0.7139,0.7139,0.7139,0.7139,0.7139,0.7316,0.7577,0.776,0.8028,0.8288,0.856,0.8837,0.5866,0.5897,0.5905,0.5458,0.5282,0.5193,0.4921,0.4656,0.4302,0.4032,0.3585,0.305,0.2599,0.2512,0.2513,0.2513,0.1885,0.1345,0.1166,0.1166,0.0,0.1076,0.0,0.0897,0.0897,0.1256,0.1076,0.0179,-0.0627,-0.0986,-0.0717,-0.0986,-0.0986,-0.0718,-0.0448,-0.009,0.0359,0.1256,0.1885,0.2154,0.2076,0.1985,0.1974,0.1974,0.1974,0.1974,0.2064,0.2064,0.2064,0.2154,0.2243,0.2243,0.2243,0.2334,0.2424,0.2424,0.2513,0.2782,0.2869,0.2691,0.2424,0.2424,0.2603,0.2784,0.296,0.3048,0.305,0.332,0.3409,0.3409,0.3497,0.3583,0.376,0.3851,0.3941,0.4121,0.4121,0.4297,0.4474,0.4652,0.5072,0.5517,0.5975,0.619,0.6412,0.6718,0.6786,0.6432,0.5544,0.5808,0.6074,0.6166,0.652,0.6786,0.6786,0.6874,0.7051,0.7408,0.7584,0.776,0.8197,0.8197,0.8197,0.8197,0.8197,0.8285,0.8556,0.8556,0.8736,0.8999,0.922,0.9414,0.6111,0.6076,0.6101,0.5802,0.5641,0.5463,0.5191,0.5104,0.4926,0.4656,0.421,0.3853,0.3583,0.3497,0.3411,0.0,0.0,0.0,0.1794,0.1794,0.1794,0.0,0.1794,0.0,0.1615,0.1885,0.1974,0.1794,0.0897,0.0448,0.0628,0.0807,0.0987,0.0987,0.0987,0.1076,0.1436,0.1794,0.2154,0.2334,0.2243,0.2243,0.2243,0.2243,0.2243,0.2243,0.2334,0.2334,0.2334,0.2424,0.2513,0.2513,0.2602,0.2691,0.2781,0.2962,0.3051,0.323,0.3318,0.3227,0.3138,0.305,0.3051,0.323,0.3318,0.3406,0.3583,0.3674,0.3853,0.3944,0.4034,0.421,0.4385,0.4565,0.4743,0.4921,0.4921,0.5008,0.5287,0.57,0.6265,0.6858,0.7279,0.7282,0.7372,0.7554,0.7699,0.7481,0.6877,0.6871,0.6959,0.6962,0.7316,0.7669,0.7757,0.7848,0.8025,0.8292,0.838,0.8552,0.8903,0.8903,0.8903,0.8903,0.8903,0.8995,0.9087,0.9174,0.9257,0.9437,0.9723,1.0013,0.6357,0.6223,0.6159,0.6113,0.5871,0.5596,0.5416,0.5427,0.5349,0.5078,0.4734,0.4478,0.43,0.4304,0.4037,0.3047,0.0,0.2784,0.2334,0.2243,0.2243,0.2243,0.2243,0.2154,0.1885,0.1974,0.2064,0.2154,0.1794,0.1525,0.1436,0.1885,0.2154,0.2243,0.2243,0.2244,0.2424,0.2334,0.2243,0.2334,0.2334,0.2334,0.2334,0.2334,0.2334,0.2333,0.2506,0.2504,0.2593,0.2772,0.2861,0.2952,0.3135,0.3227,0.3317,0.3587,0.3676,0.3676,0.3676,0.3853,0.4028,0.3764,0.3676,0.3676,0.3765,0.3941,0.4026,0.4117,0.4295,0.4565,0.4748,0.5013,0.5188,0.546,0.5725,0.5808,0.5897,0.5911,0.6143,0.6844,0.7436,0.7949,0.8394,0.8292,0.828,0.8464,0.8586,0.8587,0.8428,0.7944,0.7757,0.7937,0.8201,0.8464,0.8636,0.8819,0.8999,0.8999,0.9174,0.9345,0.9432,0.9432,0.9432,0.9432,0.9432,0.9432,0.9432,0.9607,0.9689,0.9694,1.0112,1.0405,0.6557,0.6307,0.6017,0.5978,0.5675,0.5431,0.5431,0.5424,0.0,0.5231,0.5308,0.5196,0.4478,0.4304,0.4037,0.3047,0.2872,0.2873,0.2784,0.2424,0.2243,0.0,0.2243,0.2154,0.1885,0.2243,0.2334,0.2243,0.2243,0.1974,0.1436,0.1794,0.2064,0.2154,0.2243,0.2334,0.2513,0.2424,0.2603,0.2784,0.2784,0.2784,0.2784,0.2784,0.2784,0.2781,0.2732,0.2711,0.2711,0.28,0.2884,0.3062,0.3204,0.3317,0.3587,0.3762,0.3849,0.3941,0.4391,0.4656,0.4741,0.4028,0.403,0.421,0.4654,0.4743,0.4919,0.5275,0.5453,0.5453,0.5542,0.5725,0.5991,0.6166,0.6435,0.6612,0.6786,0.7148,0.759,0.8164,0.8335,0.8598,0.9253,0.9235,0.9307,0.9681,0.9582,0.944,0.9405,0.8911,0.8644,0.8732,0.8907,0.917,0.917,0.9174,0.9345,0.9432,0.9515,0.9689,0.9864,0.9864,0.9864,0.9864,0.9864,0.9864,0.9864,0.9951,0.9951,0.996,1.0343,1.0542,0.6545,0.6309,0.6043,0.5927,0.5748,0.5538,0.5452,0.0,0.0,0.5196,0.5419,0.5467,0.4774,0.447,0.0,0.3084,0.2939,0.2875,0.2875,0.2694,0.2603,0.2603,0.2603,0.2513,0.2424,0.2604,0.2694,0.2603,0.2604,0.2424,0.1884,0.2064,0.2244,0.2513,0.2603,0.2604,0.2694,0.2694,0.2784,0.2875,0.2875,0.2875,0.2875,0.2875,0.2945,0.2999,0.2967,0.3022,0.3076,0.3076,0.3159,0.3249,0.3582,0.3789,0.397,0.4368,0.4565,0.4743,0.5015,0.528,0.5544,0.5188,0.501,0.5099,0.5275,0.5455,0.5636,0.5813,0.6077,0.6257,0.6257,0.6523,0.6874,0.6959,0.7204,0.7534,0.7624,0.8085,0.8494,0.8749,0.9046,0.9429,0.971,0.9845,0.9947,1.0031,1.0054,0.996,0.9754,0.9647,0.9549,0.9266,0.9345,0.9519,0.9694,0.9694,0.9689,0.9777,0.9864,1.0033,1.012,1.0294,1.0386,1.0386,1.0207,1.0125,1.0125,1.0038,1.0038,1.0047,1.0272,1.0419,0.6434,0.6291,0.6064,0.5955,0.5806,0.5544,0.5377,0.5314,0.0,0.5079,0.5274,0.5388,0.4969,0.4355,0.371,0.0,0.2889,0.2835,0.2835,0.2835,0.2839,0.0,0.2854,0.0,0.2873,0.2875,0.2875,0.2875,0.2875,0.2784,0.2334,0.2424,0.2604,0.2875,0.2875,0.2963,0.2963,0.2963,0.2963,0.3053,0.3053,0.3053,0.3053,0.3053,0.3103,0.3211,0.3195,0.3235,0.3253,0.3253,0.3336,0.351,0.3929,0.4232,0.4431,0.4946,0.526,0.5549,0.5638,0.5905,0.626,0.626,0.6169,0.5988,0.5985,0.6166,0.6438,0.6438,0.6792,0.7061,0.7061,0.7319,0.758,0.7665,0.7975,0.8295,0.8333,0.8757,0.9176,0.9216,0.9722,1.0105,1.0066,1.0253,1.0396,1.0332,1.0373,1.0426,1.0108,1.021,1.0103,0.9712,0.9689,0.9777,0.9951,1.0038,1.0038,1.0038,1.0207,1.0294,1.0381,1.0554,1.0727,1.0727,1.0467,1.0381,1.0381,1.0207,1.0125,1.013,1.0351,1.0452,0.6434,0.6215,0.5914,0.5894,0.5598,0.5277,0.5048,0.0,0.4968,0.4887,0.4891,0.4799,0.4715,0.3624,0.27,0.2869,0.0,0.2709,0.2709,0.2709,0.2729,0.2785,0.0,0.0,0.2868,0.2875,0.2875,0.2875,0.2875,0.2873,0.2873,0.2873,0.2873,0.2875,0.2875,0.2962,0.3138,0.3138,0.3317,0.3499,0.3499,0.3499,0.3499,0.3499,0.3546,0.3469,0.3399,0.333,0.3182,0.3182,0.3424,0.3838,0.4012,0.4435,0.5114,0.5389,0.5722,0.6083,0.6254,0.6523,0.6792,0.6966,0.6877,0.6704,0.6877,0.7139,0.7404,0.7676,0.7764,0.7768,0.7768,0.7852,0.794,0.8113,0.8422,0.8778,0.8942,0.9407,0.9786,0.9862,1.0105,1.036,1.0477,1.0446,1.0532,1.0801,1.0731,1.0589,1.0551,1.0386,1.0192,0.9975,0.9951,0.9951,1.0038,1.0038,1.0125,1.0294,1.0294,1.0381,1.0641,1.0727,1.0727,1.0727,1.0641,1.0641,1.0641,1.0641,1.0641,1.0646,1.0878,1.09,0.6329,0.6302,0.6116,0.5861,0.5596,0.5246,0.4935,0.0,0.4691,0.4533,0.4492,0.4442,0.4203,0.3268,0.2555,0.2638,0.0,0.0,0.2692,0.2692,0.2702,0.2726,0.2846,0.288,0.2905,0.2942,0.2873,0.2869,0.305,0.323,0.332,0.3053,0.2963,0.305,0.305,0.3229,0.3408,0.3408,0.3497,0.3587,0.3587,0.3587,0.3585,0.3541,0.3564,0.3572,0.3492,0.3575,0.374,0.374,0.3978,0.4381,0.4646,0.4961,0.5432,0.5752,0.6186,0.6592,0.6757,0.7143,0.7503,0.7588,0.7584,0.7672,0.7588,0.7672,0.776,0.7852,0.8028,0.8113,0.8113,0.8208,0.83,0.8384,0.8865,0.9284,0.9359,0.9793,1.0219,1.0199,1.032,1.0509,1.0528,1.0504,1.0651,1.0877,1.082,1.0721,1.0589,1.0596,1.05,1.0246,1.0207,1.0207,1.0207,1.0294,1.0467,1.0554,1.0646,1.0743,1.0916,1.0997,1.1084,1.1084,1.0911,1.0916,1.0916,1.0733,1.0727,1.0733,1.0737,1.0777,0.6106,0.6106,0.6106,0.5796,0.5479,0.5165,0.0,0.0,0.4389,0.4235,0.4081,0.4003,0.3851,0.3104,0.2495,0.2495,0.0,0.2555,0.2638,0.2639,0.2646,0.2662,0.2703,0.2823,0.2841,0.2883,0.2907,0.308,0.3274,0.3553,0.3822,0.3398,0.323,0.3317,0.3317,0.3408,0.3678,0.3678,0.3765,0.3765,0.3742,0.3733,0.3818,0.3649,0.374,0.3826,0.3763,0.3926,0.4311,0.4311,0.4545,0.494,0.5179,0.5476,0.586,0.626,0.6714,0.7118,0.7267,0.7588,0.7944,0.794,0.8113,0.8201,0.812,0.812,0.812,0.812,0.8208,0.8292,0.8292,0.8472,0.8656,0.8656,0.9066,0.949,0.9545,1.0001,1.0445,1.0498,1.055,1.0591,1.0527,1.0534,1.0556,1.0768,1.0896,1.0839,1.0686,1.0847,1.0864,1.0425,1.0472,1.0472,1.0381,1.0554,1.0733,1.0819,1.0916,1.1008,1.1094,1.1181,1.1262,1.1262,1.1181,1.1094,1.1094,1.0911,1.0906,1.0906,1.0906,1.0906,0.5637,0.5718,0.5718,0.5479,0.524,0.4927,0.0,0.0,0.3921,0.4157,0.361,0.3221,0.3694,0.3062,0.2511,0.2511,0.2512,0.0,0.2512,0.2512,0.2534,0.0,0.2521,0.2545,0.2603,0.2694,0.3033,0.354,0.3608,0.3823,0.4262,0.3992,0.3767,0.3587,0.3587,0.3678,0.3859,0.3859,0.4036,0.4297,0.4214,0.4173,0.4171,0.4079,0.4072,0.4227,0.4227,0.4409,0.4701,0.4701,0.4932,0.5321,0.5547,0.5943,0.6572,0.6973,0.7293,0.7625,0.7796,0.7856,0.794,0.8113,0.8201,0.8288,0.8476,0.8568,0.8568,0.8568,0.8568,0.8568,0.8568,0.8568,0.8652,0.8828,0.9051,0.9323,0.9701,1.018,1.0573,1.0765,1.084,1.083,1.0612,1.0409,1.0348,1.0546,1.0857,1.0944,1.0939,1.1124,1.1136,1.0778,1.0911,1.0916,1.0727,1.0727,1.0819,1.1008,1.1008,1.1094,1.1262,1.1262,1.1262,1.1262,1.1262,1.1262,1.1262,1.1262,1.1262,1.1262,1.1262,1.1262,0.4766,0.4849,0.4854,0.4774,0.4618,0.4462,0.4153,0.0,0.3763,0.3532,0.3297,0.3062,0.2904,0.2668,0.2511,0.2511,0.2511,0.2511,0.0,0.0,0.0,0.2537,0.2576,0.2625,0.2687,0.2946,0.3197,0.3531,0.3723,0.3908,0.3994,0.4078,0.3978,0.3855,0.3767,0.3946,0.421,0.421,0.4182,0.4212,0.4185,0.414,0.4075,0.4151,0.4175,0.4223,0.4472,0.4653,0.4929,0.5237,0.555,0.6022,0.6173,0.6511,0.6805,0.7049,0.7375,0.7712,0.7885,0.8111,0.8388,0.8476,0.8472,0.8476,0.8568,0.8568,0.8568,0.8568,0.8568,0.8568,0.8568,0.874,0.8828,0.8911,0.9322,0.9745,0.9813,1.037,1.0819,1.088,1.0726,1.065,1.0584,1.0286,1.0262,1.0799,1.0944,1.1032,1.1124,1.14,1.1413,1.0963,1.1089,1.1089,1.0916,1.1003,1.1176,1.1181,1.1181,1.1262,1.1262,1.1262,1.1262,1.1262,1.1262,1.1262,1.1262,1.1262,1.1262,1.1262,1.1262,1.1262,0.0,0.4325,0.4337,0.4295,0.4229,0.0,0.0,0.3606,0.3452,0.3377,0.3141,0.2826,0.2511,0.2512,0.2512,0.2511,0.2511,0.2511,0.2511,0.0,0.0,0.2511,0.2544,0.2582,0.262,0.2788,0.3033,0.3277,0.3634,0.3818,0.3733,0.3986,0.406,0.3851,0.4001,0.4123,0.43,0.4267,0.4226,0.4171,0.4189,0.4124,0.4066,0.4295,0.4409,0.4482,0.4883,0.524,0.0,0.586,0.6173,0.6563,0.6718,0.6872,0.7042,0.7292,0.7542,0.7797,0.7974,0.8328,0.8568,0.8568,0.8568,0.8568,0.8568,0.8568,0.8568,0.8568,0.8568,0.8568,0.8568,0.874,0.8911,0.8999,0.9442,0.9817,0.9989,1.0388,1.0707,1.0868,1.0721,1.0598,1.0679,1.0409,1.0391,1.1013,1.1165,1.1316,1.141,1.1676,1.169,1.1142,1.1262,1.1267,1.1094,1.1262,1.1262,1.1262,1.1262,1.1262,1.1262,1.1262,1.1262,1.1262,1.1262,1.1262,1.1262,1.1262,1.1262,1.1262,1.1262,1.1262,0.0,0.4145,0.4098,0.4115,0.3986,0.0,0.0,0.0,0.0,0.3614,0.3062,0.251,0.2433,0.2435,0.2437,0.2433,0.2433,0.2511,0.2511,0.2511,0.2511,0.2511,0.2511,0.2511,0.2511,0.2511,0.2589,0.2904,0.3438,0.3639,0.3482,0.3804,0.3851,0.369,0.4102,0.4279,0.4279,0.4202,0.4161,0.4239,0.4231,0.4223,0.4212,0.4592,0.4854,0.5082,0.547,0.5941,0.6338,0.6563,0.6714,0.6942,0.7176,0.7257,0.7277,0.7679,0.7849,0.802,0.8207,0.8394,0.8552,0.8564,0.8568,0.8568,0.8568,0.8568,0.8656,0.8656,0.8656,0.8656,0.8656,0.8828,0.8999,0.9262,0.9519,0.9745,1.023,1.0282,1.0414,1.082,1.0735,1.066,1.0858,1.0716,1.0832,1.1243,1.1562,1.177,1.1733,1.1967,1.1876,1.1424,1.1273,1.1262,1.1262,1.1262,1.1262,1.1262,1.1262,1.1262,1.1262,1.1262,1.1262,1.1262,1.1262,1.1262,1.1262,1.1354,1.1348,1.1348,1.1348,1.1359,0.3115,0.0,0.3327,0.3487,0.3665,0.3609,0.0,0.0,0.0,0.0,0.0,0.0,0.1728,0.1571,0.1571,0.1571,0.2121,0.2515,0.2511,0.2511,0.2511,0.2511,0.2511,0.2511,0.2511,0.2511,0.2589,0.2826,0.3024,0.3182,0.3163,0.3499,0.3616,0.36,0.3954,0.4097,0.4097,0.4077,0.4118,0.4214,0.4168,0.4346,0.4582,0.4787,0.516,0.5467,0.5941,0.6254,0.6563,0.6949,0.7103,0.718,0.733,0.7407,0.7415,0.7533,0.7663,0.7845,0.8016,0.8199,0.8381,0.8519,0.8568,0.8568,0.8568,0.874,0.8823,0.8823,0.8999,0.9174,0.9174,0.9257,0.9428,0.9519,0.9689,1.0012,1.023,1.0395,1.0579,1.0844,1.0853,1.0929,1.1172,1.0997,1.1111,1.1811,1.1947,1.202,1.224,1.2161,1.1935,1.1645,1.1456,1.1262,1.1262,1.1262,1.1262,1.1262,1.1262,1.1262,1.1262,1.1262,1.1262,1.1262,1.1262,1.1262,1.1262,1.1527,1.1613,1.1613,1.1613,1.1706,0.2534,0.2734,0.2961,0.3149,0.3255,0.3277,0.0,0.0,0.0,0.0,0.0,0.0,0.0,0.0,0.0,0.1335,0.165,0.2043,0.2433,0.2431,0.2431,0.251,0.2511,0.2511,0.2511,0.2485,0.2546,0.2623,0.264,0.2767,0.2882,0.322,0.3414,0.3303,0.3784,0.4114,0.4116,0.4076,0.4194,0.4304,0.4496,0.4678,0.4851,0.5395,0.5709,0.5941,0.6486,0.6799,0.6872,0.718,0.733,0.7334,0.7565,0.7565,0.7484,0.7642,0.768,0.7772,0.7866,0.8069,0.8321,0.8507,0.8652,0.874,0.874,0.8999,0.917,0.8999,0.9087,0.9262,0.9262,0.9432,0.9602,0.9602,0.9851,1.013,1.0249,1.0433,1.0636,1.0853,1.0991,1.1115,1.1404,1.1411,1.1662,1.2172,1.2193,1.2252,1.2431,1.2199,1.1957,1.1725,1.1488,1.1262,1.1262,1.1262,1.1262,1.1262,1.144,1.144,1.144,1.144,1.144,1.1262,1.144,1.144,1.144,1.1699,1.1871,1.1871,1.1871,1.1914,0.2087,0.2326,0.2678,0.2824,0.2792,0.2819,0.0,0.0,0.0,0.0,0.0,0.0,0.0,0.1335,0.0,0.0,0.0,0.1571,0.2198,0.2198,0.2196,0.2431,0.2431,0.2429,0.2497,0.2526,0.2491,0.2407,0.235,0.2393,0.262,0.3038,0.3229,0.3102,0.3705,0.4141,0.4398,0.4322,0.4362,0.4598,0.4896,0.5082,0.5237,0.5948,0.6338,0.649,0.6953,0.718,0.7257,0.7407,0.7484,0.7484,0.7723,0.7723,0.7561,0.7799,0.7823,0.7807,0.786,0.8016,0.8321,0.8591,0.874,0.8911,0.8911,0.9257,0.9515,0.9087,0.917,0.9432,0.9432,0.9519,0.9689,0.9689,1.0028,1.0282,1.0315,1.048,1.0683,1.0901,1.1135,1.138,1.1653,1.1883,1.2175,1.2467,1.2467,1.2496,1.2495,1.2221,1.1973,1.1774,1.151,1.1262,1.1262,1.1262,1.1354,1.1354,1.1613,1.1699,1.1699,1.1785,1.1613,1.144,1.1613,1.1785,1.1785,1.1957,1.2037,1.2037,1.2037,1.2105,0.1748,0.1754,0.1852,0.2317,0.2238,0.221,0.0,0.0,0.0,0.0,0.0,0.0,0.0,0.1335,0.1335,0.0,0.1335,0.1335,0.1492,0.1728,0.2042,0.2196,0.2275,0.2334,0.2515,0.2425,0.2399,0.2352,0.222,0.2349,0.2617,0.2792,0.3108,0.3471,0.3793,0.4234,0.4902,0.4732,0.4724,0.4953,0.5171,0.5553,0.6103,0.6257,0.657,0.703,0.7184,0.7334,0.7484,0.7484,0.7484,0.7484,0.7723,0.7804,0.7799,0.7953,0.7974,0.7811,0.7951,0.8113,0.8321,0.8765,0.8911,0.8911,0.9174,0.9432,0.9602,0.9515,0.9689,0.9864,0.9864,0.9951,0.9951,0.9951,1.0116,1.0319,1.049,1.0693,1.0905,1.1109,1.1346,1.1648,1.1873,1.2175,1.2467,1.2667,1.2764,1.2748,1.2716,1.2323,1.2124,1.2,1.1607,1.1262,1.1262,1.1262,1.144,1.1613,1.1699,1.1785,1.1957,1.1957,1.1957,1.1871,1.1957,1.1957,1.1957,1.2203,1.2369,1.2369,1.2369,1.2534,0.1614,0.1632,0.1737,0.1951,0.1913,0.1875,0.2103,0.0,0.0,0.0,0.0,0.0,0.0,0.0,0.1335,0.1335,0.1335,0.1335,0.1335,0.1493,0.1729,0.1963,0.2096,0.2223,0.2425,0.2364,0.2315,0.2217,0.223,0.2276,0.2513,0.2657,0.3043,0.3481,0.4022,0.448,0.4912,0.5209,0.5321,0.5321,0.5712,0.6025,0.6338,0.6644,0.6953,0.7184,0.7334,0.7407,0.7484,0.7484,0.7484,0.7561,0.7872,0.788,0.7804,0.803,0.803,0.7992,0.8179,0.8315,0.8593,0.8777,0.9083,0.9257,0.9432,0.9602,0.9777,0.9777,0.9864,1.0038,1.0038,1.0038,1.0067,1.0097,1.0286,1.0586,1.0889,1.1101,1.1376,1.157,1.1883,1.2078,1.2175,1.2467,1.2667,1.2759,1.2764,1.2764,1.2764,1.2344,1.214,1.214,1.1628,1.1354,1.1527,1.1527,1.1613,1.1871,1.2037,1.2118,1.2203,1.2203,1.2123,1.2043,1.2118,1.2203,1.2203,1.2448,1.2534,1.254,1.2689,1.2874,0.148,0.1503,0.1537,0.1579,0.0,0.1713,0.1869,0.0,0.0,0.0,0.0,0.0,0.0,0.1335,0.1335,0.1335,0.1335,0.1335,0.1335,0.1251,0.1402,0.1793,0.1907,0.2024,0.2161,0.2298,0.2238,0.2085,0.218,0.2288,0.249,0.2744,0.3061,0.3502,0.4217,0.4686,0.4864,0.5515,0.5832,0.5792,0.618,0.6416,0.6493,0.6953,0.7257,0.7253,0.7363,0.7423,0.7423,0.7423,0.7423,0.758,0.7931,0.8025,0.803,0.8102,0.8178,0.8205,0.8317,0.8515,0.8712,0.8901,0.9262,0.9602,0.9689,0.9864,1.0038,1.0038,1.0038,1.0038,1.0038,1.0038,1.0095,1.022,1.0428,1.0724,1.1228,1.1399,1.1609,1.1803,1.2093,1.2292,1.2292,1.2533,1.2764,1.2764,1.2764,1.2764,1.2764,1.2344,1.214,1.214,1.1628,1.144,1.1699,1.1785,1.1952,1.2037,1.2369,1.2448,1.2448,1.2448,1.2369,1.2209,1.2369,1.2484,1.2543,1.2715,1.2831,1.2898,1.3115,1.3267,0.1143,0.1145,0.1154,0.1117,0.0,0.0,0.1876,0.1572,0.0,0.0,0.0,0.0,0.0,0.1335,0.1335,0.1335,0.1335,0.1335,0.1335,0.1232,0.1291,0.1519,0.156,0.1666,0.1626,0.2038,0.2151,0.1825,0.2157,0.2488,0.2686,0.2961,0.3411,0.3844,0.4279,0.4692,0.5168,0.5519,0.5885,0.6261,0.649,0.6795,0.7103,0.718,0.7334,0.7476,0.7313,0.7244,0.7244,0.7244,0.7315,0.7554,0.7956,0.8327,0.8627,0.8479,0.8403,0.8354,0.8396,0.8515,0.8795,0.9163,0.9443,0.9602,0.9864,0.9951,1.0038,1.0038,1.0038,1.0038,1.0038,1.0038,1.0095,1.022,1.0428,1.0724,1.1228,1.1287,1.1296,1.1582,1.1867,1.2057,1.2057,1.2427,1.2764,1.2764,1.2764,1.2764,1.2764,1.2344,1.214,1.214,1.1628,1.144,1.1699,1.2118,1.2363,1.2363,1.2534,1.2705,1.2705,1.2705,1.2705,1.2619,1.2705,1.2831,1.3091,1.3091,1.3218,1.3459,1.3477,1.3628,0.1145,0.1077,0.1083,0.1113,0.0,0.0,0.0,0.0,0.0,0.0,0.0864,0.0,0.0,0.0,0.0707,0.1178,0.1319,0.1306,0.1306,0.1278,0.1257,0.1331,0.1301,0.1417,0.1543,0.1795,0.2041,0.2155,0.2288,0.2557,0.2956,0.3159,0.3511,0.4159,0.4505,0.4845,0.5243,0.5685,0.6054,0.6342,0.6663,0.6945,0.7184,0.7334,0.7351,0.7322,0.7253,0.7159,0.7058,0.7194,0.7262,0.7343,0.7784,0.8102,0.833,0.8393,0.837,0.8398,0.8521,0.8723,0.8935,0.922,0.9424,0.9614,0.9913,1.0038,1.0038,1.0038,1.0038,1.0038,1.0038,1.0038,1.0036,1.0381,1.0702,1.1042,1.1586,1.1854,1.2006,1.2062,1.2337,1.2395,1.2247,1.2608,1.2764,1.2764,1.2764,1.2764,1.2764,1.2479,1.2215,1.2064,1.1894,1.1866,1.2118,1.2454,1.2619,1.2619,1.2619,1.2705,1.2705,1.2705,1.2705,1.2705,1.2705,1.2843,1.3127,1.3127,1.326,1.3519,1.3682,1.3809,0.1078,0.1078,0.108,0.0,0.0,0.0,0.0,0.0,0.0,0.0,0.0624,0.0,-0.0,0.0,0.023,0.0768,0.0908,0.0898,0.0898,0.0878,0.1008,0.1296,0.1336,0.1384,0.1592,0.1837,0.2153,0.2488,0.2624,0.2825,0.3295,0.3429,0.3763,0.43,0.4716,0.5033,0.5235,0.5691,0.5961,0.6175,0.6555,0.6889,0.7099,0.7266,0.7253,0.7139,0.7082,0.6989,0.6941,0.7004,0.7137,0.7313,0.7615,0.795,0.8215,0.8299,0.837,0.8514,0.8656,0.8845,0.9058,0.9256,0.9469,0.9686,0.9889,1.0038,1.0038,1.0038,1.0038,1.0038,1.0038,1.0038,1.0143,1.0475,1.0755,1.1062,1.1686,1.2022,1.2219,1.2257,1.2448,1.2603,1.2441,1.2608,1.2764,1.2764,1.2764,1.2764,1.2764,1.256,1.2291,1.1973,1.1937,1.2037,1.2283,1.2448,1.2619,1.2705,1.2705,1.2705,1.2705,1.2789,1.2837,1.2837,1.2916,1.3097,1.3369,1.3369,1.3507,1.3767,1.3948,1.4032,0.1078,0.1078,0.1076,0.0,0.0,0.0,0.0,0.0,0.0,0.1328,0.0616,-0.0,-0.0,-0.0,-0.0,-0.0,-0.0,-0.0,-0.0,-0.0,0.035,0.1401,0.1573,0.1681,0.1884,0.2288,0.2557,0.2686,0.3023,0.3293,0.3498,0.4033,0.43,0.43,0.4824,0.5087,0.5087,0.5443,0.5728,0.5928,0.6227,0.6603,0.6908,0.6957,0.7023,0.7011,0.6769,0.6696,0.6692,0.668,0.7028,0.7491,0.7601,0.7906,0.8376,0.8184,0.8379,0.8699,0.8703,0.8841,0.9053,0.9256,0.9469,0.9682,0.9889,1.0038,1.0038,1.0038,1.0038,1.0038,1.0038,1.0038,1.0143,1.0475,1.0575,1.0782,1.1492,1.1616,1.1657,1.1936,1.2225,1.242,1.2414,1.2608,1.2764,1.2764,1.2764,1.2764,1.2764,1.2554,1.2231,1.1758,1.1674,1.1791,1.1963,1.2295,1.2454,1.2711,1.2711,1.2711,1.2705,1.2976,1.3127,1.3127,1.3381,1.3646,1.3906,1.3906,1.4039,1.4298,1.4298,1.4298,0.1011,0.1079,0.0,0.0,0.0,0.0,0.0,0.0,0.0,0.0,0.1038,0.0809,0.0803,0.0802,0.0802,0.0802,0.0502,0.0355,0.0355,0.0831,0.1225,0.1566,0.1826,0.2087,0.2288,0.2488,0.2755,0.3023,0.3166,0.3488,0.4028,0.4153,0.4404,0.4821,0.5024,0.5156,0.5292,0.5511,0.5655,0.5855,0.6047,0.6369,0.6744,0.6905,0.6958,0.6769,0.6717,0.6619,0.6509,0.6767,0.7022,0.7338,0.7491,0.7735,0.7993,0.8079,0.8296,0.851,0.8652,0.8741,0.8855,0.9209,0.9365,0.9488,0.9842,1.0038,1.0038,1.0038,1.0038,1.0038,1.0038,1.0038,1.0143,1.0475,1.0755,1.0968,1.1492,1.1925,1.2128,1.2062,1.2353,1.2608,1.2441,1.2608,1.2764,1.2764,1.2764,1.2764,1.2764,1.2409,1.2259,1.2477,1.2108,1.2192,1.2725,1.2826,1.2928,1.3012,1.3175,1.3194,1.3006,1.3079,1.3212,1.3393,1.3477,1.3646,1.3906,1.3906,1.4039,1.4298,1.4298,1.4298,0.1012,0.0,0.0,0.0,0.0,0.0,0.11,0.0,0.0,0.0,0.1148,0.1074,0.1134,0.1132,0.1132,0.1132,0.0976,0.0965,0.0965,0.1428,0.1884,0.1951,0.2288,0.2559,0.2758,0.2824,0.309,0.3493,0.3598,0.3846,0.4359,0.4443,0.4622,0.5084,0.5156,0.5292,0.5428,0.5454,0.5562,0.5691,0.5902,0.6162,0.6533,0.6672,0.6684,0.6587,0.6587,0.6522,0.6432,0.6675,0.6927,0.7146,0.7261,0.7546,0.7901,0.7941,0.8231,0.8538,0.8661,0.8703,0.8755,0.9096,0.9256,0.9384,0.9729,0.9889,1.0038,1.0038,1.0038,1.0038,1.0038,1.0038,1.0143,1.0475,1.076,1.0968,1.1395,1.1878,1.2231,1.2001,1.2469,1.2721,1.2576,1.2667,1.2764,1.2764,1.2764,1.2727,1.2635,1.2285,1.22,1.2532,1.2106,1.2148,1.2757,1.2962,1.2989,1.3106,1.3339,1.3495,1.3435,1.3435,1.3507,1.367,1.3773,1.3906,1.4063,1.4063,1.4141,1.4298,1.4298,1.4298,0.0877,0.0,0.0,0.0,0.0,0.0,0.1079,0.112,0.1078,0.1123,0.0,0.1109,0.1084,0.1079,0.1079,0.1079,0.1414,0.1614,0.1681,0.1951,0.2288,0.2491,0.2762,0.303,0.3228,0.3226,0.3493,0.3961,0.4121,0.4299,0.4619,0.4832,0.4948,0.515,0.5292,0.5428,0.5428,0.5428,0.5491,0.5683,0.5818,0.602,0.6214,0.635,0.642,0.642,0.642,0.6428,0.6457,0.6631,0.681,0.7052,0.7068,0.7495,0.808,0.79,0.8164,0.8703,0.8703,0.8703,0.8737,0.8954,0.9157,0.9365,0.9498,0.979,1.0038,1.0038,1.0038,1.0038,1.0038,1.0038,1.0138,1.0452,1.056,1.0683,1.108,1.1575,1.198,1.198,1.2467,1.2764,1.2764,1.2764,1.2764,1.2764,1.2748,1.2657,1.2441,1.2199,1.2145,1.2173,1.1892,1.195,1.2459,1.2665,1.2934,1.3088,1.3391,1.3682,1.3894,1.3906,1.3918,1.3942,1.4177,1.4298,1.4298,1.4298,1.4298,1.4298,1.4298,1.4298,0.0,0.0404,0.0,0.0,0.0,0.1079,0.1079,0.1087,0.1093,0.1087,0.1085,0.1084,0.1078,0.1076,0.1076,0.1076,0.148,0.1817,0.2018,0.2221,0.2423,0.2621,0.2958,0.3228,0.3431,0.3696,0.3964,0.4233,0.4319,0.4561,0.4948,0.4958,0.5016,0.5355,0.5488,0.555,0.555,0.569,0.5888,0.6079,0.6148,0.6214,0.635,0.6416,0.642,0.642,0.642,0.6501,0.6647,0.6822,0.7001,0.7179,0.7317,0.7647,0.8097,0.8053,0.8286,0.8703,0.8703,0.8703,0.8737,0.8954,0.9157,0.9365,0.9498,0.979,1.0038,1.0038,1.0038,1.0038,1.0038,1.0038,1.0105,1.0277,1.0456,1.0645,1.0905,1.1472,1.198,1.198,1.2467,1.2764,1.2764,1.2764,1.2764,1.2764,1.2608,1.2474,1.242,1.2199,1.2124,1.2318,1.2291,1.2449,1.2874,1.3183,1.3383,1.3455,1.382,1.4063,1.3912,1.3906,1.4002,1.4208,1.4268,1.4298,1.4298,1.4298,1.4298,1.4298,1.4298,1.4298,0.0,0.0,0.0,0.0,0.0,0.0,0.1079,0.1078,0.1076,0.1076,0.1076,0.1076,0.1076,0.1076,0.121,0.1547,0.1882,0.2218,0.2488,0.2758,0.296,0.3092,0.3291,0.356,0.3696,0.3894,0.4095,0.4428,0.4446,0.4687,0.508,0.5022,0.5138,0.5484,0.555,0.5617,0.5752,0.5951,0.6148,0.628,0.6412,0.6478,0.6618,0.6486,0.642,0.642,0.642,0.6522,0.6708,0.6883,0.7062,0.7244,0.7415,0.7714,0.8102,0.8102,0.8327,0.8703,0.8703,0.8703,0.8718,0.8831,0.9077,0.9341,0.946,0.9705,1.0038,1.0038,1.0038,1.0038,1.0038,1.0038,1.0067,1.0093,1.0277,1.0518,1.083,1.136,1.1854,1.196,1.2467,1.2764,1.2764,1.2667,1.2597,1.2597,1.2393,1.2242,1.2242,1.2124,1.214,1.2388,1.2414,1.2506,1.2937,1.3249,1.3482,1.3535,1.4028,1.4238,1.4099,1.4093,1.4159,1.4292,1.4298,1.4298,1.4298,1.4298,1.4298,1.4298,1.4298,1.4298,0.0,0.0,0.0,0.0,0.0,0.0,0.1079,0.1078,0.1076,0.1076,0.1076,0.1143,0.1277,0.1277,0.1547,0.2287,0.2487,0.2753,0.3092,0.3362,0.3563,0.3565,0.3761,0.3892,0.4028,0.4095,0.4228,0.4625,0.4655,0.4835,0.5147,0.5172,0.5356,0.5675,0.5749,0.5818,0.602,0.628,0.6412,0.6548,0.6741,0.6876,0.7012,0.6679,0.6482,0.6486,0.6453,0.657,0.6753,0.6928,0.7106,0.7285,0.7507,0.7791,0.8178,0.8178,0.8403,0.8703,0.8703,0.8703,0.8703,0.8703,0.8982,0.9322,0.9322,0.9615,1.0038,1.0038,1.0038,1.0038,1.0038,1.0038,1.0038,1.0038,1.0088,1.0324,1.0707,1.1223,1.1713,1.1889,1.2441,1.2754,1.2711,1.2544,1.2398,1.2361,1.2145,1.2091,1.2135,1.214,1.214,1.2388,1.2452,1.2554,1.2748,1.3249,1.3539,1.3539,1.401,1.4298,1.4298,1.4298,1.4298,1.4298,1.4298,1.4298,1.4298,1.4298,1.4298,1.4298,1.4298,1.4298,0.0,0.0,0.0,0.0,0.0,0.0337,0.0,0.0,0.1076,0.1076,0.1076,0.1277,0.1951,0.2085,0.2287,0.2958,0.3092,0.3362,0.4041,0.3966,0.3894,0.3894,0.3961,0.4028,0.4233,0.4428,0.4561,0.4764,0.4942,0.52,0.5481,0.5529,0.5727,0.6079,0.6214,0.6416,0.6609,0.6937,0.7073,0.7073,0.733,0.7396,0.7396,0.7204,0.6937,0.6683,0.6654,0.6757,0.7003,0.7114,0.7372,0.7693,0.7714,0.8025,0.8327,0.8327,0.8479,0.8703,0.8703,0.8703,0.8703,0.8703,0.8982,0.9322,0.9322,0.9615,1.0038,1.0038,1.0038,1.0038,1.0038,1.0038,1.0038,1.0038,1.0062,1.006,1.0305,1.1106,1.1667,1.1697,1.2336,1.27,1.2495,1.2436,1.2339,1.2129,1.1898,1.1817,1.2113,1.214,1.214,1.2388,1.2597,1.2727,1.2759,1.3249,1.3539,1.3539,1.401,1.4298,1.4298,1.4298,1.4298,1.4298,1.4298,1.4298,1.4298,1.4298,1.4298,1.4298,1.4298,1.4394,-0.0,0.0,0.0,0.0,0.0,0.0674,0.1012,0.1078,0.121,0.1614,0.2354,0.2893,0.2757,0.2757,0.2824,0.3159,0.3563,0.3899,0.4239,0.4167,0.4164,0.4164,0.4295,0.4361,0.4428,0.4628,0.4761,0.496,0.516,0.5355,0.5617,0.5815,0.6079,0.6284,0.6548,0.6745,0.7003,0.7396,0.7727,0.7922,0.7917,0.7977,0.8107,0.7841,0.7502,0.7167,0.7056,0.7193,0.7471,0.7478,0.7701,0.7953,0.7953,0.8178,0.8403,0.8403,0.8551,0.8703,0.8703,0.8703,0.8703,0.8703,0.8907,0.9176,0.9289,0.954,0.9804,0.9918,1.0038,1.0038,1.0038,1.0038,1.0038,1.0038,1.0038,1.0062,1.0074,1.0874,1.1728,1.2177,1.2598,1.2689,1.2457,1.2301,1.2129,1.1887,1.1655,1.1634,1.2091,1.214,1.2286,1.2762,1.2893,1.3055,1.3152,1.3539,1.3738,1.3738,1.4112,1.4298,1.4298,1.4298,1.4298,1.4298,1.4298,1.4298,1.4298,1.4298,1.4394,1.449,1.449,1.4688,0.0,0.0,0.0,0.0,0.0539,0.1079,0.0,0.0,0.1277,0.2017,0.323,0.4041,0.3563,0.3493,0.3493,0.3493,0.3964,0.43,0.4434,0.4434,0.4434,0.4434,0.4561,0.4628,0.4628,0.4827,0.5027,0.5156,0.5425,0.569,0.5815,0.6148,0.6478,0.6679,0.6946,0.7204,0.7461,0.7922,0.8317,0.8641,0.856,0.8612,0.8794,0.8581,0.8358,0.8062,0.7725,0.7682,0.7877,0.793,0.8041,0.8178,0.8178,0.8327,0.8475,0.8475,0.8551,0.8703,0.8703,0.8703,0.8703,0.8703,0.885,0.9063,0.9266,0.9474,0.9691,0.9894,1.0038,1.0038,1.0038,1.0038,1.0038,1.0038,1.0038,1.0067,1.0264,1.09,1.1636,1.2571,1.2764,1.2667,1.2371,1.2167,1.1951,1.1655,1.1462,1.1499,1.1903,1.1962,1.2232,1.2907,1.3058,1.3182,1.3437,1.3738,1.3931,1.3931,1.4112,1.4298,1.4298,1.4298,1.4298,1.4298,1.4394,1.4394,1.4298,1.4394,1.4496,1.4688,1.4783,1.4975,0.0,0.0,0.0,0.0,0.0,0.0,0.0,0.1076,0.1276,0.208,0.3092,0.3904,0.4167,0.4233,0.4233,0.4233,0.43,0.4434,0.4697,0.4764,0.4764,0.4764,0.4764,0.4764,0.4764,0.5163,0.5362,0.5362,0.5885,0.6214,0.6354,0.6683,0.7073,0.7456,0.7596,0.7792,0.8172,0.8571,0.8835,0.8958,0.919,0.9376,0.9394,0.9501,0.9602,0.9757,0.8734,0.8226,0.8107,0.8307,0.8394,0.8403,0.8403,0.8475,0.8703,0.8703,0.8699,0.8703,0.8703,0.8703,0.8703,0.8703,0.885,0.9063,0.9266,0.9474,0.9691,0.9894,1.0038,1.0038,1.0038,1.0038,1.0038,1.0038,1.0038,1.0236,1.1096,1.139,1.1636,1.2571,1.2764,1.2614,1.2145,1.2145,1.1892,1.144,1.1273,1.144,1.1682,1.1715,1.1994,1.2764,1.2814,1.2998,1.3426,1.3738,1.3931,1.3931,1.4112,1.4298,1.4298,1.4298,1.4298,1.4298,1.4592,1.4592,1.4298,1.4592,1.4688,1.4694,1.5153,1.5534,0.0,0.0,0.0,-0.0,0.0539,0.1078,0.1076,0.148,0.2153,0.3295,0.4038,0.4509,0.4573,0.43,0.4028,0.4233,0.4703,0.4973,0.4831,0.4897,0.49,0.4831,0.4894,0.5027,0.5163,0.5425,0.562,0.5885,0.628,0.6613,0.6683,0.7143,0.7531,0.7787,0.8052,0.8441,0.8882,0.9081,0.9215,0.9356,0.9478,0.9688,0.9782,0.9896,1.0081,1.0239,0.9942,0.9489,0.905,0.8983,0.8865,0.8794,0.8794,0.8784,0.8703,0.8703,0.8703,0.8703,0.8703,0.8703,0.8703,0.8703,0.8755,0.8855,0.9067,0.9275,0.9483,0.9696,0.9852,1.0038,1.0038,1.0038,1.0038,1.0038,1.0038,1.024,1.1217,1.1405,1.1636,1.2571,1.2764,1.2614,1.2221,1.214,1.1887,1.1418,1.1262,1.1435,1.1671,1.1698,1.1977,1.2742,1.2974,1.3265,1.3715,1.4016,1.4208,1.4208,1.4202,1.4298,1.4298,1.4298,1.4394,1.4592,1.4688,1.4688,1.4592,1.479,1.5077,1.5452,1.554,1.592,-0.0,0.0,0.0,0.0,0.0,0.1146,0.1211,0.1951,0.2829,0.3907,0.4375,0.464,0.4773,0.4434,0.4228,0.4434,0.4903,0.5169,0.503,0.51,0.51,0.503,0.5156,0.5289,0.5425,0.5686,0.6017,0.6342,0.6736,0.7068,0.7269,0.7731,0.8052,0.8306,0.8635,0.8958,0.9274,0.9338,0.9414,0.9484,0.9771,0.9959,1.013,1.0413,1.0586,1.0663,1.0663,1.0293,0.9771,0.9549,0.9397,0.9175,0.9022,0.8941,0.8784,0.8703,0.8703,0.8703,0.8703,0.8703,0.8703,0.8703,0.8703,0.8741,0.8959,0.9162,0.937,0.9582,0.9795,1.0038,1.0038,1.0038,1.0038,1.0038,1.0038,1.024,1.1217,1.1405,1.1636,1.2571,1.2764,1.2635,1.2237,1.2102,1.1919,1.1526,1.1402,1.1321,1.1564,1.1585,1.1852,1.2614,1.2845,1.3168,1.3806,1.4022,1.4208,1.4298,1.4298,1.4298,1.4298,1.4394,1.4496,1.4688,1.4975,1.507,1.507,1.5267,1.5547,1.592,1.6116,1.6494,0.0,0.0,0.0,0.0,0.0,0.1213,0.1548,0.2424,0.3303,0.3703,0.4036,0.4367,0.4628,0.4897,0.4967,0.4831,0.4831,0.4964,0.5362,0.5428,0.5428,0.5428,0.5554,0.5617,0.5617,0.6083,0.6482,0.6741,0.7195,0.7652,0.7987,0.8317,0.8705,0.9017,0.921,0.9338,0.9338,0.9414,0.9484,0.949,1.0079,1.0333,1.0351,1.087,1.1111,1.1111,1.0887,1.0594,1.0218,0.9992,0.9771,0.9549,0.9175,0.9022,0.8946,0.8784,0.8703,0.8703,0.8703,0.8703,0.8703,0.8703,0.8703,0.8741,0.8954,0.9152,0.936,0.9578,0.9786,1.0028,1.0038,1.0038,1.0038,1.0038,1.0038,1.024,1.1217,1.1405,1.1636,1.2571,1.2764,1.2689,1.2457,1.2215,1.1978,1.1736,1.151,1.1273,1.1262,1.1262,1.1614,1.2268,1.2409,1.28,1.3788,1.3931,1.4022,1.4298,1.4298,1.4298,1.4298,1.4592,1.4688,1.4688,1.5452,1.5825,1.5832,1.5832,1.592,1.6285,1.6777,1.7261,-0.0,0.0,0.0,0.0,0.0,0.0,0.1885,0.2424,0.2963,0.3567,0.4097,0.4561,0.4761,0.496,0.5093,0.5229,0.5229,0.5296,0.5362,0.5428,0.5425,0.5554,0.555,0.5749,0.6148,0.6416,0.6872,0.74,0.7782,0.8177,0.8576,0.8894,0.9145,0.921,0.9344,0.9414,0.9414,0.9484,0.9548,0.9746,1.0282,1.0604,1.0761,1.1307,1.1558,1.1558,1.1484,1.1335,1.1037,1.0519,1.0218,0.9992,0.9771,0.9473,0.917,0.9018,0.8861,0.8703,0.8703,0.8703,0.8703,0.8703,0.8703,0.8713,0.8774,0.894,0.9148,0.9356,0.9563,0.9767,0.9913,1.0038,1.0038,1.0038,1.0038,1.024,1.1217,1.1405,1.1636,1.2571,1.2764,1.2689,1.2457,1.2361,1.2172,1.1763,1.1645,1.1542,1.1283,1.1262,1.1532,1.2086,1.2506,1.2985,1.3596,1.3919,1.4202,1.4298,1.4298,1.4394,1.4592,1.4885,1.5172,1.5445,1.5913,1.6298,1.669,1.6494,1.6494,1.6784,1.7254,1.7721,0.0,0.0,0.0,-0.0,0.0,0.0,0.1615,0.2154,0.2626,0.3092,0.3761,0.4359,0.4628,0.4957,0.5156,0.5362,0.5428,0.5428,0.5428,0.5428,0.5425,0.5617,0.5683,0.5885,0.6354,0.6675,0.7134,0.7792,0.8117,0.8506,0.8958,0.9215,0.9408,0.9408,0.9478,0.9548,0.9612,0.9612,0.9734,0.9868,1.0299,1.0629,1.0899,1.1338,1.1598,1.1706,1.1706,1.1632,1.1484,1.1186,1.0812,1.0443,1.0143,0.9846,0.9549,0.9246,0.9018,0.8784,0.8703,0.8703,0.8703,0.8703,0.8703,0.8703,0.8703,0.8855,0.9067,0.9266,0.954,0.98,0.9923,1.0038,1.0038,1.0038,1.0038,1.024,1.1217,1.1405,1.1636,1.2571,1.2764,1.2721,1.2581,1.2479,1.2323,1.2038,1.1908,1.1795,1.1661,1.1728,1.1964,1.2346,1.2755,1.3193,1.3607,1.3925,1.4208,1.4298,1.4394,1.4496,1.4688,1.5172,1.5547,1.5825,1.6298,1.6777,1.716,1.6965,1.7059,1.7441,1.7721,1.8001,0.0,0.0,0.0,0.0135,0.0607,0.0,0.1144,0.1681,0.2285,0.2609,0.3274,0.3936,0.4455,0.4844,0.5114,0.5332,0.5335,0.5342,0.5425,0.5428,0.5425,0.5617,0.5818,0.602,0.642,0.6959,0.7499,0.8088,0.8484,0.8939,0.9379,0.9496,0.9548,0.9548,0.9548,0.9612,0.9804,0.9804,0.9862,1.0053,1.0327,1.0613,1.0962,1.1237,1.1518,1.1781,1.1781,1.1781,1.1706,1.1706,1.1409,1.0812,1.0443,1.0143,0.9916,0.9473,0.9251,0.8946,0.8784,0.8703,0.8703,0.8703,0.8703,0.8703,0.8703,0.8836,0.9034,0.9261,0.9611,0.9923,1.0033,1.0038,1.0038,1.0038,1.0038,1.024,1.1217,1.1405,1.1636,1.2571,1.2764,1.2764,1.2764,1.2592,1.2441,1.242,1.2226,1.2173,1.214,1.2323,1.2509,1.2864,1.3063,1.3449,1.3811,1.3931,1.4118,1.4298,1.4592,1.479,1.4783,1.5445,1.5825,1.5927,1.669,1.7174,1.7384,1.7347,1.7613,1.8087,1.8087,1.828,-0.0,-0.0,0.0135,0.0742,0.0742,0.0,0.1211,0.1681,0.2071,0.2543,0.3176,0.3798,0.4213,0.4566,0.4849,0.5091,0.5176,0.522,0.5411,0.5428,0.5495,0.5822,0.5888,0.6152,0.6749,0.7483,0.812,0.8663,0.9458,0.9988,1.0252,1.0045,0.9926,0.9926,0.9926,0.9919,0.9989,0.9989,1.0053,1.0244,1.0529,1.0875,1.1299,1.166,1.1952,1.215,1.215,1.2077,1.1929,1.1929,1.1706,1.126,1.1037,1.0594,1.0143,0.9846,0.9473,0.9022,0.8946,0.8861,0.8703,0.8703,0.8703,0.8703,0.8703,0.8732,0.8845,0.9219,0.9507,0.9743,0.9908,1.0038,1.0038,1.0038,1.0038,1.024,1.1217,1.1405,1.1636,1.2571,1.2764,1.2764,1.2764,1.2727,1.2635,1.2441,1.2565,1.2554,1.2345,1.2597,1.2785,1.3128,1.3344,1.3643,1.3913,1.431,1.4598,1.4592,1.4885,1.5172,1.554,1.5913,1.6298,1.6791,1.7059,1.7465,1.8022,1.7755,1.7807,1.8087,1.828,1.8566,-0.0,-0.0,0.0202,0.0944,0.0944,0.0,0.0,0.1413,0.1742,0.2178,0.2729,0.3264,0.3783,0.4224,0.4571,0.4823,0.502,0.5199,0.5359,0.5443,0.562,0.602,0.6086,0.6416,0.7007,0.7626,0.8348,0.9139,0.979,1.0211,1.0269,1.0257,1.0193,0.9989,0.9983,1.0047,1.0174,1.0174,1.0244,1.0434,1.058,1.0863,1.1216,1.1363,1.159,1.1864,1.1864,1.1793,1.1721,1.1721,1.1508,1.1247,1.123,1.1037,1.0594,1.0218,0.9771,0.9397,0.9099,0.8941,0.8861,0.8703,0.8703,0.8703,0.8703,0.8774,0.8907,0.9115,0.9403,0.9667,0.9771,0.9875,1.0038,1.0038,1.0038,1.0211,1.099,1.1242,1.1431,1.2245,1.2404,1.2484,1.2721,1.2764,1.2818,1.2794,1.2874,1.3014,1.3162,1.3339,1.3673,1.3897,1.42,1.4355,1.4496,1.4694,1.4885,1.4885,1.5267,1.5553,1.5825,1.6298,1.6848,1.7392,1.7479,1.7735,1.8267,1.8201,1.8406,1.8773,1.8902,1.9012,-0.0,0.0135,0.0337,0.0877,0.1012,0.1079,0.0,0.0,0.0,0.1803,0.2215,0.2737,0.3353,0.3763,0.418,0.4566,0.4807,0.51,0.5387,0.5542,0.5782,0.6145,0.635,0.6613,0.7134,0.7826,0.8652,0.9669,1.0151,1.0296,1.0206,1.0477,1.047,1.0123,1.011,1.018,1.0371,1.0371,1.0428,1.0624,1.0624,1.0715,1.0995,1.0995,1.1149,1.1423,1.1423,1.1423,1.1423,1.1423,1.1286,1.1194,1.1297,1.1181,1.0887,1.037,1.0038,0.9777,0.9261,0.9064,0.8946,0.8784,0.878,0.878,0.878,0.8904,0.9051,0.9089,0.9294,0.9597,0.9634,0.9885,1.0038,1.0125,1.0125,1.027,1.0939,1.1079,1.132,1.2,1.214,1.2259,1.2655,1.2764,1.2887,1.2984,1.3216,1.3528,1.3908,1.4298,1.4496,1.479,1.4981,1.5083,1.5083,1.5172,1.5267,1.5267,1.5737,1.6021,1.6021,1.6746,1.737,1.7808,1.7874,1.8072,1.8394,1.8706,1.8973,1.938,1.9309,1.9375,-0.0,0.0472,0.0877,0.0607,0.0809,0.1078,0.1076,0.0,0.1402,0.1693,0.0,0.2395,0.2983,0.0,0.0,0.4173,0.4422,0.4765,0.5347,0.5568,0.5785,0.6129,0.635,0.6613,0.7134,0.8363,0.9512,1.0629,1.0816,1.085,1.0896,1.091,1.0797,1.0568,1.0561,1.0561,1.0561,1.0561,1.0561,1.0624,1.0624,1.0715,1.0995,1.0995,1.1149,1.1423,1.1423,1.1423,1.1423,1.1423,1.1423,1.1361,1.122,1.083,1.0347,1.0137,0.9785,0.9542,0.9327,0.9165,0.9022,0.8946,0.8946,0.8946,0.8946,0.9113,0.9249,0.9282,0.9431,0.9664,0.9853,1.0137,1.0294,1.0554,1.0641,1.0794,1.1206,1.1347,1.1589,1.2274,1.2409,1.234,1.221,1.2499,1.2836,1.2836,1.3582,1.4202,1.4292,1.4688,1.4987,1.5083,1.5083,1.5083,1.5083,1.5458,1.5737,1.5737,1.6211,1.6588,1.6885,1.7428,1.7779,1.7816,1.8101,1.8408,1.873,1.9033,1.8985,1.8814,1.9063,1.9146,0.0607,0.0539,0.0539,0.0809,0.0944,0.1078,0.1076,0.1143,0.1206,0.1457,0.0,0.0,0.0,0.0,0.0,0.0,0.4053,0.4498,0.5115,0.5378,0.5701,0.6157,0.6485,0.7007,0.7717,0.8527,0.936,1.0199,1.0616,1.0784,1.0884,1.1156,1.1187,1.0884,1.087,1.087,1.087,1.087,1.087,1.087,1.087,1.0939,1.1063,1.1063,1.1125,1.1249,1.1249,1.1183,1.1046,1.1046,1.0987,1.0922,1.0856,1.0728,1.061,1.0257,0.9985,0.9674,0.9456,0.928,0.9155,0.921,0.9175,0.9175,0.9175,0.9246,0.9266,0.9279,0.9557,0.9851,0.9945,1.0299,1.0554,1.0641,1.0814,1.0926,1.1287,1.1483,1.169,1.2065,1.2258,1.2334,1.2252,1.2677,1.3038,1.3222,1.368,1.4118,1.4396,1.4772,1.512,1.5485,1.5585,1.5738,1.5913,1.6116,1.6305,1.6305,1.6588,1.6965,1.7153,1.737,1.7618,1.7808,1.7947,1.8182,1.8503,1.8603,1.8637,1.8518,1.9101,1.9399,0.1079,0.0741,0.0404,0.0944,0.1079,0.1078,0.1076,0.1076,0.1143,0.1277,0.1513,0.0,0.0,0.0,0.2945,0.3251,0.0,0.4266,0.4784,0.5124,0.5577,0.617,0.6759,0.7396,0.8107,0.8565,0.9092,0.974,1.0438,1.0797,1.0821,1.13,1.15,1.1192,1.1185,1.1185,1.1185,1.1164,1.1122,1.1122,1.1122,1.1122,1.1122,1.1122,1.1122,1.1122,1.1122,1.0996,1.0807,1.0807,1.0744,1.0624,1.0624,1.0685,1.0725,1.0319,1.0027,0.9777,0.9461,0.932,0.9327,0.9326,0.9397,0.9473,0.9473,0.9549,0.9635,0.9621,0.9848,1.0172,1.0234,1.0611,1.0901,1.0992,1.1246,1.1413,1.1585,1.1757,1.202,1.2289,1.2454,1.2619,1.2619,1.3003,1.3309,1.3489,1.3826,1.4147,1.4591,1.486,1.5217,1.5714,1.5986,1.6211,1.6434,1.6633,1.6777,1.677,1.6965,1.7153,1.7326,1.7413,1.7574,1.7808,1.7904,1.8064,1.8299,1.8299,1.8299,1.8306,1.8947,1.9268,0.1079,0.1079,0.1079,0.1079,0.1078,0.1076,0.1076,0.1076,0.1143,0.1277,0.138,0.161,0.1931,0.2262,0.2559,0.2947,0.3397,0.0,0.0,0.4936,0.5514,0.63,0.7016,0.7652,0.8166,0.8689,0.9215,0.974,1.0568,1.0927,1.0821,1.1567,1.1822,1.1514,1.15,1.15,1.15,1.1206,1.1122,1.1122,1.1122,1.1122,1.1122,1.1122,1.1122,1.1122,1.1122,1.0996,1.0807,1.0807,1.0744,1.0624,1.0624,1.0504,1.027,0.9957,0.9866,0.9819,0.9282,0.9184,0.9327,0.9326,0.9544,0.9846,0.9846,1.0143,1.0413,1.0269,1.0439,1.0605,1.0918,1.1144,1.1413,1.1866,1.2203,1.2363,1.2363,1.2534,1.279,1.2966,1.3052,1.3143,1.3307,1.3454,1.3467,1.3473,1.4142,1.4681,1.486,1.5136,1.5411,1.5582,1.5938,1.612,1.6134,1.6607,1.7066,1.7239,1.7333,1.7326,1.7326,1.7633,1.7801,1.7816,1.8123,1.8291,1.8299,1.8299,1.8299,1.8299,1.8313,1.8321,0.1012,0.1079,0.1079,0.1077,0.1078,0.1078,0.1076,0.1076,0.1143,0.1143,0.1402,0.1581,0.1681,0.2014,0.238,0.2661,0.3058,0.3508,0.0,0.4933,0.5764,0.6315,0.694,0.7526,0.8047,0.8441,0.8958,0.953,1.0117,1.0571,1.0856,1.1423,1.1875,1.2145,1.2277,1.213,1.1544,1.1661,1.1638,1.1435,1.1435,1.1435,1.1435,1.1435,1.1435,1.1435,1.1435,1.131,1.1115,1.1115,1.1059,1.094,1.094,1.0807,1.0618,1.0244,0.9912,0.9616,0.9397,0.9516,0.9801,0.981,1.0016,1.0293,1.0438,1.0513,1.057,1.0833,1.101,1.1098,1.1421,1.1747,1.2106,1.2198,1.254,1.2881,1.2881,1.3052,1.3222,1.3307,1.3398,1.3483,1.3568,1.373,1.3795,1.3623,1.3965,1.4376,1.4534,1.4792,1.5047,1.5517,1.5991,1.6346,1.6653,1.6965,1.7239,1.7326,1.7326,1.7326,1.7326,1.7435,1.7494,1.7494,1.7604,1.7655,1.7655,1.7655,1.7655,1.7655,1.7655,1.7889,0.1012,0.1078,0.1078,0.1076,0.1077,0.1078,0.1076,0.1076,0.1143,0.1143,0.1412,0.1605,0.1642,0.1998,0.2325,0.247,0.2939,0.3447,0.0,0.5103,0.5856,0.6224,0.6773,0.7321,0.7917,0.8382,0.8829,0.9454,1.0015,1.0521,1.0912,1.1368,1.1891,1.2493,1.2704,1.2557,1.2043,1.1926,1.1765,1.1622,1.1622,1.1622,1.1622,1.1622,1.1622,1.1622,1.1622,1.1435,1.1247,1.1247,1.1122,1.0933,1.0933,1.0807,1.0681,1.0491,1.0047,0.963,0.9634,0.9869,1.017,1.0263,1.0533,1.0812,1.0962,1.0962,1.1039,1.1409,1.1556,1.1682,1.2117,1.2409,1.2705,1.2711,1.3052,1.3307,1.3307,1.3483,1.3652,1.3652,1.3737,1.3822,1.3822,1.3997,1.3997,1.3913,1.3997,1.4166,1.4482,1.465,1.4902,1.5461,1.5929,1.6382,1.6821,1.715,1.7326,1.7326,1.7326,1.7326,1.7326,1.7326,1.7326,1.7326,1.7326,1.7326,1.7326,1.7326,1.7326,1.7326,1.7326,1.7552]},{"header":{"parameterUnit":"m.s-1","parameterCategory":1,"la1":30.6,"la2":29.2853,"lo1":-89.7004,"lo2":-87.6739,"dy":0.0162,"dx":0.0183,"nx":112,"ny":82,"refTime":"2023-07-04T12:00:00:Z","depth":0,"parameterNumber":3,"parameterNumberName":"V-component_of_WINDS"},"data":[0.0,0.0,0.0,0.0,0.0,0.0,0.0,0.0,0.0,0.0,0.0,0.0,0.0,0.0,0.0,0.0,0.0,0.0,0.0,0.0,0.0,0.0,0.0,0.0,0.0,0.0,0.0,0.0,0.0,0.0,0.0,0.0,0.0,0.0,0.0,0.0,0.0,0.0,0.0,0.0,0.0,0.0,0.0,0.0,0.0,0.0,0.0,0.0,0.0,0.0,0.0,0.0,0.0,0.0,0.0,0.0,0.0,0.0,0.0,0.0,0.0,0.0,0.0,0.0,0.0,0.0,0.0,0.0,0.0,0.0,0.0,0.0,0.0,0.0,0.0,0.0,0.0,0.0,0.0,0.0,0.0,0.0,0.0,0.0,0.0,0.0,0.0,0.0,0.0,0.0,-2.5703,-2.5703,-2.5693,-2.5693,-2.571,-2.6507,-2.7053,-2.7189,0.0,0.0,0.0,0.0,0.0,0.0,0.0,0.0,0.0,0.0,0.0,0.0,0.0,0.0,0.0,0.0,0.0,0.0,0.0,0.0,0.0,0.0,0.0,0.0,0.0,0.0,0.0,0.0,0.0,0.0,0.0,0.0,0.0,0.0,0.0,0.0,0.0,0.0,0.0,0.0,0.0,0.0,0.0,0.0,0.0,0.0,0.0,0.0,0.0,0.0,0.0,0.0,0.0,0.0,0.0,0.0,0.0,0.0,0.0,0.0,0.0,0.0,0.0,0.0,0.0,0.0,0.0,0.0,0.0,0.0,0.0,0.0,0.0,0.0,0.0,0.0,0.0,0.0,0.0,0.0,0.0,0.0,0.0,0.0,0.0,0.0,0.0,0.0,0.0,0.0,0.0,0.0,0.0,0.0,0.0,0.0,0.0,0.0,0.0,0.0,0.0,0.0,0.0,0.0,-2.5697,-2.5696,-2.5693,-2.569,-2.571,-2.6507,-2.7326,-2.8067,0.0,0.0,0.0,0.0,0.0,0.0,0.0,0.0,0.0,0.0,0.0,0.0,0.0,0.0,0.0,0.0,0.0,0.0,0.0,0.0,0.0,0.0,0.0,0.0,0.0,0.0,0.0,0.0,0.0,0.0,0.0,0.0,0.0,0.0,0.0,0.0,0.0,0.0,0.0,0.0,0.0,0.0,0.0,0.0,0.0,0.0,0.0,0.0,0.0,0.0,0.0,0.0,0.0,0.0,0.0,0.0,0.0,0.0,0.0,0.0,0.0,0.0,0.0,0.0,0.0,0.0,0.0,0.0,0.0,0.0,0.0,0.0,0.0,0.0,0.0,0.0,0.0,0.0,0.0,0.0,0.0,0.0,0.0,0.0,0.0,0.0,0.0,0.0,0.0,0.0,0.0,0.0,0.0,0.0,0.0,0.0,0.0,0.0,0.0,0.0,0.0,0.0,0.0,-2.5693,-2.5701,-2.5697,-2.5697,-2.5697,-2.5694,-2.6903,-2.7815,-2.8225,-2.9136,0.0,0.0,0.0,0.0,0.0,0.0,0.0,0.0,0.0,0.0,0.0,0.0,0.0,0.0,0.0,0.0,0.0,0.0,0.0,0.0,0.0,0.0,0.0,0.0,0.0,0.0,0.0,0.0,0.0,0.0,0.0,0.0,0.0,0.0,0.0,0.0,0.0,0.0,0.0,0.0,0.0,0.0,0.0,0.0,0.0,0.0,0.0,0.0,0.0,0.0,0.0,0.0,0.0,0.0,0.0,0.0,0.0,0.0,0.0,0.0,0.0,0.0,0.0,0.0,0.0,0.0,0.0,0.0,0.0,0.0,0.0,0.0,0.0,0.0,0.0,0.0,0.0,0.0,0.0,0.0,0.0,0.0,0.0,0.0,0.0,0.0,0.0,0.0,0.0,0.0,0.0,0.0,0.0,0.0,0.0,0.0,0.0,0.0,0.0,0.0,0.0,0.0,-2.5704,-2.5697,-2.5687,-2.5862,-2.5976,-2.5987,-2.7526,-2.8505,-2.8505,-2.9955,0.0,0.0,0.0,0.0,0.0,0.0,0.0,0.0,0.0,0.0,0.0,0.0,0.0,0.0,0.0,0.0,0.0,0.0,0.0,0.0,0.0,0.0,0.0,0.0,0.0,0.0,0.0,0.0,0.0,0.0,0.0,0.0,0.0,0.0,0.0,0.0,0.0,0.0,0.0,0.0,0.0,0.0,0.0,0.0,0.0,0.0,0.0,0.0,0.0,0.0,0.0,0.0,0.0,0.0,0.0,0.0,0.0,0.0,0.0,0.0,0.0,0.0,0.0,0.0,0.0,0.0,0.0,0.0,0.0,0.0,0.0,0.0,0.0,0.0,0.0,0.0,0.0,0.0,0.0,0.0,0.0,0.0,0.0,0.0,0.0,0.0,0.0,0.0,0.0,0.0,0.0,0.0,0.0,0.0,0.0,0.0,0.0,0.0,0.0,0.0,0.0,0.0,-2.5703,-2.5679,-2.5609,-2.6329,-2.6816,-2.6816,-2.8418,-2.9416,-2.9416,-3.0287,0.0,0.0,0.0,0.0,0.0,0.0,0.0,0.0,0.0,0.0,0.0,0.0,0.0,0.0,0.0,0.0,0.0,0.0,0.0,0.0,0.0,0.0,0.0,0.0,0.0,0.0,0.0,0.0,0.0,0.0,0.0,0.0,0.0,0.0,0.0,0.0,0.0,0.0,0.0,0.0,0.0,0.0,0.0,0.0,0.0,0.0,0.0,0.0,0.0,0.0,0.0,0.0,0.0,0.0,0.0,0.0,0.0,0.0,0.0,0.0,0.0,0.0,0.0,0.0,0.0,0.0,0.0,0.0,0.0,0.0,0.0,0.0,0.0,0.0,0.0,0.0,0.0,0.0,0.0,0.0,0.0,0.0,0.0,0.0,0.0,0.0,0.0,0.0,0.0,0.0,0.0,0.0,0.0,0.0,0.0,0.0,0.0,0.0,0.0,0.0,0.0,0.0,-2.6135,-2.6432,-2.6408,-2.7186,-2.7717,-2.7707,-2.8802,-2.9508,-2.9494,0.0,0.0,0.0,0.0,0.0,0.0,0.0,0.0,0.0,0.0,0.0,0.0,0.0,0.0,0.0,0.0,0.0,0.0,0.0,0.0,0.0,0.0,0.0,0.0,0.0,0.0,0.0,0.0,0.0,0.0,0.0,0.0,0.0,0.0,0.0,0.0,0.0,0.0,0.0,0.0,0.0,0.0,0.0,0.0,0.0,0.0,0.0,0.0,0.0,0.0,0.0,0.0,0.0,0.0,0.0,0.0,0.0,0.0,0.0,0.0,0.0,0.0,0.0,0.0,0.0,0.0,0.0,0.0,0.0,0.0,0.0,0.0,0.0,0.0,0.0,0.0,0.0,0.0,0.0,0.0,0.0,0.0,0.0,0.0,0.0,0.0,0.0,0.0,0.0,0.0,0.0,0.0,0.0,0.0,0.0,0.0,0.0,0.0,0.0,0.0,0.0,0.0,-2.6057,-2.6564,-2.7015,-2.7287,-2.8065,-2.8582,-2.8617,-2.9421,-2.9913,-2.9903,0.0,0.0,0.0,0.0,0.0,0.0,0.0,0.0,0.0,0.0,0.0,0.0,0.0,0.0,0.0,0.0,0.0,0.0,0.0,0.0,0.0,0.0,0.0,0.0,0.0,0.0,0.0,0.0,0.0,0.0,0.0,0.0,0.0,0.0,0.0,0.0,0.0,0.0,0.0,0.0,0.0,0.0,0.0,0.0,0.0,0.0,0.0,0.0,0.0,0.0,0.0,0.0,0.0,0.0,0.0,0.0,0.0,0.0,0.0,0.0,0.0,0.0,0.0,0.0,0.0,0.0,0.0,0.0,0.0,0.0,0.0,0.0,0.0,0.0,0.0,0.0,0.0,0.0,0.0,0.0,0.0,0.0,0.0,0.0,0.0,0.0,0.0,0.0,0.0,0.0,0.0,0.0,0.0,0.0,0.0,0.0,0.0,0.0,0.0,0.0,0.0,0.0,-2.6812,-2.6912,-2.7257,-2.8112,-2.8929,-2.944,-2.9516,-3.0311,-3.0808,0.0,0.0,0.0,0.0,0.0,0.0,0.0,0.0,0.0,0.0,0.0,0.0,0.0,0.0,0.0,0.0,0.0,0.0,0.0,0.0,0.0,0.0,0.0,0.0,0.0,0.0,0.0,0.0,0.0,0.0,0.0,0.0,0.0,0.0,0.0,0.0,0.0,0.0,0.0,0.0,0.0,0.0,0.0,0.0,0.0,0.0,0.0,0.0,0.0,0.0,0.0,0.0,0.0,0.0,0.0,0.0,0.0,0.0,0.0,0.0,0.0,0.0,0.0,0.0,0.0,0.0,0.0,0.0,0.0,0.0,0.0,0.0,0.0,0.0,0.0,0.0,0.0,0.0,0.0,0.0,0.0,0.0,0.0,0.0,0.0,0.0,0.0,0.0,0.0,0.0,0.0,0.0,0.0,0.0,0.0,0.0,0.0,0.0,0.0,0.0,0.0,0.0,0.0,-2.769,-2.832,-2.8754,-2.9026,-2.9804,-3.0322,-3.0347,-3.0573,-3.0759,-3.0799,0.0,0.0,0.0,0.0,0.0,0.0,0.0,0.0,0.0,0.0,0.0,0.0,0.0,0.0,0.0,0.0,0.0,0.0,0.0,0.0,0.0,0.0,0.0,0.0,0.0,0.0,0.0,0.0,0.0,0.0,0.0,0.0,0.0,0.0,0.0,0.0,0.0,0.0,0.0,0.0,0.0,0.0,0.0,0.0,0.0,0.0,0.0,0.0,0.0,0.0,0.0,0.0,0.0,0.0,0.0,0.0,0.0,0.0,0.0,0.0,0.0,0.0,0.0,0.0,0.0,0.0,0.0,0.0,0.0,0.0,0.0,0.0,0.0,0.0,0.0,0.0,0.0,0.0,0.0,0.0,0.0,0.0,0.0,0.0,0.0,0.0,0.0,0.0,0.0,0.0,0.0,0.0,0.0,0.0,0.0,0.0,0.0,0.0,0.0,0.0,0.0,0.0,-2.8566,-2.9104,-2.9525,-2.9874,-3.0379,-3.0704,-3.0697,-3.0703,-3.0734,-3.0799,0.0,0.0,0.0,0.0,0.0,0.0,0.0,0.0,0.0,0.0,0.0,0.0,0.0,0.0,0.0,0.0,0.0,0.0,0.0,0.0,0.0,0.0,0.0,0.0,0.0,0.0,0.0,0.0,0.0,0.0,0.0,0.0,0.0,0.0,0.0,0.0,0.0,0.0,0.0,0.0,0.0,0.0,0.0,0.0,0.0,0.0,0.0,0.0,0.0,0.0,0.0,0.0,0.0,0.0,0.0,0.0,0.0,0.0,0.0,0.0,0.0,0.0,0.0,0.0,0.0,0.0,0.0,0.0,0.0,0.0,0.0,0.0,0.0,0.0,0.0,0.0,0.0,0.0,0.0,0.0,0.0,0.0,0.0,0.0,0.0,0.0,0.0,0.0,0.0,0.0,0.0,0.0,0.0,0.0,0.0,0.0,0.0,0.0,0.0,0.0,0.0,0.0,-2.9408,-2.9525,-2.9816,-3.0613,-3.069,-3.0704,-3.0697,-3.0703,-3.0734,-3.0799,0.0,0.0,0.0,0.0,0.0,0.0,0.0,0.0,0.0,0.0,0.0,0.0,0.0,0.0,0.0,0.0,0.0,0.0,0.0,0.0,0.0,0.0,0.0,0.0,0.0,0.0,0.0,0.0,0.0,0.0,0.0,0.0,0.0,0.0,0.0,0.0,0.0,0.0,0.0,0.0,0.0,0.0,0.0,0.0,0.0,0.0,0.0,0.0,0.0,0.0,0.0,0.0,0.0,0.0,0.0,0.0,0.0,0.0,0.0,0.0,-3.1917,-3.1635,0.0,0.0,0.0,0.0,0.0,0.0,0.0,0.0,0.0,0.0,0.0,0.0,0.0,0.0,0.0,0.0,0.0,0.0,0.0,0.0,0.0,0.0,0.0,0.0,0.0,0.0,0.0,0.0,0.0,0.0,0.0,0.0,0.0,0.0,0.0,0.0,0.0,0.0,0.0,0.0,-3.0302,-3.0418,-3.0496,-3.0671,-3.069,-3.0704,-3.0697,-3.0703,-3.0734,-3.0799,-3.0793,0.0,0.0,0.0,0.0,0.0,0.0,0.0,0.0,0.0,0.0,0.0,0.0,0.0,0.0,0.0,0.0,0.0,0.0,0.0,0.0,0.0,0.0,0.0,0.0,0.0,0.0,0.0,0.0,0.0,0.0,0.0,0.0,0.0,0.0,0.0,0.0,0.0,0.0,0.0,0.0,0.0,0.0,0.0,0.0,0.0,0.0,0.0,0.0,0.0,0.0,0.0,0.0,0.0,0.0,0.0,0.0,0.0,0.0,0.0,-3.3006,-3.2474,0.0,0.0,0.0,0.0,0.0,0.0,0.0,0.0,0.0,0.0,0.0,0.0,0.0,0.0,0.0,0.0,0.0,0.0,0.0,0.0,0.0,0.0,0.0,0.0,0.0,0.0,0.0,0.0,0.0,0.0,0.0,0.0,0.0,0.0,0.0,0.0,0.0,0.0,0.0,0.0,-3.1273,-3.1681,-3.1953,-3.1953,-3.1953,-3.1773,-3.1358,-3.1326,-3.1162,-3.0818,-3.0793,0.0,0.0,0.0,0.0,0.0,0.0,0.0,0.0,0.0,0.0,0.0,0.0,0.0,0.0,0.0,0.0,0.0,0.0,0.0,0.0,0.0,0.0,0.0,0.0,0.0,0.0,0.0,0.0,0.0,0.0,0.0,0.0,0.0,0.0,0.0,0.0,0.0,0.0,0.0,0.0,0.0,0.0,0.0,0.0,0.0,0.0,0.0,0.0,0.0,0.0,0.0,0.0,0.0,-3.5881,-3.5823,-3.5784,-3.4923,-3.5005,-3.5724,-3.4193,-3.345,-3.3344,-3.3344,0.0,0.0,0.0,0.0,0.0,0.0,0.0,0.0,0.0,0.0,0.0,0.0,0.0,0.0,0.0,0.0,0.0,0.0,0.0,0.0,0.0,0.0,-3.3905,-3.4125,-3.4191,-3.4198,-3.4191,0.0,0.0,0.0,0.0,0.0,0.0,0.0,0.0,0.0,0.0,0.0,-3.2225,-3.2846,-3.3293,-3.3293,-3.3293,-3.3017,-3.2298,-3.2221,-3.1882,-3.1076,-3.1031,-3.0962,0.0,0.0,0.0,0.0,0.0,0.0,0.0,0.0,0.0,0.0,0.0,0.0,0.0,0.0,0.0,0.0,0.0,0.0,0.0,0.0,0.0,0.0,0.0,0.0,0.0,0.0,0.0,0.0,0.0,0.0,0.0,0.0,-3.4037,-3.3388,0.0,0.0,0.0,0.0,0.0,0.0,0.0,0.0,0.0,0.0,0.0,0.0,0.0,-3.7579,-3.7676,-3.7579,-3.7565,-3.7695,-3.6972,-3.6639,-3.66,-3.5791,-3.5861,-3.6595,-3.5666,0.0,-3.4234,-3.4234,0.0,0.0,0.0,0.0,0.0,0.0,0.0,0.0,0.0,0.0,0.0,0.0,0.0,0.0,0.0,0.0,0.0,0.0,0.0,0.0,0.0,0.0,-3.5937,-3.7384,-3.7727,-3.7736,-3.7739,-3.5943,-3.4334,-3.435,-3.4332,-3.408,0.0,0.0,0.0,0.0,0.0,0.0,-3.3138,-3.3235,-3.3293,-3.3293,-3.3293,-3.325,-3.3135,-3.3135,-3.2783,-3.1982,-3.1941,-3.1594,-3.0837,-3.1538,0.0,0.0,0.0,0.0,0.0,0.0,0.0,0.0,0.0,0.0,0.0,0.0,0.0,0.0,0.0,0.0,0.0,0.0,0.0,0.0,0.0,0.0,0.0,0.0,0.0,0.0,0.0,0.0,0.0,-3.4081,-3.4575,-3.4692,-3.4951,-3.4962,0.0,0.0,0.0,0.0,0.0,0.0,0.0,0.0,0.0,-3.7271,-3.7638,-3.7833,-3.7833,-3.7833,-3.7849,-3.7885,-3.7517,-3.739,-3.7416,-3.7046,-3.7112,-3.7462,-3.7147,-3.6825,-3.6455,-3.553,-3.4621,-3.3828,0.0,0.0,0.0,0.0,-3.3858,-3.3887,-3.3925,-3.3932,-3.3841,-3.339,0.0,0.0,0.0,0.0,0.0,0.0,0.0,-3.5756,-3.6995,-3.7313,-3.7486,-3.8225,-3.8397,-3.8391,-3.8345,-3.7432,-3.6618,-3.6599,-3.6202,-3.5776,-3.5388,-3.4555,0.0,0.0,0.0,-3.3973,-3.3973,-3.44,-3.4711,-3.4711,-3.4719,-3.4528,-3.4069,-3.4023,-3.3691,-3.2888,-3.2838,-3.2658,-3.2285,-3.2635,-3.3238,0.0,0.0,0.0,0.0,0.0,0.0,0.0,0.0,0.0,0.0,0.0,0.0,0.0,0.0,0.0,0.0,0.0,0.0,0.0,0.0,0.0,0.0,0.0,0.0,0.0,0.0,0.0,0.0,-3.4678,-3.5039,-3.5679,-3.5658,-3.5596,0.0,0.0,0.0,0.0,0.0,0.0,-3.6843,-3.7577,-3.7981,-3.7983,-3.8211,-3.8326,-3.8307,-3.8327,-3.8345,-3.8418,-3.8206,-3.8123,-3.8185,-3.8005,-3.807,-3.8315,-3.8163,-3.826,-3.8382,-3.6949,-3.5955,-3.5375,-3.5375,-3.4988,-3.4485,-3.5125,-3.5378,-3.5408,-3.5456,-3.5466,-3.5366,-3.4742,-3.4579,-3.4627,-3.4633,0.0,0.0,0.0,0.0,-3.7622,-3.8505,-3.8735,-3.8777,-3.8991,-3.9041,-3.9043,-3.8976,-3.8967,-3.8821,-3.8313,-3.7751,-3.7325,-3.7325,-3.6125,0.0,-3.5163,-3.4975,-3.4828,-3.4828,-3.541,-3.5799,-3.5799,-3.5795,-3.5565,-3.4977,-3.4931,-3.4583,-3.3774,-3.3723,-3.3626,-3.3414,-3.3613,-3.4035,-3.4686,0.0,0.0,0.0,0.0,0.0,0.0,0.0,0.0,0.0,0.0,0.0,0.0,0.0,0.0,0.0,0.0,0.0,0.0,0.0,0.0,0.0,0.0,0.0,0.0,0.0,0.0,0.0,0.0,0.0,-3.5618,-3.5604,0.0,0.0,0.0,0.0,-3.6485,-3.652,-3.6816,-3.7507,-3.8309,-3.8746,-3.8746,-3.9547,-3.9985,-3.9983,-3.9982,-4.0002,-4.0062,-3.9297,-3.8965,-3.9016,-3.8308,-3.8445,-3.9201,-3.8433,-3.8569,-3.9271,-3.8419,-3.8063,-3.8005,-3.8005,-3.7986,-3.7947,-3.7986,-3.8048,-3.8089,-3.8119,-3.8112,-3.8103,-3.813,-3.8179,-3.8241,-3.8241,-3.8273,0.0,0.0,-3.8358,-3.8544,-3.942,-3.9641,-3.9839,-4.0597,-4.0771,-4.0762,-4.0771,-4.0771,-4.0276,-3.8616,-3.8267,-3.8228,-3.8228,0.0,-3.6968,-3.6968,-3.6267,-3.5741,-3.5741,-3.5779,-3.5799,-3.5803,-3.5803,-3.5813,-3.5825,-3.583,-3.5495,-3.4686,-3.4627,-3.4251,-3.3437,-3.4193,-3.4666,-3.4706,-3.5451,0.0,0.0,0.0,0.0,0.0,0.0,0.0,0.0,0.0,0.0,0.0,0.0,0.0,0.0,0.0,0.0,0.0,0.0,0.0,0.0,0.0,0.0,0.0,0.0,0.0,0.0,0.0,0.0,-3.5604,-3.5589,0.0,-3.5515,-3.5878,-3.6243,-3.6504,-3.7431,-3.8099,-3.8365,-3.9085,-3.9499,-3.9499,-3.9804,-3.9975,-3.9954,-3.9996,-4.0076,-4.0136,-3.9891,-3.983,-3.9936,-3.9707,-3.9807,-4.0126,-3.9888,-3.9953,-4.0217,-3.9966,-3.9204,-3.8199,-3.8241,-3.8272,-3.8252,-3.8263,-3.8285,-3.8296,-3.8297,-3.8326,-3.8382,-3.8432,-3.8475,-3.8511,-3.8511,-3.8881,-3.933,-3.9337,-3.9689,-4.0135,-4.0451,-4.0532,-4.0602,-4.0894,-4.0952,-4.0971,-4.0963,-4.0954,-4.0779,-4.0157,-3.9558,-3.915,-3.9141,-3.7996,-3.7093,-3.7102,-3.6354,-3.5799,-3.5799,-3.5807,-3.5795,-3.5803,-3.584,-3.5866,-3.5911,-3.5933,-3.5849,-3.5547,-3.5537,-3.5409,-3.5092,-3.5372,-3.5529,-3.547,-3.5758,-3.5904,0.0,0.0,0.0,0.0,0.0,0.0,0.0,0.0,0.0,0.0,0.0,0.0,0.0,0.0,0.0,0.0,0.0,0.0,0.0,0.0,0.0,0.0,0.0,0.0,0.0,-3.5665,-3.5643,-3.5577,-3.5823,-3.5965,-3.5883,-3.6527,-3.7022,-3.7258,-3.8213,-3.8914,-3.9159,-3.9648,-3.9911,-3.9933,-3.993,-3.993,-3.9951,-4.0032,-4.0093,-4.0137,-4.0234,-4.0344,-4.0447,-4.0489,-4.0569,-4.0651,-4.0673,-4.07,-4.0746,-4.0771,-4.0106,-3.9081,-3.9124,-3.9146,-3.9157,-3.9159,-3.918,-3.918,-3.9198,-3.9252,-3.9322,-3.9351,-3.9382,-3.9385,-3.937,-3.9784,-4.0248,-4.0232,-4.0629,-4.102,-4.1032,-4.1018,-4.0991,-4.0991,-4.0991,-4.0991,-4.0991,-4.0991,-4.0991,-4.0991,-4.0496,-4.0073,-4.0072,-3.8907,-3.7983,-3.7972,-3.7008,-3.627,-3.627,-3.6013,-3.5833,-3.584,-3.5872,-3.5914,-3.5924,-3.597,-3.5996,-3.5993,-3.5995,-3.5995,-3.5994,-3.5978,-3.5942,-3.5909,-3.5904,-3.5899,-3.5908,0.0,0.0,0.0,0.0,0.0,0.0,0.0,0.0,0.0,0.0,0.0,0.0,0.0,0.0,0.0,0.0,0.0,0.0,0.0,0.0,0.0,0.0,0.0,-3.5601,-3.5601,-3.5596,-3.5554,-3.6292,-3.6771,-3.6654,-3.7373,-3.8094,-3.8746,-3.882,-3.9159,-3.9873,-3.9911,-3.9933,-3.9996,-4.0008,-4.0049,-4.0093,-4.0163,-4.0209,-4.0215,-4.0345,-4.0432,-4.0523,-4.0579,-4.0635,-4.07,-4.07,-4.0746,-4.0803,-4.0808,-4.08,-4.08,-4.08,-4.0804,-4.0818,-4.0877,-4.0908,-4.0926,-4.0991,-4.1033,-4.1056,-4.1097,-4.1089,-4.1072,-4.1085,-4.1109,-4.1109,-4.1096,-4.1106,-4.1095,-4.1095,-4.1045,-4.0994,-4.0994,-4.0994,-4.0994,-4.0994,-4.0994,-4.0994,-4.0994,-4.1006,-4.0996,-4.0996,-4.0276,-3.9692,-3.9692,-3.8298,0.0,-3.7247,-3.6502,-3.5969,-3.5947,-3.5933,-3.5958,-3.6003,-3.5992,-3.5996,-3.5994,-3.6007,-3.5994,-3.5997,-3.5929,-3.5909,-3.5909,-3.5894,-3.5908,-3.5908,0.0,0.0,0.0,0.0,0.0,0.0,0.0,0.0,0.0,0.0,0.0,0.0,0.0,0.0,0.0,0.0,0.0,0.0,0.0,0.0,0.0,-3.548,-3.5601,-3.5601,-3.5608,-3.5804,-3.6369,-3.6658,-3.6988,-3.7482,-3.8219,-3.8706,-3.8784,-3.9333,-3.9768,-3.9956,-3.9975,-3.9994,-4.0074,-4.0112,-4.0148,-4.0182,-4.0231,-4.0308,-4.035,-4.0434,-4.0511,-4.0573,-4.0626,-4.0668,-4.07,-4.0746,-4.0784,-4.0808,-4.0788,-4.0834,-4.0878,-4.0878,-4.0878,-4.0878,-4.0952,-4.0999,-4.1046,-4.1065,-4.0661,-4.0257,-4.0891,-4.0699,-4.0335,-4.0923,-4.1094,-4.1104,-4.1101,-4.1097,-4.1094,-4.1096,-4.1086,-4.1061,-4.1061,-4.1061,-4.1061,-4.1061,-4.1061,-4.1061,-4.1061,-4.1075,-4.1064,-4.1,-4.0318,-3.9773,-3.9773,-3.8844,-3.8143,-3.8143,-3.7929,-3.7545,-3.6902,-3.6891,-3.6662,-3.6048,-3.5996,-3.6009,-3.5991,-3.5997,-3.5986,-3.5929,-3.5909,-3.5904,-3.5894,-3.5889,-3.5903,0.0,0.0,0.0,0.0,0.0,0.0,0.0,0.0,0.0,0.0,0.0,0.0,0.0,0.0,0.0,0.0,0.0,0.0,0.0,0.0,0.0,0.0,-3.5612,-3.5724,-3.606,-3.6093,-3.6267,-3.6708,-3.7401,-3.8007,-3.8415,-3.9133,-3.9543,-3.9395,-3.9832,-4.0077,-4.0077,-4.0077,-4.0117,-4.0195,-4.0251,-4.0288,-4.0286,-4.0367,-4.046,-4.0472,-4.0535,-4.0607,-4.064,-4.0713,-4.0752,-4.0745,-4.0788,-4.08,-4.0804,-4.0826,-4.0849,-4.0906,0.0,0.0,0.0,0.0,-4.1064,-4.1111,-4.1095,-4.0769,-4.0424,-4.0937,-4.0773,-4.0498,-4.0953,-4.1108,-4.1103,-4.1099,-4.1099,-4.1097,-4.1104,-4.1101,-4.1101,-4.1101,-4.1101,-4.1101,-4.1101,-4.1101,-4.1101,-4.1101,-4.1101,0.0,-4.1046,-4.0662,-4.0335,-4.0335,-3.9594,-3.9043,-3.9043,-3.8731,-3.8315,-3.7796,-3.7487,-3.7088,-3.6582,-3.6204,0.0,0.0,0.0,-3.5948,-3.5899,-3.5899,0.0,0.0,0.0,-3.6066,-3.6398,-3.7313,0.0,0.0,-3.8805,-3.9318,0.0,0.0,0.0,0.0,0.0,0.0,0.0,0.0,0.0,0.0,0.0,0.0,0.0,0.0,0.0,0.0,-3.5794,-3.6028,-3.6832,-3.7018,-3.7068,-3.7007,-3.8354,-3.93,-3.9349,-3.9989,-4.0342,-4.0215,-4.0215,-4.0215,-4.0215,-4.0215,0.0,0.0,0.0,-4.0425,-4.0404,-4.0537,-4.0603,-4.0602,-4.0681,-4.0706,-4.0706,-4.0769,-4.0804,-4.0807,-4.0807,-4.0818,-4.0818,-4.0878,-4.0915,-4.0913,-4.0915,-4.0968,-4.102,-4.1071,-4.1106,-4.1094,-4.11,0.0,0.0,-4.1077,-4.1035,-4.0982,-4.1073,-4.1113,-4.1094,-4.1092,-4.109,-4.111,-4.111,-4.111,-4.111,-4.111,-4.111,-4.111,-4.111,-4.111,-4.111,-4.111,-4.111,-4.111,-4.111,-4.1091,-4.1105,-4.1105,-4.0442,-3.9915,-3.9817,-3.9122,-3.8589,-3.8397,-3.7734,0.0,-3.7153,-3.6433,-3.5966,-3.589,-3.5987,-3.6094,-3.6201,-3.6201,-3.6189,-3.6177,-3.6177,-3.6534,-3.7253,-3.8169,-3.9,-3.9694,-3.987,-3.9941,0.0,0.0,0.0,0.0,0.0,0.0,0.0,0.0,0.0,0.0,0.0,0.0,0.0,0.0,0.0,-3.6574,-3.6648,-3.6933,-3.7745,-3.8411,-3.8821,-3.8796,-3.9084,-3.955,-4.0194,-4.0406,-4.0432,-4.0307,-4.0289,-4.0271,-4.0271,-4.0325,-4.0362,-4.0381,-4.0497,-4.0559,-4.0557,-4.0584,-4.063,-4.0681,-4.0684,0.0,-4.0769,-4.0784,-4.0807,-4.0807,-4.0867,-4.0868,-4.0898,-4.0943,-4.1003,-4.1052,-4.1052,-4.1078,-4.1076,-4.1106,-4.1097,-4.1101,-4.1108,-4.0678,-4.0257,-4.0954,-4.0702,-4.0253,-4.0976,-4.1149,0.0,-4.1101,-4.1107,-4.1091,-4.1091,-4.1091,-4.1091,-4.1091,-4.1091,-4.1091,-4.1091,-4.1091,-4.1091,-4.1091,-4.1091,-4.1091,-4.1091,-4.1092,-4.1103,-4.1091,-4.0954,-4.0583,-3.988,-3.9705,-3.9082,-3.7672,-3.7387,-3.7019,-3.6321,-3.6055,-3.5914,-3.5909,-3.6562,-3.7253,-3.7975,-3.7994,-3.7968,-3.7921,-3.7921,-3.7992,-3.8152,-3.9042,-3.9556,-3.9715,-4.0487,-4.0857,0.0,0.0,0.0,0.0,0.0,0.0,0.0,0.0,0.0,0.0,0.0,-3.7196,-3.7169,0.0,-3.7225,-3.7589,-3.7626,-3.7873,-3.8691,-3.9116,-3.9345,-3.9292,-3.9662,-4.0065,-4.0508,-4.0546,-4.0531,-4.0463,-4.0444,-4.0444,-4.0444,-4.0479,-4.0511,-4.0508,-4.0604,-4.0641,-4.0655,-4.0674,-4.0718,-4.0742,-4.0757,-4.0787,-4.0846,-4.0858,-4.0878,-4.0898,-4.0945,-4.0952,-4.0968,-4.1025,-4.1078,-4.1095,-4.1091,-4.1105,-4.1097,-4.1094,-4.1104,-4.1101,-4.1144,-4.0892,-4.0621,-4.1014,-4.0853,-4.0581,-4.1013,-4.1126,-4.1099,-4.1091,-4.1094,-4.1099,-4.1099,-4.1099,-4.1099,-4.1099,-4.1099,-4.0982,-4.0594,-4.0826,-4.0982,-4.0572,-4.0826,-4.1099,-4.1099,-4.1108,-4.1092,-4.1092,-4.111,-4.0793,-3.991,-3.9832,-3.9342,-3.8037,-3.75,-3.7063,-3.6635,-3.6177,-3.6089,-3.6532,-3.6949,-3.7579,-3.8422,-3.8442,-3.8435,-3.8393,-3.8393,-3.861,-3.906,-3.9493,-3.9921,-4.0368,-4.0828,-4.1052,0.0,0.0,0.0,0.0,0.0,0.0,0.0,0.0,-3.7739,-3.8397,-3.8502,-3.8506,-3.8493,-3.8461,-3.8474,-3.863,-3.8606,-3.885,-3.9646,-3.9707,-3.9644,-3.9586,-4.0134,-4.0534,-4.0603,-4.0603,-4.0603,-4.0603,-4.0603,-4.0603,-4.0603,-4.0603,-4.0631,-4.0615,-4.0687,-4.0791,-4.0977,-4.104,-4.1133,-4.1304,-4.1324,-4.1256,-4.115,-4.1169,-4.1118,-4.0999,-4.1018,-4.102,-4.1026,-4.1081,-4.1096,-4.1105,-4.1091,-4.1101,-4.1103,-4.1119,-4.1101,-4.1107,-4.1152,-4.1171,-4.1171,-4.1121,-4.1091,-4.1091,-4.1101,-4.1105,-4.1103,-4.1094,-4.1108,-4.1108,-4.1108,-4.1108,-4.1108,-4.1108,-4.0971,-4.0717,-4.0232,-4.0506,-4.0717,-4.0229,-4.0659,-4.1108,-4.1108,-4.1104,-4.1108,-4.1103,-4.1094,-4.0711,-3.9681,-3.9544,-3.915,-3.8103,-3.7522,-3.7264,-3.7444,-3.6654,-3.6598,-3.7631,-3.7527,-3.787,-3.8867,-3.8906,-3.8899,-3.8894,-3.8894,-3.9235,-3.9936,-3.9935,-4.0293,-4.0982,-4.0971,-4.0996,-3.709,-3.7109,-3.7143,-3.7143,-3.7733,-3.832,0.0,0.0,-3.8475,-3.8576,-3.8548,-3.8509,-3.8509,-3.8487,-3.8725,-3.9442,-3.9551,-3.9788,-4.0546,-4.0641,-4.0626,-4.0565,-4.0582,-4.0588,-4.0607,-4.0607,-4.0607,-4.0607,-4.0607,-4.0607,-4.0607,-4.066,-4.07,-4.0681,-4.0742,-4.116,-4.1938,-4.1944,-4.2344,-4.31,-4.3158,-4.2799,-4.2052,-4.2113,-4.1739,-4.1006,-4.1059,-4.1084,-4.1091,-4.1097,-4.1104,-4.1108,-4.109,-4.1092,-4.1101,-4.1171,-4.1151,-4.1099,-4.1116,-4.1101,-4.1108,-4.1107,-4.1099,-4.1111,-4.1091,-4.1091,-4.1091,-4.1111,-4.1108,-4.1108,-4.1108,-4.1108,-4.1108,-4.1108,-4.0503,-4.0132,-4.0815,-4.0424,-4.0151,-4.0834,-4.1042,-4.1094,-4.1094,-4.1105,-4.1105,-4.1108,-4.1101,-4.0504,-3.8865,-3.8647,-3.801,-3.6363,-3.6806,-3.7517,-3.8293,-3.7566,-3.7728,-3.9322,-3.87,-3.9004,-4.0641,-4.0719,-4.0682,-4.0616,-4.0616,-4.0674,-4.0771,-4.0771,-4.081,-4.0907,-4.0917,-4.0943,-3.8083,-3.7987,-3.8004,-3.8049,-3.8329,-3.8723,-3.9235,-3.9355,-3.9492,-3.9958,-4.0031,-4.0006,-4.0018,-4.0008,-4.0114,-4.0457,-4.051,-4.0616,-4.0876,-4.0917,-4.0888,-4.0823,-4.0781,-4.0745,-4.0668,-4.0662,-4.0655,-4.072,-4.0725,-4.0718,-4.0718,-4.0745,-4.0764,-4.0769,-4.0788,-4.0998,-4.1391,-4.1907,-4.2354,-4.2762,-4.3303,-4.3111,-4.2264,-4.2325,-4.187,-4.105,-4.1091,-4.1101,-4.1103,-4.1107,-4.1091,-4.1093,-4.1093,-4.1105,-4.1091,-4.1128,-4.1128,-4.1099,-4.1091,-4.1094,-4.1099,-4.1099,-4.1094,-4.1108,-4.1108,-4.1108,-4.1108,-4.1108,-4.1108,-4.1108,-4.1108,-4.1108,-4.1108,-4.1108,-4.0424,-3.9897,-4.0268,-4.007,-3.9907,-4.0262,-4.0742,-4.11,-4.11,-4.1096,-4.1096,-4.1109,-4.1105,-4.0652,-3.9418,-3.9258,-3.8775,-3.7545,-3.7734,-3.8098,-3.8403,-3.8111,-3.8408,-3.961,-3.9357,-3.9699,-4.0887,-4.0945,-4.0936,-4.0907,-4.0888,-4.0898,-4.0898,-4.0868,-4.0839,-4.0839,-4.0839,-4.0859,-3.8694,-3.8658,-3.8844,-3.8881,-3.9107,-3.9445,-4.0081,-4.0228,-4.0409,-4.0976,-4.1093,-4.1108,-4.1101,-4.1099,-4.1094,-4.1111,-4.109,-4.1081,-4.1039,-4.1025,-4.1003,-4.0936,-4.0917,-4.0888,-4.0769,-4.0738,-4.075,-4.0812,-4.0796,-4.0807,-4.0807,-4.0796,-4.0804,-4.0826,-4.0823,-4.0981,-4.1276,-4.1908,-4.249,-4.3025,-4.3403,-4.3275,-4.2662,-4.2237,-4.169,-4.1101,-4.1097,-4.111,-4.1093,-4.1092,-4.1108,-4.1103,-4.1103,-4.1099,-4.1091,-4.1101,-4.1103,-4.1101,-4.1094,-4.1108,-4.1108,-4.1108,-4.1108,-4.1108,-4.1104,-4.1104,-4.1104,-4.1101,-4.1101,-4.1101,-4.1101,-4.1101,-4.1101,-4.1101,-4.0437,-3.9871,-4.0106,-3.9962,-3.9876,-4.0114,-4.0671,-4.1111,-4.1111,-4.1081,-4.1075,-4.1075,-4.1075,-4.0758,-3.9906,-3.9589,-3.9279,-3.8864,-3.8838,-3.8909,-3.9101,-3.8879,-3.9096,-3.9984,-3.98,-4.0024,-4.0849,-4.0869,-4.0869,-4.0869,-4.0868,-4.0867,-4.0856,-4.0826,-4.0796,-4.0765,-4.0765,-4.0901,-3.8607,-3.9011,-3.9668,-3.9663,-4.0345,-4.1031,-4.1051,-4.1062,-4.1074,-4.1086,-4.1093,-4.1094,-4.1094,-4.1091,-4.1103,-4.1091,-4.1108,-4.1104,-4.1109,-4.1091,-4.107,-4.1013,-4.1003,-4.096,-4.0904,-4.084,-4.0807,-4.0807,-4.0807,-4.0807,-4.0807,-4.0807,-4.0828,-4.0878,-4.0907,-4.1335,-4.2247,-4.2277,-4.3158,-4.4805,-4.3992,-4.3611,-4.3607,-4.1919,-4.1131,-4.1094,-4.1094,-4.1093,-4.1107,-4.1097,-4.1091,-4.1111,-4.1111,-4.1111,-4.1108,-4.1111,-4.1111,-4.1111,-4.1108,-4.1108,-4.1108,-4.1108,-4.1108,-4.1108,-4.1097,-4.1094,-4.109,-4.11,-4.1096,-4.1096,-4.1096,-4.1096,-4.1096,-4.1096,-4.0433,-4.0023,-4.0881,-4.0394,-4.0043,-4.0901,-4.1086,-4.1095,-4.1095,-4.1052,-4.0993,-4.0993,-4.0991,-4.0707,-3.99,-3.9065,-3.8818,-3.9575,-3.9653,-3.9996,-4.0855,-4.009,-3.9946,-4.081,-4.0061,-3.9954,-4.0768,-4.0787,-4.0787,-4.0787,-4.0807,-4.0796,-4.08,-4.08,-4.0769,-4.0694,-4.0694,-4.1158,-3.9257,-3.9839,-4.0509,-4.0556,-4.0792,-4.1026,-4.1031,-4.1067,-4.1105,-4.1101,-4.1097,-4.1103,-4.1103,-4.111,-4.1093,-4.1094,-4.1093,-4.1108,-4.1094,-4.1108,-4.1097,-4.1081,-4.107,-4.1046,-4.0968,-4.0915,-4.0878,-4.0926,-4.0924,-4.0921,-4.0937,-4.0941,-4.0941,-4.0968,-4.0964,-4.1143,-4.15,-4.2078,-4.2666,-4.3242,-4.2949,-4.2829,-4.2804,-4.1639,-4.1093,-4.1103,-4.1103,-4.1101,-4.1097,-4.1091,-4.1108,-4.1108,-4.1108,-4.1104,-4.1097,-4.1097,-4.1094,-4.1109,-4.1104,-4.1104,-4.1097,-4.1097,-4.1094,-4.1105,-4.11,-4.11,-4.11,-4.1096,-4.1091,-4.1091,-4.1091,-4.1091,-4.1091,-4.1091,-4.0433,-4.0043,-4.092,-4.0423,-4.0042,-4.0875,-4.1033,-4.102,-4.1025,-4.1018,-4.0984,-4.0929,-4.0976,-4.0906,-4.0636,-4.0303,-4.0202,-4.0468,-4.0509,-4.0607,-4.0849,-4.0586,-4.0507,-4.0834,-4.056,-4.049,-4.073,-4.073,-4.073,-4.073,-4.0725,-4.072,-4.0662,-4.0673,-4.0626,-4.0579,-4.0579,-4.1041,-3.9544,-4.0186,-4.0837,-4.0907,-4.0954,-4.0971,-4.0964,-4.1013,-4.1058,-4.1061,-4.1085,-4.1101,-4.1108,-4.1097,-4.1101,-4.1101,-4.1107,-4.1093,-4.1092,-4.1091,-4.1107,-4.1091,-4.1104,-4.1074,-4.1042,-4.1011,-4.0987,-4.0996,-4.0999,-4.1,-4.0994,-4.0991,-4.1003,-4.1032,-4.105,-4.105,-4.1104,-4.166,-4.1933,-4.195,-4.2253,-4.2241,-4.1911,-4.1365,-4.1105,-4.1108,-4.1104,-4.1104,-4.1104,-4.1101,-4.1097,-4.1097,-4.1097,-4.1094,-4.1105,-4.1105,-4.11,-4.1096,-4.1094,-4.1094,-4.1105,-4.1105,-4.11,-4.1091,-4.1111,-4.1106,-4.1106,-4.11,-4.11,-4.11,-4.1075,-4.105,-4.105,-4.1064,-4.0635,-4.0382,-4.0947,-4.0623,-4.0377,-4.087,-4.0953,-4.0964,-4.096,-4.0935,-4.1014,-4.1257,-4.1063,-4.0907,-4.0954,-4.0897,-4.0859,-4.0868,-4.0837,-4.0815,-4.0773,-4.0742,-4.0738,-4.0732,-4.0707,-4.0662,-4.0629,-4.0629,-4.0629,-4.0629,-4.064,-4.0598,-4.053,-4.0523,-4.0492,-4.0425,-4.0408,-4.1006,-3.9463,-4.0075,-4.0725,-4.0776,-4.0848,-4.0888,-4.0898,-4.0963,-4.0996,-4.0999,-4.1045,-4.1096,0.0,0.0,-4.1108,-4.1108,-4.1108,-4.1097,-4.1108,-4.111,-4.1091,-4.1094,0.0,-4.1093,-4.1093,-4.1091,-4.1072,-4.1006,-4.1007,-4.1,-4.1,-4.1015,-4.1027,-4.1097,-4.1094,-4.1099,-4.1108,-4.1107,-4.1108,-4.1108,-4.1947,-4.1908,-4.1108,-4.1108,-4.1108,-4.1108,-4.1097,-4.1094,-4.109,-4.11,-4.1091,-4.1091,-4.1091,-4.1091,-4.1091,-4.1091,-4.1091,-4.1091,-4.1091,-4.1091,-4.1091,-4.1091,-4.1091,-4.1111,-4.1095,-4.1095,-4.1089,-4.1091,-4.1085,-4.1085,-4.1013,-4.1006,-4.0979,-4.0996,-4.0996,-4.0988,-4.0988,-4.0988,-4.0968,-4.0904,-4.0943,-4.0965,-4.1014,-4.0936,-4.1102,-4.1874,-4.1242,-4.0738,-4.0867,-4.0837,-4.0784,-4.0788,-4.0725,-4.0681,-4.0681,-4.0629,-4.0588,-4.0588,-4.0534,-4.0489,-4.0489,-4.0489,-4.0489,-4.0489,-4.0489,-4.0457,-4.0389,-4.0394,-4.0362,-4.0289,-4.0272,-4.1132,-3.9251,-4.0056,-4.0726,-4.0769,-4.0812,-4.0823,-4.0818,-4.0868,-4.0927,-4.0935,-4.0976,-4.1039,-4.1031,-4.1075,-4.1095,-4.1095,-4.1109,-4.1091,-4.1097,-4.1097,0.0,-4.1099,0.0,-4.1103,-4.1103,-4.1094,-4.1099,-4.1074,-4.1069,-4.1062,-4.1068,-4.1062,-4.1082,-4.1107,-4.1091,-4.1094,-4.1092,-4.1094,-4.1109,-4.1096,-4.1335,-4.1319,-4.1105,-4.1105,-4.1105,-4.1105,-4.11,-4.11,-4.11,-4.1096,-4.1091,-4.1091,-4.1091,-4.1106,-4.11,-4.11,-4.1095,-4.1078,-4.1033,-4.1064,-4.11,-4.11,-4.1089,-4.1097,-4.1046,-4.102,-4.1039,-4.1038,-4.103,-4.103,-4.1003,-4.0957,-4.0921,-4.0932,-4.0924,-4.0926,-4.0926,-4.0888,-4.0849,-4.0829,-4.1311,-4.1904,-4.2512,-4.2047,-4.1658,-4.1827,-4.1104,-4.0607,-4.0738,-4.0681,-4.0642,-4.0648,-4.0593,-4.0549,-4.0549,-4.0534,-4.0504,-4.046,-4.0427,-4.0394,-4.0288,-4.0288,-4.0288,-4.0288,-4.0288,-4.027,-4.0253,-4.0253,-4.0234,-4.0176,-4.0747,-4.1604,-3.8581,-3.9476,-4.0223,-4.0642,-4.0784,-4.0808,-4.0804,-4.0834,-4.0856,-4.0868,-4.0917,-4.0952,-4.0957,-4.1003,-4.105,0.0,0.0,0.0,-4.1094,-4.1094,-4.1094,0.0,-4.1094,0.0,-4.1101,-4.1109,-4.1105,-4.1094,-4.1103,-4.1091,-4.1108,-4.1105,-4.1101,-4.1101,-4.1101,-4.1099,-4.1108,-4.1094,-4.1096,-4.1106,-4.1091,-4.1091,-4.1091,-4.1091,-4.1091,-4.1091,-4.1106,-4.1106,-4.1106,-4.11,-4.1095,-4.1095,-4.107,-4.1064,-4.1058,-4.1065,-4.1059,-4.1045,-4.1018,-4.1006,-4.1013,-4.1039,-4.1059,-4.1045,-4.1018,-4.0991,-4.0957,-4.0968,-4.0952,-4.0963,-4.0954,-4.0917,-4.0859,-4.0859,-4.0839,-4.0818,-4.0818,-4.0787,-4.0851,-4.1209,-4.1917,-4.2695,-4.3497,-4.2941,-4.2351,-4.2299,-4.1539,-4.0864,-4.0554,-4.0515,-4.05,-4.0519,-4.0457,-4.0392,-4.0375,-4.0377,-4.0342,-4.0308,-4.029,-4.0234,-4.0158,-4.0158,-4.0158,-4.0158,-4.0158,-4.0157,-4.0157,-4.0137,-4.0098,-4.0076,-4.0891,-4.1705,-3.7987,-3.8742,-3.9444,-4.0301,-4.0494,-4.0455,-4.0459,-4.0537,-4.0626,-4.0621,-4.0761,-4.0888,-4.0907,-4.0946,-4.0993,-4.1,0.0,-4.1097,-4.1106,-4.1091,-4.1091,-4.1091,-4.1091,-4.1096,-4.1109,-4.1105,-4.11,-4.1096,-4.1094,-4.1104,-4.1108,-4.1109,-4.1096,-4.1091,-4.1091,-4.1111,-4.11,-4.1106,-4.1091,-4.1106,-4.1106,-4.1106,-4.1106,-4.1106,-4.1106,-4.1086,-4.0978,-4.0939,-4.0933,-4.0922,-4.0916,-4.0929,-4.0974,-4.1006,-4.0999,-4.0996,-4.0988,-4.0988,-4.0988,-4.0952,-4.0896,-4.096,-4.0988,-4.0988,-4.098,-4.0924,-4.0876,-4.0887,-4.0869,-4.0859,-4.0877,-4.0826,-4.0784,-4.0788,-4.0732,-4.0681,-4.0668,-4.0765,-4.1106,-4.2024,-4.2717,-4.3419,-4.421,-4.3673,-4.3098,-4.3043,-4.2202,-4.1284,-4.0519,-4.0398,-4.0375,-4.036,-4.0307,-4.0252,-4.0196,-4.0196,-4.0176,-4.0176,-4.0137,-4.0077,-4.0057,-4.0057,-4.0057,-4.0057,-4.0057,-4.0057,-4.0057,-4.0015,-3.9975,-3.9994,-4.0937,-4.173,-3.8667,-3.8728,-3.8537,-3.9412,-3.9141,-3.8644,-3.8644,-3.9216,0.0,-3.9735,-4.0316,-4.0843,-4.0888,-4.0946,-4.0993,-4.1,-4.1071,-4.1091,-4.1097,-4.11,-4.1091,0.0,-4.1091,-4.1096,-4.1109,-4.1091,-4.1106,-4.1091,-4.1091,-4.1105,-4.1108,-4.1094,-4.11,-4.1096,-4.1091,-4.1106,-4.1095,-4.11,-4.1089,-4.1097,-4.1097,-4.1097,-4.1097,-4.1097,-4.1097,-4.1058,-4.0337,-4.0025,-4.0025,-4.0039,-3.9994,-4.002,-4.0714,-4.0999,-4.0996,-4.0941,-4.0913,-4.0924,-4.0917,-4.0868,-4.0819,-4.0896,-4.0915,-4.0917,-4.0849,-4.0839,-4.0798,-4.0754,-4.073,-4.073,-4.0718,-4.0732,-4.0694,-4.0648,-4.0626,-4.0598,-4.0549,-4.1062,-4.1975,-4.3518,-4.3903,-4.4231,-4.4976,-4.4401,-4.3787,-4.3666,-4.2347,-4.1298,-4.1146,-4.0616,-4.0234,-4.0215,-4.0177,-4.0118,-4.0118,-4.0137,-4.0077,-4.0057,-4.0017,-3.9975,-3.9933,-3.9933,-3.9933,-3.9933,-3.9933,-3.9933,-3.9933,-3.9911,-3.9911,-3.9949,-4.1484,-4.228,-3.7599,-3.7698,-3.7623,-3.8511,-3.8459,-3.8194,-3.8187,0.0,0.0,-3.8814,-3.9178,-3.9526,-3.9596,-4.0005,0.0,-4.0312,-4.0753,-4.111,-4.111,-4.1103,-4.1089,-4.1089,-4.1089,-4.1095,-4.11,-4.1109,-4.1103,-4.1089,-4.1109,-4.11,-4.109,-4.11,-4.1111,-4.1095,-4.1089,-4.1109,-4.1103,-4.1103,-4.1097,-4.111,-4.111,-4.111,-4.111,-4.111,-4.0831,-4.0357,-3.9929,-3.9494,-3.9078,-3.9078,-3.9052,-3.9103,-3.9937,-4.0271,-4.0313,-4.0704,-4.0859,-4.0839,-4.0846,-4.0792,-4.0738,-4.0784,-4.0807,-4.0796,-4.0754,-4.075,-4.0745,-4.072,-4.0662,-4.0654,-4.0654,-4.0612,-4.0534,-4.05,-4.0854,-4.1152,-4.1135,-4.2082,-4.3196,-4.3982,-4.446,-4.484,-4.5199,-4.487,-4.4407,-4.3888,-4.3121,-4.23,-4.1426,-4.0969,-4.0551,-4.0136,-4.0077,-4.0036,-3.9994,-3.9994,-3.9975,-3.9954,-3.9933,-3.987,-3.9848,-3.9804,-3.98,-3.98,-3.9826,-3.9867,-3.9867,-3.9889,-3.9889,-3.9927,-4.12,-4.1787,-3.6488,-3.6612,-3.6729,-3.7598,-3.772,-3.766,-3.7665,-3.7812,0.0,-3.7943,-3.8133,-3.8334,-3.8391,-3.8976,-3.9435,0.0,-4.0052,-4.0545,-4.0545,-4.0545,-4.0604,0.0,-4.0818,0.0,-4.1091,-4.111,-4.111,-4.111,-4.111,-4.1097,-4.1106,-4.11,-4.1109,-4.111,-4.111,-4.1085,-4.1085,-4.1085,-4.1085,-4.1078,-4.1078,-4.1078,-4.1078,-4.1078,-4.0565,-3.9694,-3.95,-3.8928,-3.8143,-3.8143,-3.8135,-3.8198,-3.9021,-3.9441,-3.9656,-4.0283,-4.0637,-4.0776,-4.0764,-4.0726,-4.0673,-4.0673,-4.0668,-4.0675,-4.0655,-4.0648,-4.0646,-4.0646,-4.0588,-4.0562,-4.0562,-4.0476,-4.0408,-4.0372,-4.1029,-4.1702,-4.1894,-4.3044,-4.4114,-4.4306,-4.4777,-4.5113,-4.4941,-4.4859,-4.4585,-4.3878,-4.3627,-4.3012,-4.1702,-4.1336,-4.09,-4.007,-3.9975,-3.9954,-3.9911,-3.9889,-3.9889,-3.9889,-3.9826,-3.9804,-3.9781,-3.9735,-3.9689,-3.9689,-3.9758,-3.9781,-3.9781,-3.9826,-3.9867,-3.9886,-4.0757,-4.1154,-3.6488,-3.6169,-3.5824,-3.6698,-3.6369,-3.5844,-3.5916,0.0,-3.711,-3.7121,-3.779,-3.8393,-3.8403,-3.8521,-3.8617,-3.8604,0.0,-3.8733,-3.8733,-3.8733,-3.9026,-3.9825,0.0,0.0,-4.1013,-4.111,-4.111,-4.111,-4.111,-4.1091,-4.1091,-4.1091,-4.1091,-4.111,-4.111,-4.1065,-4.1013,-4.1013,-4.0999,-4.1023,-4.1023,-4.1023,-4.1023,-4.1023,-4.0529,-3.9653,-3.8855,-3.8058,-3.7306,-3.7306,-3.7265,-3.7303,-3.8169,-3.8928,-3.9514,-3.9596,-4.0082,-4.07,-4.0635,-4.0612,-4.0588,-4.0539,-4.0554,-4.0603,-4.0554,-4.0489,-4.0441,-4.043,-4.0413,-4.0432,-4.0432,-4.0396,-4.0379,-4.0325,-4.0939,-4.1743,-4.2527,-4.3326,-4.4143,-4.4946,-4.5113,-4.4874,-4.4064,-4.3931,-4.387,-4.3725,-4.3038,-4.2469,-4.2318,-4.1654,-4.0877,-4.0006,-3.9911,-3.9911,-3.9889,-3.9889,-3.9867,-3.9804,-3.9804,-3.9781,-3.9712,-3.9689,-3.9689,-3.9689,-3.9712,-3.9712,-3.9712,-3.9712,-3.9712,-3.9731,-4.0599,-4.1038,-3.5892,-3.5738,-3.5592,-3.5991,-3.5835,-3.5631,-3.5676,0.0,-3.6241,-3.6261,-3.6581,-3.6842,-3.689,-3.7357,-3.7726,-3.772,0.0,0.0,-3.85,-3.85,-3.8636,-3.8987,-3.9468,-3.9935,-4.0286,-4.0792,-4.1091,-4.1033,-4.1039,-4.1045,-4.1038,-4.1078,-4.1085,-4.1039,-4.1039,-4.1025,-4.1011,-4.1011,-4.1003,-4.0996,-4.0996,-4.0996,-4.0976,-4.047,-3.9743,-3.8879,-3.8004,-3.7133,-3.6351,-3.6351,-3.6326,-3.6338,-3.7172,-3.7683,-3.8052,-3.9071,-3.9617,-3.9928,-4.0376,-4.0508,-4.0482,-4.0447,-4.0427,-4.0411,-4.0447,-4.0411,-4.0394,-4.0396,-4.0362,-4.0325,-4.0325,-4.0345,-4.0346,-4.0309,-4.1265,-4.2314,-4.2657,-4.3721,-4.4706,-4.5071,-4.4703,-4.4197,-4.3852,-4.3335,-4.3118,-4.3625,-4.3398,-4.3,-4.2469,-4.2105,-4.1344,-3.9977,-3.9826,-3.9826,-3.9826,-3.9804,-3.9758,-3.9735,-3.9731,-3.9746,-3.9698,-3.9656,-3.9631,-3.9631,-3.9679,-3.9698,-3.9698,-3.9708,-3.9689,-3.9708,-4.0071,-4.0222,-3.5534,-3.5534,-3.5534,-3.5586,-3.5596,-3.5623,0.0,0.0,-3.5747,-3.5785,-3.5823,-3.5832,-3.5888,-3.6391,-3.683,-3.683,0.0,-3.7726,-3.772,-3.774,-3.7837,-3.8071,-3.8656,-3.9137,-3.939,-3.9974,-4.0305,-4.0253,-4.0473,-4.0607,-4.0621,-4.0894,-4.1045,-4.0999,-4.0999,-4.1011,-4.1007,-4.1007,-4.098,-4.098,-4.0727,-4.063,-4.0582,-3.9715,-3.8844,-3.7991,-3.737,-3.6587,-3.5757,-3.5757,-3.5728,-3.5715,-3.6273,-3.6644,-3.7,-3.8439,-3.9076,-3.9362,-4.0188,-4.0447,-4.0398,-4.0379,-4.0325,-4.0307,-4.0363,-4.0363,-4.0363,-4.0363,-4.0345,-4.0308,-4.0308,-4.0291,-4.0291,-4.0291,-4.1322,-4.2368,-4.2616,-4.3754,-4.4794,-4.5023,-4.4368,-4.3696,-4.343,-4.2644,-4.2337,-4.3189,-4.3298,-4.3071,-4.2465,-4.2323,-4.1633,-3.9951,-3.9777,-3.9777,-3.9781,-3.9735,-3.9708,-3.9684,-3.9698,-3.9693,-3.9669,-3.9645,-3.9602,-3.9602,-3.9645,-3.9669,-3.9669,-3.9679,-3.9661,-3.9661,-3.9661,-3.9661,-3.5591,-3.5598,-3.5598,-3.5596,-3.5593,-3.5618,0.0,0.0,-3.5801,-3.5794,-3.5854,-3.591,-3.5904,-3.5905,-3.5908,-3.5908,-3.5928,0.0,-3.5928,-3.5928,-3.624,0.0,-3.7219,-3.757,-3.8427,-3.8519,-3.8533,-3.8529,-3.9268,-3.9699,-3.9713,-4.0526,-4.0999,-4.0996,-4.0996,-4.1007,-4.101,-4.101,-4.0974,-4.0888,-4.0092,-3.9703,-3.9684,-3.881,-3.7946,-3.7104,-3.7104,-3.6571,-3.5707,-3.5707,-3.5657,-3.5601,-3.5526,-3.5997,-3.6801,-3.7621,-3.8415,-3.9227,-4.0109,-4.0415,-4.0379,-4.0325,-4.0307,-4.0289,-4.031,-4.031,-4.031,-4.031,-4.031,-4.031,-4.031,-4.031,-4.0272,-4.0234,-4.0825,-4.1625,-4.2441,-4.3232,-4.4041,-4.4839,-4.4298,-4.3436,-4.2564,-4.1749,-4.1503,-4.2299,-4.2361,-4.2319,-4.23,-4.2252,-4.1561,-3.9878,-3.9679,-3.9698,-3.9689,-3.9689,-3.9684,-3.9693,-3.9693,-3.9669,-3.9602,-3.9602,-3.9602,-3.9602,-3.9602,-3.9602,-3.9602,-3.9602,-3.9602,-3.9602,-3.9602,-3.9602,-3.56,-3.5629,-3.5667,-3.5658,-3.5679,-3.5699,-3.5756,0.0,-3.5799,-3.5862,-3.5884,-3.5905,-3.5898,-3.5897,-3.5908,-3.5908,-3.5908,-3.5908,0.0,0.0,0.0,-3.6279,-3.6844,-3.7545,-3.8422,-3.8501,-3.8481,-3.8432,-3.8669,-3.8808,-3.8818,-3.9634,-4.039,-4.0971,-4.0999,-4.0982,-4.0917,-4.0917,-4.0645,-4.0072,-3.982,-3.9392,-3.8771,-3.7898,-3.7365,-3.7065,-3.6426,-3.595,-3.5637,-3.5574,-3.5546,-3.5509,-3.5463,-3.5561,-3.5844,-3.6692,-3.7504,-3.8333,-3.9195,-3.9867,-4.0328,-4.031,-4.0291,-4.031,-4.031,-4.031,-4.031,-4.031,-4.031,-4.031,-4.031,-4.0253,-4.0234,-4.0196,-4.0784,-4.1388,-4.1673,-4.2784,-4.3801,-4.4047,-4.3421,-4.2716,-4.245,-4.1256,-4.0779,-4.2134,-4.2319,-4.2276,-4.2252,-4.2178,-4.1506,-3.9868,-3.965,-3.965,-3.9698,-3.9674,-3.9626,-3.9645,-3.9645,-3.9602,-3.9602,-3.9602,-3.9602,-3.9602,-3.9602,-3.9602,-3.9602,-3.9602,-3.9602,-3.9602,-3.9602,-3.9602,0.0,-3.5224,-3.5321,-3.5621,-3.5727,0.0,0.0,-3.5815,-3.585,-3.5896,-3.5898,-3.5905,-3.5908,-3.5928,-3.5928,-3.5908,-3.5908,-3.5908,-3.5908,0.0,0.0,-3.5908,-3.6376,-3.6921,-3.7467,-3.7514,-3.7495,-3.7454,-3.7736,-3.7914,-3.7902,-3.8741,-3.946,-3.9991,-4.0624,-4.0945,-4.0907,-4.0597,-4.0208,-3.9684,-3.9034,-3.8432,-3.7888,-3.6978,-3.6571,-3.6503,-3.588,-3.5593,0.0,-3.5496,-3.5463,-3.5412,-3.5383,-3.5354,-3.54,-3.6246,-3.7072,-3.7898,-3.8759,-3.9603,-4.031,-4.031,-4.031,-4.031,-4.031,-4.031,-4.031,-4.031,-4.031,-4.031,-4.031,-4.0253,-4.0196,-4.0176,-4.0496,-4.0889,-4.1209,-4.2056,-4.2943,-4.3587,-4.3,-4.2507,-4.2829,-4.1749,-4.1291,-4.2583,-4.2786,-4.2605,-4.2215,-4.2102,-4.1449,-3.9838,-3.9602,-3.962,-3.9669,-3.9602,-3.9602,-3.9602,-3.9602,-3.9602,-3.9602,-3.9602,-3.9602,-3.9602,-3.9602,-3.9602,-3.9602,-3.9602,-3.9602,-3.9602,-3.9602,-3.9602,0.0,-3.438,-3.4622,-3.5426,-3.5676,0.0,0.0,0.0,0.0,-3.5893,-3.5905,-3.5889,-3.5914,-3.5953,-3.5972,-3.5914,-3.5914,-3.5908,-3.5908,-3.5908,-3.5908,-3.5908,-3.5908,-3.5908,-3.5908,-3.5908,-3.5903,-3.5898,-3.6538,-3.695,-3.7004,-3.7778,-3.8244,-3.8319,-3.9868,-4.0713,-4.0713,-3.9975,-3.9587,-3.95,-3.787,-3.7065,-3.6968,-3.6096,-3.5667,-3.5596,-3.5538,-3.5502,-3.5493,-3.5412,-3.5364,-3.53,-3.5273,-3.5277,-3.5372,-3.6126,-3.6929,-3.7731,-3.861,-3.9489,-4.0234,-4.0291,-4.031,-4.031,-4.031,-4.031,-4.0291,-4.0291,-4.0291,-4.0291,-4.0291,-4.0234,-4.0176,-4.0117,-4.0036,-4.0203,-4.1029,-4.1237,-4.1768,-4.3398,-4.3057,-4.2754,-4.3549,-4.2981,-4.265,-4.3472,-4.353,-4.317,-4.2309,-4.2081,-4.1417,-3.984,-3.9639,-3.9602,-3.9602,-3.9602,-3.9602,-3.9602,-3.9602,-3.9602,-3.9602,-3.9602,-3.9602,-3.9602,-3.9602,-3.9602,-3.9602,-3.9596,-3.9577,-3.9577,-3.9577,-3.9614,-3.235,0.0,-3.3782,-3.4629,-3.4866,-3.5069,0.0,0.0,0.0,0.0,0.0,0.0,-3.5974,-3.5981,-3.5981,-3.5981,-3.5973,-3.5967,-3.5908,-3.5908,-3.5908,-3.5908,-3.5908,-3.5908,-3.5908,-3.5908,-3.5903,-3.5905,-3.5457,-3.5482,-3.6151,-3.6336,-3.6717,-3.7386,-3.843,-3.8984,-3.8984,-3.879,-3.8373,-3.7714,-3.7307,-3.6716,-3.6018,-3.5755,-3.5585,-3.5519,-3.5502,-3.5468,-3.5412,-3.5339,-3.5308,-3.5293,-3.5242,-3.5226,-3.5264,-3.5439,-3.605,-3.691,-3.7712,-3.8572,-3.9431,-4.0081,-4.031,-4.031,-4.031,-4.0253,-4.0215,-4.0215,-4.0176,-4.0137,-4.0137,-4.0098,-4.0038,-4.0036,-3.9975,-4.0157,-4.1029,-4.1692,-4.2431,-4.3493,-4.3531,-4.3431,-4.3591,-4.291,-4.2578,-4.3321,-4.3446,-4.3344,-4.3039,-4.2412,-4.1623,-4.0609,-3.9952,-3.9602,-3.9602,-3.9602,-3.9602,-3.9602,-3.9602,-3.9602,-3.9602,-3.9602,-3.9602,-3.9602,-3.9602,-3.9602,-3.9602,-3.9546,-3.952,-3.952,-3.952,-3.9839,-3.1323,-3.2052,-3.3012,-3.427,-3.4593,-3.4827,0.0,0.0,0.0,0.0,0.0,0.0,0.0,0.0,0.0,-3.5991,-3.5997,-3.5977,-3.5914,-3.5894,-3.5894,-3.5889,-3.5908,-3.5908,-3.5908,-3.5538,-3.5299,-3.5293,-3.4508,-3.4205,-3.4685,-3.5048,-3.5461,-3.5942,-3.6778,-3.7568,-3.8354,-3.7985,-3.754,-3.7055,-3.6619,-3.6144,-3.5648,-3.557,-3.554,-3.5502,-3.5427,-3.5388,-3.5354,-3.5293,-3.5242,-3.5261,-3.5212,-3.5212,-3.5209,-3.5196,-3.5747,-3.6566,-3.7005,-3.796,-3.9145,-4.0024,-4.0272,-4.0253,-4.0253,-4.0176,-4.0118,-4.0176,-4.0157,-4.0117,-4.0117,-4.0057,-3.9996,-3.9996,-4.0257,-4.0631,-4.1105,-4.1844,-4.2659,-4.3531,-4.3677,-4.3767,-4.4096,-4.3731,-4.3523,-4.389,-4.3966,-4.3807,-4.3351,-4.2543,-4.1698,-4.0891,-4.0065,-3.9602,-3.9602,-3.9602,-3.9602,-3.9602,-3.9571,-3.9571,-3.9571,-3.9571,-3.9571,-3.9602,-3.9571,-3.9571,-3.9571,-3.9495,-3.9444,-3.9444,-3.9444,-3.99,-3.0808,-3.13,-3.2233,-3.3984,-3.4516,-3.4847,0.0,0.0,0.0,0.0,0.0,0.0,0.0,-3.5991,0.0,0.0,0.0,-3.5981,-3.5929,-3.5929,-3.5909,-3.5894,-3.5894,-3.5855,-3.5713,-3.5026,-3.4539,-3.4428,-3.3609,-3.3175,-3.3295,-3.3868,-3.4321,-3.4588,-3.5255,-3.6347,-3.787,-3.7211,-3.6852,-3.6784,-3.5977,-3.5596,-3.5574,-3.5541,-3.5493,-3.5446,-3.5358,-3.5293,-3.5277,-3.5226,-3.5209,-3.5209,-3.5198,-3.5198,-3.5193,-3.5181,-3.5656,-3.6339,-3.6587,-3.7712,-3.9145,-3.9986,-4.0253,-4.0196,-4.0196,-4.0098,-4.0017,-4.0157,-4.0118,-4.0057,-4.0057,-4.0036,-3.9975,-3.9975,-4.0596,-4.1237,-4.137,-4.2033,-4.2848,-4.372,-4.3842,-4.4001,-4.4657,-4.4738,-4.4659,-4.4578,-4.4578,-4.4307,-4.3576,-4.2618,-4.1755,-4.106,-4.014,-3.9602,-3.9602,-3.9602,-3.9596,-3.9596,-3.952,-3.9495,-3.9495,-3.9469,-3.952,-3.9571,-3.952,-3.9469,-3.9469,-3.9418,-3.9373,-3.9373,-3.9373,-3.9904,-3.079,-3.0888,-3.141,-3.3142,-3.4145,-3.4891,0.0,0.0,0.0,0.0,0.0,0.0,0.0,-3.5991,-3.5991,0.0,-3.5991,-3.5991,-3.5985,-3.5974,-3.5958,-3.5909,-3.5904,-3.5607,-3.487,-3.4681,-3.4311,-3.3629,-3.2776,-3.2572,-3.3256,-3.2733,-3.3038,-3.4474,-3.4637,-3.5117,-3.6016,-3.594,-3.5882,-3.5811,-3.5662,-3.5565,-3.5515,-3.5488,-3.5451,-3.5343,-3.5312,-3.5261,-3.5209,-3.5209,-3.5209,-3.5209,-3.5198,-3.52,-3.5181,-3.5147,-3.5242,-3.5598,-3.7007,-3.8171,-3.9145,-3.9948,-4.0196,-4.0196,-4.0137,-4.0057,-3.9996,-4.0017,-3.9975,-3.9933,-3.9933,-3.9911,-3.9911,-3.9911,-4.0574,-4.1389,-4.2071,-4.2886,-4.3739,-4.4554,-4.4675,-4.4638,-4.47,-4.4659,-4.4578,-4.4542,-4.4515,-4.4458,-4.4346,-4.2975,-4.1935,-4.1849,-4.0478,-3.9602,-3.9602,-3.9602,-3.9571,-3.952,-3.9495,-3.9469,-3.9418,-3.9418,-3.9418,-3.9444,-3.9418,-3.9418,-3.9418,-3.9301,-3.9229,-3.9229,-3.9229,-4.0057,-3.0798,-3.1149,-3.1808,-3.3087,-3.3696,-3.4343,-3.5661,0.0,0.0,0.0,0.0,0.0,0.0,0.0,-3.5991,-3.5991,-3.5991,-3.5991,-3.5991,-3.6004,-3.5994,-3.5962,-3.5544,-3.5086,-3.4681,-3.3804,-3.3103,-3.2737,-3.1895,-3.1559,-3.1932,-3.198,-3.2338,-3.3118,-3.3981,-3.4614,-3.4949,-3.538,-3.5601,-3.5601,-3.556,-3.5528,-3.5493,-3.5417,-3.5358,-3.5312,-3.5261,-3.5226,-3.5209,-3.5209,-3.5209,-3.5193,-3.5145,-3.5183,-3.52,-3.5129,-3.5129,-3.5318,-3.6517,-3.7507,-3.8366,-3.9185,-3.9737,-4.0098,-4.0057,-3.9996,-3.9954,-3.9954,-3.9933,-3.9889,-3.9889,-3.9889,-4.0003,-4.0498,-4.1256,-4.2067,-4.2877,-4.371,-4.4386,-4.4739,-4.4738,-4.4685,-4.4659,-4.4578,-4.4542,-4.4496,-4.4515,-4.4515,-4.4515,-4.305,-4.1991,-4.1991,-4.0553,-3.9596,-3.9546,-3.9546,-3.952,-3.9444,-3.9373,-3.9328,-3.9301,-3.9301,-3.9346,-3.9391,-3.9328,-3.9301,-3.9301,-3.9183,-3.9156,-3.9175,-3.964,-4.0524,-3.0804,-3.1292,-3.1994,-3.2872,0.0,-3.4117,-3.5654,0.0,0.0,0.0,0.0,0.0,0.0,-3.5991,-3.5991,-3.5991,-3.5991,-3.5991,-3.5991,-3.5818,-3.5695,-3.5697,-3.4928,-3.4315,-3.4111,-3.2869,-3.2012,-3.1807,-3.1174,-3.0794,-3.0778,-3.1364,-3.1787,-3.1977,-3.3151,-3.3877,-3.4069,-3.482,-3.5323,-3.5566,-3.5501,-3.5479,-3.5465,-3.5358,-3.5277,-3.5258,-3.5015,-3.4923,-3.4923,-3.4923,-3.4923,-3.4909,-3.5051,-3.511,-3.5129,-3.5092,-3.5075,-3.5189,-3.6025,-3.6881,-3.7738,-3.8556,-3.9334,-3.9996,-3.9975,-3.9933,-3.9889,-3.9889,-3.9889,-3.9889,-3.9889,-3.9889,-4.0116,-4.0991,-4.1825,-4.2617,-4.3415,-4.4077,-4.4487,-4.4436,-4.4357,-4.4323,-4.4323,-4.4438,-4.4515,-4.4515,-4.4515,-4.4515,-4.4515,-4.305,-4.1991,-4.1991,-4.0553,-3.9571,-3.9495,-3.9469,-3.9399,-3.9373,-3.9229,-3.9183,-3.9183,-3.9183,-3.9229,-3.932,-3.9229,-3.9295,-3.9481,-3.9426,-3.9491,-3.9695,-4.0364,-4.1136,-3.0799,-3.0858,-3.1092,-3.1973,0.0,0.0,-3.5791,-3.6001,0.0,0.0,0.0,0.0,0.0,-3.5991,-3.5991,-3.5991,-3.5991,-3.5991,-3.5991,-3.5291,-3.4781,-3.4791,-3.4027,-3.3181,-3.2381,-3.2162,-3.1763,-3.0942,-3.0843,-3.0759,-3.0703,-3.0756,-3.1142,-3.1878,-3.1961,-3.2357,-3.3095,-3.3889,-3.47,-3.5507,-3.5446,-3.5369,-3.5308,-3.5293,-3.5261,-3.5171,-3.4407,-3.4082,-3.4082,-3.4082,-3.4047,-3.4075,-3.4805,-3.502,-3.4927,-3.4983,-3.5001,-3.5134,-3.6007,-3.6881,-3.7719,-3.8535,-3.9332,-3.9996,-3.9933,-3.9911,-3.9889,-3.9889,-3.9889,-3.9889,-3.9889,-3.9889,-4.0116,-4.0991,-4.1825,-4.2617,-4.3415,-4.3642,-4.368,-4.3605,-4.3528,-4.3476,-4.3476,-4.4062,-4.4515,-4.4515,-4.4515,-4.4515,-4.4515,-4.305,-4.1991,-4.1991,-4.0553,-3.9571,-3.9495,-3.9328,-3.921,-3.921,-3.9156,-3.9101,-3.9101,-3.9101,-3.9101,-3.9129,-3.9101,-3.9491,-4.029,-4.029,-4.068,-4.1423,-4.1479,-4.1943,-3.0858,-3.0841,-3.1016,-3.1875,0.0,0.0,0.0,0.0,0.0,0.0,-3.6005,0.0,0.0,0.0,-3.6009,-3.5996,-3.5542,-3.5191,-3.5191,-3.4449,-3.3883,-3.388,-3.3119,-3.2449,-3.2131,-3.1609,-3.1144,-3.0823,-3.0794,-3.0773,-3.0698,-3.0697,-3.0816,-3.107,-3.1555,-3.1939,-3.2193,-3.3525,-3.4334,-3.4639,-3.5096,-3.532,-3.5312,-3.5261,-3.4958,-3.4445,-3.412,-3.3681,-3.3203,-3.3134,-3.3099,-3.3122,-3.3382,-3.3427,-3.3411,-3.3979,-3.4206,-3.4319,-3.5154,-3.5989,-3.6862,-3.7677,-3.8512,-3.929,-3.9759,-3.9889,-3.9889,-3.9889,-3.9889,-3.9889,-3.9889,-3.9889,-4.0252,-4.1635,-4.2139,-4.2697,-4.4008,-4.424,-4.4037,-4.3495,-4.3743,-4.395,-4.3423,-4.397,-4.4515,-4.4515,-4.4515,-4.4515,-4.4515,-4.352,-4.26,-4.2074,-4.0476,-3.9425,-3.9328,-3.9202,-3.9129,-3.9129,-3.9129,-3.9101,-3.9101,-3.9101,-3.9101,-3.9101,-3.9101,-3.9528,-4.0401,-4.0401,-4.081,-4.1609,-4.211,-4.25,-3.088,-3.086,-3.0938,0.0,0.0,0.0,0.0,0.0,0.0,0.0,-3.5776,0.0,-3.5234,0.0,-3.5175,-3.5187,-3.4676,-3.4285,-3.4285,-3.3543,-3.2992,-3.2982,-3.2218,-3.1688,-3.1698,-3.1157,-3.0784,-3.0759,-3.0767,-3.0749,-3.0703,-3.0688,-3.0649,-3.0598,-3.109,-3.1337,-3.1284,-3.2692,-3.3378,-3.3319,-3.4122,-3.4634,-3.4891,-3.4557,-3.412,-3.3586,-3.3318,-3.2879,-3.231,-3.2256,-3.2527,-3.2988,-3.2659,-3.28,-3.3258,-3.3599,-3.3884,-3.415,-3.4718,-3.5476,-3.6329,-3.7125,-3.7978,-3.885,-3.9665,-3.9889,-3.9889,-3.9889,-3.9889,-3.9889,-3.9889,-3.9889,-4.0306,-4.2014,-4.2347,-4.2772,-4.4386,-4.4478,-4.406,-4.3461,-4.3772,-4.3951,-4.3388,-4.397,-4.4515,-4.4515,-4.4515,-4.4515,-4.4515,-4.3801,-4.2862,-4.1755,-4.03,-3.9373,-3.9256,-3.9183,-3.9129,-3.9101,-3.9101,-3.9101,-3.9101,-3.9361,-3.951,-3.951,-3.9751,-4.0308,-4.1144,-4.1144,-4.1571,-4.237,-4.2927,-4.3188,-3.088,-3.086,-3.0801,0.0,0.0,0.0,0.0,0.0,0.0,-3.5796,-3.5288,-3.4414,-3.3555,-3.3398,-3.3398,-3.3398,-3.3398,-3.3398,-3.3398,-3.2637,-3.2088,-3.2098,-3.1328,-3.0794,-3.0802,-3.0794,-3.0773,-3.0703,-3.0691,-3.0683,-3.07,-3.0634,-3.0598,-3.0598,-3.046,-3.0398,-3.0398,-3.1268,-3.1674,-3.1597,-3.2415,-3.3197,-3.3953,-3.3085,-3.2691,-3.2634,-3.1847,-3.1503,-3.1484,-3.1427,-3.2371,-3.3789,-3.2923,-3.3574,-3.4887,-3.409,-3.4244,-3.4889,-3.4908,-3.5457,-3.631,-3.7125,-3.7978,-3.8831,-3.9665,-3.9889,-3.9889,-3.9889,-3.9889,-3.9889,-3.9889,-3.9889,-4.0306,-4.2014,-4.2412,-4.2844,-4.4436,-4.4121,-4.3504,-4.3408,-4.3348,-4.3313,-4.3294,-4.397,-4.4515,-4.4515,-4.4515,-4.4515,-4.4515,-4.3782,-4.2656,-4.1004,-4.0052,-3.9488,-3.9436,-3.9293,-3.9202,-3.912,-3.912,-3.912,-3.9101,-3.9937,-4.0401,-4.0401,-4.1181,-4.1999,-4.2797,-4.2797,-4.3206,-4.4005,-4.4005,-4.4005,-3.0882,-3.0899,0.0,0.0,0.0,0.0,0.0,0.0,0.0,0.0,-3.3968,-3.3701,-3.3447,-3.3408,-3.3408,-3.3408,-3.2887,-3.2498,-3.2498,-3.1747,-3.1187,-3.1191,-3.0962,-3.0808,-3.0794,-3.0759,-3.0716,-3.0691,-3.0127,-3.0032,-3.0595,-3.0027,-2.9912,-3.0441,-3.0428,-3.0406,-3.0402,-3.1256,-3.1667,-3.1591,-3.1853,-3.2387,-3.3149,-3.2837,-3.2386,-3.1847,-3.1599,-3.114,-3.0624,-3.1168,-3.1672,-3.2102,-3.2447,-3.2851,-3.3292,-3.3653,-3.3902,-3.4131,-3.4699,-3.5059,-3.5514,-3.6936,-3.7561,-3.8054,-3.9475,-3.9889,-3.9889,-3.9889,-3.9889,-3.9889,-3.9889,-3.9889,-4.0306,-4.2014,-4.2347,-4.2796,-4.4436,-4.4504,-4.4105,-4.3495,-4.3799,-4.397,-4.3388,-4.397,-4.4515,-4.4515,-4.4515,-4.4515,-4.4515,-4.3275,-4.2404,-4.2462,-4.1207,-4.051,-4.098,-4.0989,-4.0691,-4.0048,-4.055,-4.0606,-4.003,-4.0253,-4.0661,-4.1219,-4.1479,-4.1999,-4.2797,-4.2797,-4.3206,-4.4005,-4.4005,-4.4005,-3.0901,0.0,0.0,0.0,0.0,0.0,-3.1504,0.0,0.0,0.0,-3.2871,-3.2795,-3.2461,-3.2402,-3.2402,-3.2402,-3.1938,-3.1587,-3.1587,-3.1139,-3.0802,-3.0798,-3.0794,-3.0792,-3.0755,-3.073,-3.0685,-3.0661,-2.9842,-2.9713,-3.053,-2.9728,-2.9602,-3.0378,-3.0406,-3.0402,-3.0398,-3.0929,-3.1148,-3.1085,-3.1085,-3.1333,-3.1757,-3.1728,-3.1446,-3.0987,-3.0987,-3.0682,-3.0261,-3.1068,-3.1573,-3.1905,-3.2419,-3.3016,-3.3555,-3.3726,-3.3958,-3.4245,-3.4737,-3.4908,-3.5116,-3.6481,-3.7125,-3.7637,-3.902,-3.9665,-3.9889,-3.9889,-3.9889,-3.9889,-3.9889,-3.9889,-4.0306,-4.2014,-4.2366,-4.2796,-4.4461,-4.4719,-4.4482,-4.4018,-4.4213,-4.4364,-4.3857,-4.4177,-4.4515,-4.4515,-4.4515,-4.4383,-4.4064,-4.2844,-4.2198,-4.265,-4.1533,-4.1012,-4.1726,-4.1745,-4.1511,-4.0942,-4.1359,-4.1534,-4.1349,-4.1349,-4.1571,-4.2073,-4.2389,-4.2797,-4.328,-4.328,-4.3522,-4.4005,-4.4005,-4.4005,-3.0905,0.0,0.0,0.0,0.0,0.0,-3.0899,-3.207,-3.2931,-3.2148,0.0,-3.1758,-3.1036,-3.0899,-3.0899,-3.0899,-3.0846,-3.0798,-3.0794,-3.0798,-3.0794,-3.0798,-3.0794,-3.0769,-3.071,-3.069,-3.0661,-3.0604,-2.9794,-2.9651,-3.0452,-2.9668,-2.9569,-3.0367,-3.0402,-3.0398,-3.0398,-3.0398,-3.0367,-3.0292,-3.0286,-3.0266,-3.0207,-3.0199,-3.0204,-3.0204,-3.0204,-3.0242,-3.0376,-3.1197,-3.2038,-3.2825,-3.2902,-3.3808,-3.4997,-3.4217,-3.4336,-3.4908,-3.4908,-3.4908,-3.504,-3.5912,-3.6727,-3.7561,-3.8454,-3.9267,-3.9889,-3.9889,-3.9889,-3.9889,-3.9889,-3.9889,-4.0287,-4.192,-4.2356,-4.2848,-4.444,-4.4758,-4.4712,-4.4712,-4.4578,-4.4515,-4.4515,-4.4515,-4.4515,-4.4515,-4.4458,-4.4139,-4.3388,-4.2543,-4.201,-4.2104,-4.1473,-4.1334,-4.2061,-4.2081,-4.1978,-4.1828,-4.1835,-4.211,-4.276,-4.2797,-4.2835,-4.2909,-4.3633,-4.4005,-4.4005,-4.4005,-4.4005,-4.4005,-4.4005,-4.4005,0.0,-3.0896,0.0,0.0,0.0,-3.0899,-3.0899,-3.1133,-3.1309,-3.1114,-3.1075,-3.1036,-3.086,-3.0821,-3.0821,-3.0821,-3.0804,-3.0806,-3.0793,-3.0799,-3.0784,-3.0728,-3.0717,-3.071,-3.0707,-3.0657,-3.0623,-3.0607,-2.9786,-2.9631,-3.0381,-2.9627,-2.9578,-3.0371,-3.0348,-3.0316,-3.0316,-3.033,-3.0292,-3.0215,-3.0221,-3.0207,-3.0199,-3.0185,-3.0204,-3.0204,-3.0204,-3.0586,-3.1274,-3.2095,-3.2936,-3.3777,-3.4426,-3.4854,-3.5073,-3.4883,-3.4849,-3.4908,-3.4908,-3.4908,-3.504,-3.5912,-3.6727,-3.7561,-3.8454,-3.9267,-3.9889,-3.9889,-3.9889,-3.9889,-3.9889,-3.9889,-4.0154,-4.1219,-4.1939,-4.2697,-4.3739,-4.4361,-4.4712,-4.4712,-4.4578,-4.4515,-4.4515,-4.4515,-4.4515,-4.4515,-4.397,-4.3501,-4.3313,-4.2543,-4.228,-4.2956,-4.2862,-4.3061,-4.3812,-4.3801,-4.3434,-4.2675,-4.3174,-4.328,-4.2816,-4.2797,-4.3095,-4.3726,-4.3912,-4.4005,-4.4005,-4.4005,-4.4005,-4.4005,-4.4005,-4.4005,0.0,0.0,0.0,0.0,0.0,0.0,-3.0899,-3.086,-3.0801,-3.0801,-3.0801,-3.0801,-3.0801,-3.0801,-3.0796,-3.0801,-3.0763,-3.076,-3.0759,-3.0755,-3.0737,-3.0704,-3.0664,-3.0653,-3.0657,-3.0613,-3.0586,-3.054,-2.9748,-2.9592,-3.0359,-2.9616,-2.9517,-3.0328,-3.0316,-3.0304,-3.0299,-3.026,-3.0221,-3.0194,-3.0166,-3.0152,-3.0161,-3.019,-3.0204,-3.0204,-3.0204,-3.0682,-3.156,-3.2382,-3.3223,-3.4082,-3.4885,-3.516,-3.5092,-3.5092,-3.502,-3.4908,-3.4908,-3.4908,-3.4965,-3.542,-3.6405,-3.7466,-3.794,-3.8925,-3.9889,-3.9889,-3.9889,-3.9889,-3.9889,-3.9889,-4.0003,-4.0479,-4.1219,-4.2185,-4.3436,-4.3926,-4.424,-4.4636,-4.4578,-4.4515,-4.4515,-4.4177,-4.3933,-4.3933,-4.3219,-4.2693,-4.2693,-4.228,-4.2337,-4.32,-4.3294,-4.3613,-4.4383,-4.4373,-4.4098,-4.3591,-4.3825,-4.3819,-4.3392,-4.3373,-4.3578,-4.3986,-4.4005,-4.4005,-4.4005,-4.4005,-4.4005,-4.4005,-4.4005,-4.4005,0.0,0.0,0.0,0.0,0.0,0.0,-3.0899,-3.086,-3.0801,-3.0801,-3.0801,-3.0799,-3.0794,-3.0794,-3.0801,-3.0774,-3.0739,-3.0697,-3.0704,-3.0695,-3.0673,-3.0692,-3.0629,-3.0593,-3.0595,-3.0586,-3.0568,-3.0491,-2.9814,-2.9687,-3.0348,-2.9709,-2.9617,-3.0253,-3.0279,-3.0286,-3.0266,-3.0194,-3.0166,-3.0157,-3.0094,-3.0083,-3.0072,-3.0128,-3.0171,-3.019,-3.0357,-3.0911,-3.1771,-3.2592,-3.3433,-3.4273,-3.4945,-3.5143,-3.5075,-3.5075,-3.5001,-3.4908,-3.4908,-3.4908,-3.4908,-3.4908,-3.6026,-3.739,-3.739,-3.8565,-3.9889,-3.9889,-3.9889,-3.9889,-3.9889,-3.9889,-3.9889,-3.9889,-4.046,-4.1408,-4.2943,-4.3396,-4.3712,-4.4372,-4.4484,-4.4477,-4.4327,-4.3745,-4.3238,-4.3106,-4.2355,-4.1822,-4.1972,-4.1991,-4.2337,-4.32,-4.3426,-4.3782,-4.4458,-4.4373,-4.4285,-4.4285,-4.4097,-4.4005,-4.4005,-4.4005,-4.4005,-4.4005,-4.4005,-4.4005,-4.4005,-4.4005,-4.4005,-4.4005,-4.4005,-4.4005,0.0,0.0,0.0,0.0,0.0,-3.0897,0.0,0.0,-3.0801,-3.0801,-3.0801,-3.0794,-3.0798,-3.0789,-3.0774,-3.0717,-3.0704,-3.0695,-3.0692,-3.0643,-3.0613,-3.0613,-3.0604,-3.0595,-3.0607,-3.054,-3.052,-3.0509,-3.0342,-3.026,-3.0309,-3.0201,-3.0164,-3.0215,-3.0207,-3.0185,-3.0123,-3.0049,-3.0038,-3.0038,-2.9956,-2.994,-2.994,-3.0007,-3.0049,-3.0147,-3.0973,-3.179,-3.2596,-3.3471,-3.4315,-3.5064,-3.516,-3.511,-3.502,-3.502,-3.4983,-3.4908,-3.4908,-3.4908,-3.4908,-3.4908,-3.6026,-3.739,-3.739,-3.8565,-3.9889,-3.9889,-3.9889,-3.9889,-3.9889,-3.9889,-3.9889,-3.9889,-3.9984,-4.0347,-4.1332,-4.2559,-4.3542,-4.3655,-4.4108,-4.4289,-4.3576,-4.3369,-4.3031,-4.2299,-4.1492,-4.121,-4.1897,-4.1991,-4.2337,-4.32,-4.3933,-4.4383,-4.4496,-4.4373,-4.4285,-4.4285,-4.4097,-4.4005,-4.4005,-4.4005,-4.4005,-4.4005,-4.4005,-4.4005,-4.4005,-4.4005,-4.4005,-4.4005,-4.4005,-4.3974,-3.0898,0.0,0.0,0.0,0.0,-3.0891,-3.0901,-3.086,-3.0796,-3.0798,-3.0769,-3.0743,-3.0736,-3.0736,-3.073,-3.0697,-3.0673,-3.0651,-3.0646,-3.0616,-3.0597,-3.0597,-3.0559,-3.055,-3.054,-3.051,-3.049,-3.0458,-3.0425,-3.0371,-3.0304,-3.0267,-3.0215,-3.0213,-3.0157,-3.0113,-3.0034,-2.994,-2.9876,-2.9825,-2.9806,-3.0033,-3.0524,-3.0593,-3.0658,-3.0738,-3.1184,-3.2114,-3.3353,-3.3732,-3.4382,-3.5147,-3.5147,-3.5075,-3.5001,-3.5001,-3.4945,-3.4908,-3.4908,-3.4908,-3.4908,-3.4908,-3.5723,-3.6803,-3.7258,-3.8262,-3.9323,-3.9778,-3.9889,-3.9889,-3.9889,-3.9889,-3.9889,-3.9889,-3.9889,-3.9984,-4.0404,-4.1671,-4.302,-4.3909,-4.4298,-4.4252,-4.3444,-4.29,-4.2299,-4.1454,-4.0647,-4.0572,-4.1822,-4.1991,-4.2498,-4.3783,-4.4233,-4.443,-4.4401,-4.4285,-4.4244,-4.4244,-4.4085,-4.4005,-4.4005,-4.4005,-4.4005,-4.4005,-4.4005,-4.4005,-4.4005,-4.4005,-4.3974,-4.3942,-4.3942,-4.3897,0.0,0.0,0.0,0.0,-3.0894,-3.0899,0.0,0.0,-3.0794,-3.0774,-3.0729,-3.0692,-3.0673,-3.0661,-3.0661,-3.0661,-3.0623,-3.0598,-3.0579,-3.0579,-3.0579,-3.0579,-3.052,-3.051,-3.051,-3.0479,-3.0447,-3.0406,-3.0379,-3.033,-3.0267,-3.0221,-3.0152,-3.0128,-3.0087,-3.0007,-2.9924,-2.9825,-2.9738,-2.9645,-2.9852,-3.0284,-3.0922,-3.1205,-3.1467,-3.1746,-3.187,-3.2623,-3.3781,-3.401,-3.4485,-3.5075,-3.5075,-3.502,-3.4964,-3.4964,-3.4945,-3.4908,-3.4908,-3.4908,-3.4908,-3.4908,-3.5495,-3.6348,-3.7163,-3.7997,-3.8869,-3.9683,-3.9889,-3.9889,-3.9889,-3.9889,-3.9889,-3.9889,-3.9889,-4.0003,-4.0416,-4.1402,-4.268,-4.4204,-4.4515,-4.4177,-4.3144,-4.2431,-4.168,-4.0647,-3.9971,-4.0103,-4.1511,-4.1717,-4.231,-4.3924,-4.4083,-4.4148,-4.4296,-4.4244,-4.4184,-4.4184,-4.4085,-4.4005,-4.4005,-4.4005,-4.4005,-4.4005,-4.3974,-4.3974,-4.4005,-4.3974,-4.3961,-4.3897,-4.3865,-4.38,0.0,0.0,0.0,0.0,0.0,0.0,0.0,-3.0801,-3.0774,-3.0711,-3.0704,-3.069,-3.0616,-3.0607,-3.0607,-3.0607,-3.0598,-3.0579,-3.0519,-3.0509,-3.0509,-3.0509,-3.0509,-3.0509,-3.0509,-3.0444,-3.041,-3.041,-3.0273,-3.0207,-3.0218,-3.0147,-3.0038,-2.9905,-2.991,-2.9859,-2.9717,-2.9645,-2.9588,-2.9531,-3.0297,-3.0669,-3.0725,-3.157,-3.2416,-3.3205,-3.3469,-3.3617,-3.3767,-3.4603,-3.4963,-3.5001,-3.5001,-3.4964,-3.4908,-3.4908,-3.4889,-3.4908,-3.4908,-3.4908,-3.4908,-3.4908,-3.5495,-3.6348,-3.7163,-3.7997,-3.8869,-3.9683,-3.9889,-3.9889,-3.9889,-3.9889,-3.9889,-3.9889,-3.9889,-4.0302,-4.1774,-4.214,-4.268,-4.4204,-4.4515,-4.3989,-4.2355,-4.201,-4.1473,-3.9896,-3.9639,-3.9896,-4.0741,-4.0854,-4.1485,-4.3091,-4.3259,-4.3531,-4.4258,-4.4244,-4.4184,-4.4184,-4.4085,-4.4005,-4.4005,-4.4005,-4.4005,-4.4005,-4.3929,-4.3929,-4.4005,-4.3929,-4.3897,-4.3915,-4.3697,-4.3563,0.0,0.0,0.0,-3.0898,-3.0894,-3.088,-3.0821,-3.0804,-3.0784,-3.0703,-3.0673,-3.0627,-3.0598,-3.0598,-3.0595,-3.0607,-3.0558,-3.0535,-3.0499,-3.0488,-3.0507,-3.0499,-3.0469,-3.0447,-3.0444,-3.0379,-3.0323,-3.0273,-3.0194,-3.0142,-3.0147,-3.0041,-2.9926,-2.9841,-2.979,-2.9682,-2.9513,-2.9472,-2.9451,-2.9448,-3.029,-3.0961,-3.1504,-3.2369,-3.3231,-3.402,-3.4108,-3.4216,-3.4375,-3.4736,-3.4907,-3.4946,-3.4946,-3.4908,-3.4908,-3.4908,-3.4908,-3.4908,-3.4908,-3.4908,-3.4908,-3.4908,-3.5116,-3.5514,-3.6367,-3.7201,-3.8035,-3.8888,-3.9513,-3.9889,-3.9889,-3.9889,-3.9889,-3.9889,-3.9889,-4.0321,-4.1863,-4.2197,-4.268,-4.4204,-4.4515,-4.3989,-4.2273,-4.1991,-4.1454,-3.9821,-3.9602,-3.9877,-4.0703,-4.0797,-4.1428,-4.3016,-4.3109,-4.3388,-4.417,-4.4116,-4.4055,-4.4055,-4.4036,-4.4005,-4.4005,-4.4005,-4.3974,-4.3929,-4.3897,-4.3897,-4.3929,-4.3883,-4.3786,-4.3634,-4.3582,-4.3444,-3.0898,0.0,0.0,0.0,0.0,-3.0877,-3.0816,-3.0798,-3.0788,-3.0709,-3.0646,-3.0588,-3.0567,-3.0579,-3.0568,-3.0579,-3.0527,-3.0483,-3.0466,-3.0475,-3.0475,-3.0466,-3.0406,-3.0383,-3.0379,-3.0311,-3.0247,-3.0161,-3.0075,-3.0019,-2.9991,-2.9895,-2.979,-2.97,-2.9626,-2.9531,-2.9412,-2.9392,-2.9409,-2.9407,-3.0525,-3.1347,-3.1886,-3.3026,-3.3832,-3.434,-3.434,-3.4473,-3.4645,-3.4727,-3.4768,-3.4848,-3.4887,-3.4888,-3.4908,-3.4908,-3.4908,-3.4908,-3.4908,-3.4908,-3.4908,-3.4908,-3.4908,-3.5059,-3.5931,-3.6746,-3.758,-3.8433,-3.9286,-3.9889,-3.9889,-3.9889,-3.9889,-3.9889,-3.9889,-4.0321,-4.1863,-4.2197,-4.268,-4.4204,-4.4515,-4.4064,-4.2675,-4.2205,-4.1567,-4.0196,-3.9765,-3.9808,-4.0328,-4.0403,-4.0997,-4.2585,-4.2679,-4.3071,-4.4121,-4.4135,-4.4055,-4.4005,-4.4005,-4.4005,-4.4005,-4.3974,-4.3961,-4.3897,-4.38,-4.3767,-4.3767,-4.3719,-4.36,-4.3444,-4.3393,-4.3251,0.0,0.0,0.0,0.0,0.0,-3.0875,-3.082,-3.0803,-3.078,-3.0715,-3.0653,-3.0588,-3.051,-3.0488,-3.0497,-3.0499,-3.0499,-3.0477,-3.041,-3.0398,-3.0398,-3.0398,-3.0336,-3.0304,-3.0304,-3.0234,-3.0171,-3.0094,-2.9969,-2.9855,-2.9808,-2.9738,-2.9626,-2.9492,-2.9433,-2.9392,-2.9392,-2.9409,-2.9407,-2.9425,-3.1021,-3.1801,-3.1857,-3.3454,-3.4197,-3.4197,-3.4269,-3.4381,-3.4495,-3.4561,-3.4645,-3.4727,-3.4848,-3.4887,-3.4907,-3.4908,-3.4908,-3.4908,-3.4908,-3.4908,-3.4908,-3.4908,-3.4908,-3.5059,-3.5912,-3.6708,-3.7542,-3.8414,-3.9248,-3.9851,-3.9889,-3.9889,-3.9889,-3.9889,-3.9889,-4.0321,-4.1863,-4.2197,-4.268,-4.4204,-4.4515,-4.4252,-4.3444,-4.26,-4.1773,-4.0929,-4.014,-3.9639,-3.9602,-3.9602,-4.0171,-4.175,-4.1892,-4.253,-4.4065,-4.4184,-4.4135,-4.4005,-4.4005,-4.4005,-4.4005,-4.3929,-4.3897,-4.3897,-4.3634,-4.3479,-4.3497,-4.3497,-4.3444,-4.3267,-4.3142,-4.2992,-3.0898,0.0,0.0,0.0,0.0,0.0,-3.0821,-3.0803,-3.0776,-3.0711,-3.0606,-3.052,-3.049,-3.0458,-3.0436,-3.0433,-3.0433,-3.0421,-3.041,-3.0398,-3.0379,-3.0336,-3.0316,-3.0279,-3.0221,-3.0185,-3.0064,-2.9959,-2.9822,-2.9736,-2.9664,-2.955,-2.9453,-2.9433,-2.9411,-2.9409,-2.9409,-2.9407,-2.9386,-2.9342,-3.0954,-3.1691,-3.17,-3.3309,-3.4049,-3.4049,-3.4074,-3.4124,-3.4221,-3.4404,-3.4495,-3.4561,-3.4645,-3.4747,-3.4829,-3.4868,-3.4888,-3.4908,-3.4908,-3.4908,-3.4908,-3.4908,-3.4908,-3.4946,-3.5192,-3.5855,-3.6689,-3.7523,-3.8357,-3.9172,-3.9759,-3.9889,-3.9889,-3.9889,-3.9889,-4.0321,-4.1863,-4.2197,-4.268,-4.4204,-4.4515,-4.4252,-4.3444,-4.3106,-4.2449,-4.1022,-4.0609,-4.0253,-3.9677,-3.9602,-4.0215,-4.1804,-4.1884,-4.2473,-4.4125,-4.4147,-4.4036,-4.4005,-4.4005,-4.3974,-4.3929,-4.3851,-4.3753,-4.3615,-4.3426,-4.3304,-4.3196,-4.3251,-4.3251,-4.316,-4.2974,-4.2783,0.0,0.0,0.0,-3.0898,0.0,0.0,-3.0817,-3.0804,-3.0787,-3.0704,-3.0629,-3.053,-3.051,-3.0439,-3.0406,-3.041,-3.0398,-3.0398,-3.0398,-3.0398,-3.0379,-3.0304,-3.0292,-3.0273,-3.0218,-3.0109,-3.0003,-2.9859,-2.9773,-2.9664,-2.9531,-2.9451,-2.939,-2.939,-2.9388,-2.9386,-2.9365,-2.9365,-2.9304,-2.928,-3.0557,-3.1312,-3.1653,-3.2927,-3.3684,-3.3998,-3.3998,-3.4023,-3.4074,-3.4173,-3.4293,-3.4427,-3.4517,-3.4623,-3.4727,-3.4809,-3.4868,-3.4908,-3.4908,-3.4908,-3.4908,-3.4908,-3.4908,-3.4908,-3.4908,-3.5514,-3.6367,-3.7163,-3.8262,-3.9304,-3.9797,-3.9889,-3.9889,-3.9889,-3.9889,-4.0321,-4.1863,-4.2197,-4.268,-4.4204,-4.4515,-4.4364,-4.3876,-4.352,-4.2975,-4.198,-4.1529,-4.1135,-4.0666,-4.0565,-4.1046,-4.2358,-4.238,-4.2818,-4.4162,-4.4165,-4.4055,-4.4005,-4.3974,-4.3961,-4.3897,-4.3753,-4.36,-4.3479,-4.3304,-4.3142,-4.3012,-4.3068,-4.3031,-4.2899,-4.2783,-4.2667,0.0,0.0,0.0,-3.0898,-3.0892,0.0,-3.0819,-3.0794,-3.0755,-3.0592,-3.0508,-3.041,-3.026,-3.016,-3.0155,-3.0237,-3.0256,-3.0294,-3.0379,-3.0398,-3.0379,-3.0304,-3.0286,-3.0266,-3.0204,-3.0145,-3.0075,-2.9922,-2.9833,-2.97,-2.9522,-2.9444,-2.9386,-2.9386,-2.9386,-2.9365,-2.9302,-2.9302,-2.9262,-2.9197,-2.9991,-3.0822,-3.161,-3.2404,-3.3216,-3.3972,-3.3972,-3.3972,-3.3998,-3.3998,-3.4099,-3.4293,-3.4427,-3.4517,-3.4583,-3.4747,-3.4827,-3.4907,-3.4908,-3.4908,-3.4908,-3.4908,-3.4908,-3.4908,-3.4908,-3.5438,-3.6234,-3.7144,-3.8546,-3.9797,-3.987,-3.9889,-3.9889,-3.9889,-3.9889,-4.0321,-4.1863,-4.2197,-4.268,-4.4204,-4.4515,-4.4515,-4.4515,-4.3914,-4.3388,-4.3313,-4.2637,-4.2104,-4.1991,-4.1938,-4.2229,-4.3081,-4.3062,-4.3312,-4.414,-4.4184,-4.4104,-4.4005,-4.3929,-4.3883,-4.3865,-4.3615,-4.3479,-4.3463,-4.3196,-4.3048,-4.3027,-4.2936,-4.2786,-4.2609,-4.2609,-4.2548,-3.0898,-3.0898,-3.0898,-3.0909,-3.0909,0.0,-3.0816,-3.0794,-3.0574,-2.9814,-2.9596,-2.9345,-2.8617,-2.8425,-2.8596,-2.9248,-2.9352,-2.9602,-3.0302,-3.0398,-3.0386,-3.0305,-3.0292,-3.024,-3.0132,-3.0582,-3.0843,-3.0716,-3.046,-3.029,-3.0202,-2.9591,-2.924,-2.924,-2.924,-2.9222,-2.9218,-2.9218,-2.9197,-2.913,-2.9941,-3.0709,-3.147,-3.2254,-3.3062,-3.3842,-3.3842,-3.3868,-3.3921,-3.3921,-3.3998,-3.4148,-3.4221,-3.4381,-3.4517,-3.4623,-3.4747,-3.4887,-3.4907,-3.4888,-3.4908,-3.4908,-3.4908,-3.4908,-3.4908,-3.5022,-3.5476,-3.6973,-3.813,-3.9077,-3.974,-3.9889,-3.9889,-3.9889,-3.9889,-4.0321,-4.1863,-4.2197,-4.268,-4.4204,-4.4515,-4.4515,-4.4515,-4.4383,-4.4064,-4.3388,-4.3108,-4.2725,-4.2013,-4.1856,-4.2146,-4.294,-4.2976,-4.3271,-4.4128,-4.4042,-4.3947,-4.3929,-4.3851,-4.3753,-4.3582,-4.3426,-4.3304,-4.3178,-4.3031,-4.3226,-4.3779,-4.3129,-4.2727,-4.2609,-4.2548,-4.2445,-3.0898,-3.0898,-3.0898,-3.0903,-3.0903,0.0,0.0,-3.0827,-3.0673,-3.0195,-2.9699,-2.9213,-2.8736,-2.826,-2.8068,-2.8442,-2.8467,-2.8752,-2.9636,-3.0098,-3.0323,-3.0266,-3.0253,-3.0185,-3.0053,-3.0305,-3.0358,-3.0129,-3.0355,-3.0298,-2.9824,-2.9787,-2.9603,-2.9218,-2.92,-2.9178,-2.9134,-2.9134,-2.913,-2.9062,-2.9467,-3.005,-3.0815,-3.1219,-3.1843,-3.2596,-3.2596,-3.2621,-3.2647,-3.2647,-3.2723,-3.2896,-3.3809,-3.4221,-3.4381,-3.4495,-3.4645,-3.4768,-3.4868,-3.4888,-3.4888,-3.4908,-3.4908,-3.4908,-3.4908,-3.5192,-3.5723,-3.6557,-3.7713,-3.8774,-3.9191,-3.9608,-3.9889,-3.9889,-3.9889,-4.0208,-4.1378,-4.1593,-4.1927,-4.3058,-4.3257,-4.3538,-4.4364,-4.4515,-4.4337,-4.3896,-4.3812,-4.3587,-4.3052,-4.2957,-4.3036,-4.3416,-4.338,-4.3534,-4.3961,-4.3915,-4.3851,-4.3851,-4.3719,-4.3618,-4.3479,-4.3304,-4.3324,-4.3592,-4.3536,-4.3896,-4.465,-4.4213,-4.3895,-4.3696,-4.3215,-4.2953,-3.0898,-3.0898,-3.0897,-3.0905,-3.0901,-3.0899,0.0,0.0,0.0,-3.0572,-2.9801,-2.909,-2.8868,-2.8109,-2.7556,-2.7653,-2.7612,-2.7857,-2.8718,-2.9543,-3.0094,-3.0202,-3.0199,-3.0142,-3.0003,-2.9992,-2.9927,-2.9758,-3.0339,-3.0331,-2.9433,-3.0001,-2.9982,-2.9193,-2.9156,-2.9152,-2.9085,-2.9085,-2.9044,-2.8994,-2.8994,-2.9439,-3.021,-3.021,-3.0632,-3.1384,-3.1384,-3.1384,-3.1384,-3.1384,-3.1434,-3.1612,-3.3044,-3.366,-3.3757,-3.3919,-3.4161,-3.4379,-3.4562,-3.4735,-3.4907,-3.4908,-3.4889,-3.4889,-3.4889,-3.5381,-3.5968,-3.612,-3.7277,-3.849,-3.8641,-3.9283,-3.9889,-3.9867,-3.9867,-4.0072,-4.0825,-4.099,-4.1167,-4.1849,-4.1991,-4.2404,-4.3774,-4.4149,-4.4215,-4.4186,-4.426,-4.4248,-4.4109,-4.4005,-4.3961,-4.3883,-4.3818,-4.3804,-4.3804,-4.3753,-4.3719,-4.3719,-4.3532,-4.3428,-4.3428,-4.3342,-4.3538,-4.4077,-4.424,-4.4729,-4.5526,-4.5441,-4.5245,-4.4839,-4.4145,-4.3775,-3.0898,-3.0895,-3.0905,-3.0892,-3.0907,-3.088,-3.0821,0.0,-3.0573,-2.9815,0.0,-2.8082,-2.7239,0.0,0.0,-2.6727,-2.6786,-2.7024,-2.7831,-2.8644,-2.9417,-3.0125,-3.0199,-3.0142,-3.0003,-3.0414,-3.0872,-3.1312,-3.1413,-3.107,-3.0142,-3.0178,-2.9866,-2.9035,-2.9017,-2.9017,-2.9017,-2.9017,-2.9017,-2.8994,-2.8994,-2.9439,-3.021,-3.021,-3.0632,-3.1384,-3.1384,-3.1384,-3.1384,-3.1384,-3.1384,-3.1427,-3.1685,-3.1903,-3.2084,-3.2151,-3.277,-3.3552,-3.3633,-3.4204,-3.4887,-3.4907,-3.4907,-3.4907,-3.4907,-3.4924,-3.5131,-3.5889,-3.6799,-3.7707,-3.8445,-3.9199,-3.9804,-3.9735,-3.9712,-3.9934,-4.0753,-4.0917,-4.1092,-4.1769,-4.1892,-4.1994,-4.2235,-4.2883,-4.3334,-4.3334,-4.3741,-4.4036,-4.3986,-4.3897,-4.3837,-4.3804,-4.3804,-4.3804,-4.3804,-4.3652,-4.3532,-4.3532,-4.3358,-4.3214,-4.3141,-4.3683,-4.4005,-4.4095,-4.4802,-4.5562,-4.6359,-4.6236,-4.5833,-4.5142,-4.491,-4.4833,-3.0892,-3.0894,-3.0894,-3.0907,-3.0903,-3.088,-3.0821,-3.0799,-3.0699,-3.0336,0.0,0.0,0.0,0.0,0.0,0.0,-2.5955,-2.6179,-2.6941,-2.7347,-2.802,-2.9281,-2.987,-3.0053,-2.9839,-2.9983,-3.0143,-3.0261,-3.0614,-3.0452,-2.9502,-2.9838,-2.9722,-2.8918,-2.8881,-2.8881,-2.8881,-2.8881,-2.8881,-2.8881,-2.8881,-2.9064,-2.9393,-2.9393,-2.9558,-2.9887,-2.9887,-2.9911,-2.9941,-2.9941,-2.9984,-3.0008,-3.0031,-3.072,-3.1709,-3.1805,-3.2157,-3.266,-3.3252,-3.3747,-3.4166,-3.4676,-3.4848,-3.4848,-3.4848,-3.4809,-3.4884,-3.5244,-3.6302,-3.7416,-3.7775,-3.8773,-3.9735,-3.9712,-3.9665,-3.9736,-4.0021,-4.0046,-4.0108,-4.0405,-4.0408,-4.0344,-4.039,-4.1465,-4.2314,-4.2257,-4.2419,-4.2502,-4.2408,-4.23,-4.2404,-4.2834,-4.2818,-4.2949,-4.3426,-4.3393,-4.3322,-4.3322,-4.3214,-4.3068,-4.2994,-4.3264,-4.3607,-4.4077,-4.4421,-4.5001,-4.5798,-4.5757,-4.5554,-4.5265,-4.5552,-4.5702,-3.0899,-3.0889,-3.0896,-3.0903,-3.0899,-3.086,-3.0801,-3.0801,-3.0799,-3.0794,-3.0118,0.0,0.0,0.0,-2.689,-2.6008,0.0,-2.5842,-2.6128,-2.6362,-2.7108,-2.872,-2.9569,-2.994,-2.9735,-2.9626,-2.951,-2.9323,-2.989,-2.9866,-2.8942,-2.9826,-2.9958,-2.9156,-2.9138,-2.9138,-2.9138,-2.8895,-2.8785,-2.8785,-2.8785,-2.8785,-2.8785,-2.8785,-2.8785,-2.8785,-2.8785,-2.8834,-2.8905,-2.8905,-2.8929,-2.8994,-2.8994,-2.9761,-3.0928,-3.1065,-3.1325,-3.1731,-3.2458,-3.3047,-3.3633,-3.4504,-3.4768,-3.4747,-3.4747,-3.4727,-3.4743,-3.499,-3.6123,-3.731,-3.7536,-3.8587,-3.9642,-3.9637,-3.9545,-3.9477,-3.9427,-3.9376,-3.9317,-3.9275,-3.9202,-3.9129,-3.9129,-4.0318,-4.1266,-4.1208,-4.1322,-4.1379,-4.1204,-4.1107,-4.1247,-4.175,-4.1918,-4.223,-4.2813,-4.3051,-4.3142,-4.3123,-4.3068,-4.2994,-4.2882,-4.3099,-4.3498,-4.4077,-4.4313,-4.4711,-4.5291,-4.5291,-4.5291,-4.5309,-4.5743,-4.5948,-3.0899,-3.0899,-3.0899,-3.0899,-3.086,-3.0801,-3.0801,-3.0801,-3.0799,-3.0794,-3.0105,-2.9487,-2.9468,-2.8739,-2.7851,-2.6909,-2.6699,0.0,0.0,-2.6,-2.7101,-2.8712,-2.9509,-2.9855,-2.9698,-2.957,-2.9451,-2.9323,-2.9844,-2.9819,-2.8942,-3.033,-3.0797,-2.9995,-2.9958,-2.9958,-2.9958,-2.9193,-2.8785,-2.8785,-2.8785,-2.8785,-2.8785,-2.8785,-2.8785,-2.8785,-2.8785,-2.8834,-2.8905,-2.8905,-2.8929,-2.8994,-2.8994,-2.9058,-2.9204,-2.9333,-2.9919,-3.0674,-3.084,-3.2029,-3.3633,-3.4504,-3.4708,-3.4623,-3.4623,-3.4517,-3.46,-3.5518,-3.6404,-3.7291,-3.8075,-3.8863,-3.9477,-3.9425,-3.9301,-3.921,-3.921,-3.9156,-3.9073,-3.9036,-3.9007,-3.8997,-3.8921,-3.9634,-4.0248,-4.0267,-4.0782,-4.1172,-4.1107,-4.1027,-4.0946,-4.086,-4.1519,-4.1993,-4.2029,-4.2705,-4.3049,-4.2938,-4.29,-4.2882,-4.2882,-4.3643,-4.4059,-4.4095,-4.4856,-4.5273,-4.5291,-4.5291,-4.5291,-4.5291,-4.5327,-4.5345,-3.0901,-3.0899,-3.0899,-3.0841,-3.086,-3.086,-3.0801,-3.0801,-3.0799,-3.0799,-3.0573,-3.0173,-2.9601,-2.8797,-2.7906,-2.7018,-2.6327,-2.5778,0.0,-2.5981,-2.6829,-2.7908,-2.9186,-2.9907,-2.9771,-2.9682,-2.9531,-2.933,-2.9381,-2.9242,-2.8845,-2.9758,-3.0148,-2.9872,-3.0387,-3.0404,-2.9879,-2.9602,-2.917,-2.8662,-2.8662,-2.8662,-2.8662,-2.8662,-2.8662,-2.8662,-2.8662,-2.8712,-2.8767,-2.8767,-2.881,-2.8876,-2.8876,-2.8905,-2.8975,-2.913,-2.941,-2.9816,-3.0499,-3.1871,-3.3355,-3.3658,-3.4086,-3.4473,-3.4409,-3.4386,-3.4573,-3.5432,-3.6296,-3.7168,-3.7947,-3.8726,-3.929,-3.9283,-3.9175,-3.9064,-3.9064,-3.9007,-3.895,-3.8921,-3.891,-3.8881,-3.8851,-3.9043,-3.9227,-3.9287,-3.9436,-3.9496,-3.9397,-3.9301,-3.9455,-3.9901,-4.0597,-4.1233,-4.1742,-4.2522,-4.2938,-4.2882,-4.2882,-4.2882,-4.2882,-4.3154,-4.3299,-4.3299,-4.357,-4.3697,-4.3697,-4.3697,-4.3697,-4.3697,-4.3697,-4.4277,-3.0901,-3.088,-3.086,-3.0801,-3.0841,-3.086,-3.0801,-3.0801,-3.0799,-3.0799,-3.0807,-3.0622,-3.0072,-2.9503,-2.8734,-2.7546,-2.6832,-2.618,0.0,-2.5948,-2.6689,-2.7508,-2.8764,-2.9637,-2.9806,-2.9719,-2.9569,-2.9314,-2.9086,-2.8906,-2.8803,-2.9423,-2.9805,-2.9791,-3.0296,-3.0315,-2.9807,-2.9518,-2.9119,-2.8587,-2.8587,-2.8587,-2.8587,-2.8587,-2.8587,-2.8587,-2.8587,-2.8662,-2.8737,-2.8737,-2.8785,-2.8858,-2.8858,-2.8905,-2.8952,-2.9021,-2.9178,-2.9421,-3.0323,-3.1539,-3.2754,-3.3053,-3.3664,-3.4293,-3.4245,-3.4245,-3.4487,-3.564,-3.6373,-3.705,-3.8141,-3.8765,-3.9101,-3.912,-3.9007,-3.8921,-3.8921,-3.8881,-3.8822,-3.8822,-3.8792,-3.8762,-3.8762,-3.8719,-3.8719,-3.875,-3.8719,-3.8658,-3.8478,-3.8415,-3.8569,-3.9,-3.9675,-4.0546,-4.1633,-4.2448,-4.2882,-4.2882,-4.2882,-4.2882,-4.2882,-4.2882,-4.2882,-4.2882,-4.2882,-4.2882,-4.2882,-4.2882,-4.2882,-4.2882,-4.2882,-4.3444]}]]